<?xml version="1.0" encoding="UTF-8" standalone="no" ?>
<gpx xmlns="http://www.topografix.com/GPX/1/1" xmlns:xsi="http://www.w3.org/2001/XMLSchema-instance" xsi:schemaLocation="http://www.topografix.com/GPX/1/1 http://www.topografix.com/GPX/1/1/gpx.xsd" version="1.1" creator="VisuGPX - https://www.visugpx.com">
  <metadata>
    <name>Col du Glandon 19 07 2015</name>
    <desc><![CDATA[Route de la Croix de Fer fermée]]></desc>
  </metadata>
  <trk>
    <name><![CDATA[Actuel: 19 JUI 2015 07:52]]></name>
    <trkseg>
      <trkpt lat="45.1206" lon="6.01268">
        <ele>720.12</ele>
        <time>2015-07-19T05:52:30Z</time>
      </trkpt>
      <trkpt lat="45.12059" lon="6.01263">
        <ele>738.33</ele>
        <time>2015-07-19T05:52:34Z</time>
      </trkpt>
      <trkpt lat="45.12057" lon="6.0126">
        <ele>720.06</ele>
        <time>2015-07-19T05:52:36Z</time>
      </trkpt>
      <trkpt lat="45.12055" lon="6.01259">
        <ele>720.11</ele>
        <time>2015-07-19T05:52:37Z</time>
      </trkpt>
      <trkpt lat="45.12053" lon="6.01257">
        <ele>720.17</ele>
        <time>2015-07-19T05:52:38Z</time>
      </trkpt>
      <trkpt lat="45.12052" lon="6.01256">
        <ele>720.21</ele>
        <time>2015-07-19T05:52:39Z</time>
      </trkpt>
      <trkpt lat="45.12049" lon="6.01255">
        <ele>720.27</ele>
        <time>2015-07-19T05:52:40Z</time>
      </trkpt>
      <trkpt lat="45.12047" lon="6.01254">
        <ele>720.34</ele>
        <time>2015-07-19T05:52:41Z</time>
      </trkpt>
      <trkpt lat="45.12004" lon="6.01251">
        <ele>723.39</ele>
        <time>2015-07-19T05:52:53Z</time>
      </trkpt>
      <trkpt lat="45.11985" lon="6.01256">
        <ele>724.3</ele>
        <time>2015-07-19T05:52:57Z</time>
      </trkpt>
      <trkpt lat="45.11935" lon="6.01274">
        <ele>723.97</ele>
        <time>2015-07-19T05:53:08Z</time>
      </trkpt>
      <trkpt lat="45.11929" lon="6.01276">
        <ele>723.97</ele>
        <time>2015-07-19T05:53:09Z</time>
      </trkpt>
      <trkpt lat="45.11881" lon="6.01306">
        <ele>722.66</ele>
        <time>2015-07-19T05:53:17Z</time>
      </trkpt>
      <trkpt lat="45.11839" lon="6.01342">
        <ele>722.25</ele>
        <time>2015-07-19T05:53:25Z</time>
      </trkpt>
      <trkpt lat="45.11795" lon="6.01377">
        <ele>722.31</ele>
        <time>2015-07-19T05:53:33Z</time>
      </trkpt>
      <trkpt lat="45.11753" lon="6.01427">
        <ele>721.99</ele>
        <time>2015-07-19T05:53:42Z</time>
      </trkpt>
      <trkpt lat="45.11719" lon="6.01483">
        <ele>721.35</ele>
        <time>2015-07-19T05:53:52Z</time>
      </trkpt>
      <trkpt lat="45.11714" lon="6.0149">
        <ele>720.84</ele>
        <time>2015-07-19T05:53:56Z</time>
      </trkpt>
      <trkpt lat="45.11713" lon="6.01492">
        <ele>720.74</ele>
        <time>2015-07-19T05:53:57Z</time>
      </trkpt>
      <trkpt lat="45.11712" lon="6.01496">
        <ele>720.67</ele>
        <time>2015-07-19T05:53:58Z</time>
      </trkpt>
      <trkpt lat="45.11715" lon="6.01499">
        <ele>720.72</ele>
        <time>2015-07-19T05:53:59Z</time>
      </trkpt>
      <trkpt lat="45.11717" lon="6.01503">
        <ele>720.74</ele>
        <time>2015-07-19T05:54:00Z</time>
      </trkpt>
      <trkpt lat="45.11721" lon="6.01507">
        <ele>720.79</ele>
        <time>2015-07-19T05:54:01Z</time>
      </trkpt>
      <trkpt lat="45.11725" lon="6.01511">
        <ele>720.92</ele>
        <time>2015-07-19T05:54:02Z</time>
      </trkpt>
      <trkpt lat="45.11771" lon="6.01558">
        <ele>721.76</ele>
        <time>2015-07-19T05:54:11Z</time>
      </trkpt>
      <trkpt lat="45.1181" lon="6.01608">
        <ele>722.29</ele>
        <time>2015-07-19T05:54:19Z</time>
      </trkpt>
      <trkpt lat="45.11853" lon="6.01657">
        <ele>722.43</ele>
        <time>2015-07-19T05:54:27Z</time>
      </trkpt>
      <trkpt lat="45.11894" lon="6.01708">
        <ele>722.83</ele>
        <time>2015-07-19T05:54:35Z</time>
      </trkpt>
      <trkpt lat="45.11934" lon="6.01767">
        <ele>723.33</ele>
        <time>2015-07-19T05:54:43Z</time>
      </trkpt>
      <trkpt lat="45.11965" lon="6.01821">
        <ele>723.7</ele>
        <time>2015-07-19T05:54:50Z</time>
      </trkpt>
      <trkpt lat="45.11995" lon="6.01881">
        <ele>724.31</ele>
        <time>2015-07-19T05:54:58Z</time>
      </trkpt>
      <trkpt lat="45.11997" lon="6.01889">
        <ele>724.36</ele>
        <time>2015-07-19T05:54:59Z</time>
      </trkpt>
      <trkpt lat="45.12021" lon="6.01953">
        <ele>725.28</ele>
        <time>2015-07-19T05:55:08Z</time>
      </trkpt>
      <trkpt lat="45.12045" lon="6.02013">
        <ele>725.38</ele>
        <time>2015-07-19T05:55:16Z</time>
      </trkpt>
      <trkpt lat="45.12073" lon="6.02081">
        <ele>725.67</ele>
        <time>2015-07-19T05:55:25Z</time>
      </trkpt>
      <trkpt lat="45.12081" lon="6.02105">
        <ele>725.68</ele>
        <time>2015-07-19T05:55:28Z</time>
      </trkpt>
      <trkpt lat="45.12082" lon="6.02112">
        <ele>725.64</ele>
        <time>2015-07-19T05:55:29Z</time>
      </trkpt>
      <trkpt lat="45.12083" lon="6.02121">
        <ele>725.73</ele>
        <time>2015-07-19T05:55:30Z</time>
      </trkpt>
      <trkpt lat="45.12096" lon="6.02185">
        <ele>726.4</ele>
        <time>2015-07-19T05:55:38Z</time>
      </trkpt>
      <trkpt lat="45.12098" lon="6.02192">
        <ele>726.61</ele>
        <time>2015-07-19T05:55:39Z</time>
      </trkpt>
      <trkpt lat="45.12102" lon="6.02199">
        <ele>726.78</ele>
        <time>2015-07-19T05:55:40Z</time>
      </trkpt>
      <trkpt lat="45.12135" lon="6.02249">
        <ele>727.71</ele>
        <time>2015-07-19T05:55:48Z</time>
      </trkpt>
      <trkpt lat="45.1214" lon="6.02254">
        <ele>727.84</ele>
        <time>2015-07-19T05:55:49Z</time>
      </trkpt>
      <trkpt lat="45.12145" lon="6.02257">
        <ele>728.02</ele>
        <time>2015-07-19T05:55:50Z</time>
      </trkpt>
      <trkpt lat="45.12151" lon="6.02261">
        <ele>727.98</ele>
        <time>2015-07-19T05:55:51Z</time>
      </trkpt>
      <trkpt lat="45.12157" lon="6.02263">
        <ele>727.92</ele>
        <time>2015-07-19T05:55:52Z</time>
      </trkpt>
      <trkpt lat="45.12204" lon="6.02285">
        <ele>728.35</ele>
        <time>2015-07-19T05:56:00Z</time>
      </trkpt>
      <trkpt lat="45.12209" lon="6.0229">
        <ele>728.36</ele>
        <time>2015-07-19T05:56:01Z</time>
      </trkpt>
      <trkpt lat="45.12214" lon="6.02296">
        <ele>728.36</ele>
        <time>2015-07-19T05:56:02Z</time>
      </trkpt>
      <trkpt lat="45.12218" lon="6.02302">
        <ele>728.4</ele>
        <time>2015-07-19T05:56:03Z</time>
      </trkpt>
      <trkpt lat="45.12222" lon="6.0231">
        <ele>728.33</ele>
        <time>2015-07-19T05:56:04Z</time>
      </trkpt>
      <trkpt lat="45.12226" lon="6.02317">
        <ele>728.4</ele>
        <time>2015-07-19T05:56:05Z</time>
      </trkpt>
      <trkpt lat="45.12229" lon="6.02325">
        <ele>728.48</ele>
        <time>2015-07-19T05:56:06Z</time>
      </trkpt>
      <trkpt lat="45.12232" lon="6.02334">
        <ele>728.5</ele>
        <time>2015-07-19T05:56:07Z</time>
      </trkpt>
      <trkpt lat="45.12234" lon="6.02343">
        <ele>728.39</ele>
        <time>2015-07-19T05:56:08Z</time>
      </trkpt>
      <trkpt lat="45.12251" lon="6.02414">
        <ele>727.2</ele>
        <time>2015-07-19T05:56:16Z</time>
      </trkpt>
      <trkpt lat="45.12276" lon="6.02482">
        <ele>726.89</ele>
        <time>2015-07-19T05:56:24Z</time>
      </trkpt>
      <trkpt lat="45.12301" lon="6.02545">
        <ele>727.46</ele>
        <time>2015-07-19T05:56:32Z</time>
      </trkpt>
      <trkpt lat="45.12324" lon="6.02609">
        <ele>727.45</ele>
        <time>2015-07-19T05:56:40Z</time>
      </trkpt>
      <trkpt lat="45.12351" lon="6.02673">
        <ele>727.93</ele>
        <time>2015-07-19T05:56:48Z</time>
      </trkpt>
      <trkpt lat="45.12381" lon="6.02737">
        <ele>728.14</ele>
        <time>2015-07-19T05:56:57Z</time>
      </trkpt>
      <trkpt lat="45.12383" lon="6.02744">
        <ele>727.97</ele>
        <time>2015-07-19T05:56:58Z</time>
      </trkpt>
      <trkpt lat="45.12408" lon="6.02812">
        <ele>728.16</ele>
        <time>2015-07-19T05:57:07Z</time>
      </trkpt>
      <trkpt lat="45.12432" lon="6.02872">
        <ele>728.16</ele>
        <time>2015-07-19T05:57:15Z</time>
      </trkpt>
      <trkpt lat="45.12455" lon="6.02932">
        <ele>728.57</ele>
        <time>2015-07-19T05:57:23Z</time>
      </trkpt>
      <trkpt lat="45.12467" lon="6.02957">
        <ele>728.73</ele>
        <time>2015-07-19T05:57:26Z</time>
      </trkpt>
      <trkpt lat="45.1247" lon="6.02964">
        <ele>728.72</ele>
        <time>2015-07-19T05:57:27Z</time>
      </trkpt>
      <trkpt lat="45.12496" lon="6.03027">
        <ele>729.1</ele>
        <time>2015-07-19T05:57:35Z</time>
      </trkpt>
      <trkpt lat="45.1252" lon="6.03092">
        <ele>729.41</ele>
        <time>2015-07-19T05:57:43Z</time>
      </trkpt>
      <trkpt lat="45.12537" lon="6.03136">
        <ele>729.66</ele>
        <time>2015-07-19T05:57:49Z</time>
      </trkpt>
      <trkpt lat="45.12565" lon="6.03203">
        <ele>730.5</ele>
        <time>2015-07-19T05:57:58Z</time>
      </trkpt>
      <trkpt lat="45.12588" lon="6.0327">
        <ele>730.74</ele>
        <time>2015-07-19T05:58:07Z</time>
      </trkpt>
      <trkpt lat="45.12618" lon="6.0334">
        <ele>730.97</ele>
        <time>2015-07-19T05:58:16Z</time>
      </trkpt>
      <trkpt lat="45.12647" lon="6.03408">
        <ele>731.08</ele>
        <time>2015-07-19T05:58:25Z</time>
      </trkpt>
      <trkpt lat="45.1267" lon="6.03468">
        <ele>731.44</ele>
        <time>2015-07-19T05:58:33Z</time>
      </trkpt>
      <trkpt lat="45.12698" lon="6.03539">
        <ele>731.79</ele>
        <time>2015-07-19T05:58:42Z</time>
      </trkpt>
      <trkpt lat="45.12724" lon="6.03611">
        <ele>732.54</ele>
        <time>2015-07-19T05:58:51Z</time>
      </trkpt>
      <trkpt lat="45.12747" lon="6.03678">
        <ele>732.88</ele>
        <time>2015-07-19T05:59:00Z</time>
      </trkpt>
      <trkpt lat="45.12771" lon="6.03732">
        <ele>733.68</ele>
        <time>2015-07-19T05:59:07Z</time>
      </trkpt>
      <trkpt lat="45.12774" lon="6.03741">
        <ele>733.5</ele>
        <time>2015-07-19T05:59:08Z</time>
      </trkpt>
      <trkpt lat="45.12777" lon="6.0375">
        <ele>733.25</ele>
        <time>2015-07-19T05:59:09Z</time>
      </trkpt>
      <trkpt lat="45.12777" lon="6.03758">
        <ele>733.18</ele>
        <time>2015-07-19T05:59:10Z</time>
      </trkpt>
      <trkpt lat="45.12777" lon="6.03766">
        <ele>733.26</ele>
        <time>2015-07-19T05:59:11Z</time>
      </trkpt>
      <trkpt lat="45.12776" lon="6.03775">
        <ele>733.32</ele>
        <time>2015-07-19T05:59:12Z</time>
      </trkpt>
      <trkpt lat="45.12775" lon="6.03783">
        <ele>733.42</ele>
        <time>2015-07-19T05:59:13Z</time>
      </trkpt>
      <trkpt lat="45.12774" lon="6.03791">
        <ele>733.7</ele>
        <time>2015-07-19T05:59:14Z</time>
      </trkpt>
      <trkpt lat="45.12775" lon="6.038">
        <ele>734.03</ele>
        <time>2015-07-19T05:59:15Z</time>
      </trkpt>
      <trkpt lat="45.12776" lon="6.03809">
        <ele>734.31</ele>
        <time>2015-07-19T05:59:16Z</time>
      </trkpt>
      <trkpt lat="45.12778" lon="6.03817">
        <ele>734.47</ele>
        <time>2015-07-19T05:59:17Z</time>
      </trkpt>
      <trkpt lat="45.1278" lon="6.03824">
        <ele>734.63</ele>
        <time>2015-07-19T05:59:18Z</time>
      </trkpt>
      <trkpt lat="45.12783" lon="6.03831">
        <ele>734.68</ele>
        <time>2015-07-19T05:59:19Z</time>
      </trkpt>
      <trkpt lat="45.1281" lon="6.03899">
        <ele>734.29</ele>
        <time>2015-07-19T05:59:28Z</time>
      </trkpt>
      <trkpt lat="45.12836" lon="6.0396">
        <ele>735.16</ele>
        <time>2015-07-19T05:59:37Z</time>
      </trkpt>
      <trkpt lat="45.12865" lon="6.04014">
        <ele>736.77</ele>
        <time>2015-07-19T05:59:46Z</time>
      </trkpt>
      <trkpt lat="45.12895" lon="6.0407">
        <ele>738.12</ele>
        <time>2015-07-19T05:59:56Z</time>
      </trkpt>
      <trkpt lat="45.12909" lon="6.04106">
        <ele>738.52</ele>
        <time>2015-07-19T06:00:01Z</time>
      </trkpt>
      <trkpt lat="45.12911" lon="6.04115">
        <ele>738.47</ele>
        <time>2015-07-19T06:00:02Z</time>
      </trkpt>
      <trkpt lat="45.12913" lon="6.04123">
        <ele>738.5</ele>
        <time>2015-07-19T06:00:03Z</time>
      </trkpt>
      <trkpt lat="45.12914" lon="6.04131">
        <ele>738.61</ele>
        <time>2015-07-19T06:00:04Z</time>
      </trkpt>
      <trkpt lat="45.12914" lon="6.0414">
        <ele>738.68</ele>
        <time>2015-07-19T06:00:05Z</time>
      </trkpt>
      <trkpt lat="45.12913" lon="6.04148">
        <ele>738.74</ele>
        <time>2015-07-19T06:00:06Z</time>
      </trkpt>
      <trkpt lat="45.12912" lon="6.04156">
        <ele>738.9</ele>
        <time>2015-07-19T06:00:07Z</time>
      </trkpt>
      <trkpt lat="45.12909" lon="6.04164">
        <ele>739.28</ele>
        <time>2015-07-19T06:00:08Z</time>
      </trkpt>
      <trkpt lat="45.12906" lon="6.04171">
        <ele>739.79</ele>
        <time>2015-07-19T06:00:09Z</time>
      </trkpt>
      <trkpt lat="45.12903" lon="6.04178">
        <ele>739.93</ele>
        <time>2015-07-19T06:00:10Z</time>
      </trkpt>
      <trkpt lat="45.129" lon="6.04184">
        <ele>739.87</ele>
        <time>2015-07-19T06:00:11Z</time>
      </trkpt>
      <trkpt lat="45.12883" lon="6.04215">
        <ele>740.66</ele>
        <time>2015-07-19T06:00:16Z</time>
      </trkpt>
      <trkpt lat="45.12853" lon="6.04278">
        <ele>743.58</ele>
        <time>2015-07-19T06:00:29Z</time>
      </trkpt>
      <trkpt lat="45.12833" lon="6.04332">
        <ele>746.61</ele>
        <time>2015-07-19T06:00:41Z</time>
      </trkpt>
      <trkpt lat="45.12803" lon="6.04374">
        <ele>749.81</ele>
        <time>2015-07-19T06:00:56Z</time>
      </trkpt>
      <trkpt lat="45.12788" lon="6.04398">
        <ele>751.72</ele>
        <time>2015-07-19T06:01:04Z</time>
      </trkpt>
      <trkpt lat="45.12789" lon="6.04403">
        <ele>751.91</ele>
        <time>2015-07-19T06:01:05Z</time>
      </trkpt>
      <trkpt lat="45.1279" lon="6.04407">
        <ele>752.02</ele>
        <time>2015-07-19T06:01:06Z</time>
      </trkpt>
      <trkpt lat="45.12793" lon="6.04411">
        <ele>752.17</ele>
        <time>2015-07-19T06:01:07Z</time>
      </trkpt>
      <trkpt lat="45.12797" lon="6.04415">
        <ele>752.34</ele>
        <time>2015-07-19T06:01:08Z</time>
      </trkpt>
      <trkpt lat="45.12801" lon="6.04417">
        <ele>752.41</ele>
        <time>2015-07-19T06:01:09Z</time>
      </trkpt>
      <trkpt lat="45.12805" lon="6.04418">
        <ele>752.42</ele>
        <time>2015-07-19T06:01:10Z</time>
      </trkpt>
      <trkpt lat="45.12809" lon="6.04418">
        <ele>752.43</ele>
        <time>2015-07-19T06:01:11Z</time>
      </trkpt>
      <trkpt lat="45.12813" lon="6.04416">
        <ele>752.47</ele>
        <time>2015-07-19T06:01:12Z</time>
      </trkpt>
      <trkpt lat="45.12817" lon="6.04413">
        <ele>752.52</ele>
        <time>2015-07-19T06:01:13Z</time>
      </trkpt>
      <trkpt lat="45.1282" lon="6.04409">
        <ele>752.66</ele>
        <time>2015-07-19T06:01:14Z</time>
      </trkpt>
      <trkpt lat="45.12824" lon="6.04406">
        <ele>752.83</ele>
        <time>2015-07-19T06:01:15Z</time>
      </trkpt>
      <trkpt lat="45.12863" lon="6.04357">
        <ele>755.98</ele>
        <time>2015-07-19T06:01:30Z</time>
      </trkpt>
      <trkpt lat="45.12891" lon="6.04323">
        <ele>759.31</ele>
        <time>2015-07-19T06:01:42Z</time>
      </trkpt>
      <trkpt lat="45.12923" lon="6.04283">
        <ele>762.46</ele>
        <time>2015-07-19T06:01:56Z</time>
      </trkpt>
      <trkpt lat="45.1295" lon="6.0425">
        <ele>765.48</ele>
        <time>2015-07-19T06:02:07Z</time>
      </trkpt>
      <trkpt lat="45.12975" lon="6.04214">
        <ele>768.49</ele>
        <time>2015-07-19T06:02:19Z</time>
      </trkpt>
      <trkpt lat="45.13005" lon="6.04177">
        <ele>771.49</ele>
        <time>2015-07-19T06:02:31Z</time>
      </trkpt>
      <trkpt lat="45.13034" lon="6.04137">
        <ele>774.57</ele>
        <time>2015-07-19T06:02:44Z</time>
      </trkpt>
      <trkpt lat="45.13051" lon="6.0409">
        <ele>777.32</ele>
        <time>2015-07-19T06:02:55Z</time>
      </trkpt>
      <trkpt lat="45.13054" lon="6.04088">
        <ele>777.55</ele>
        <time>2015-07-19T06:02:56Z</time>
      </trkpt>
      <trkpt lat="45.13057" lon="6.04086">
        <ele>777.82</ele>
        <time>2015-07-19T06:02:57Z</time>
      </trkpt>
      <trkpt lat="45.13061" lon="6.04086">
        <ele>778.09</ele>
        <time>2015-07-19T06:02:58Z</time>
      </trkpt>
      <trkpt lat="45.13065" lon="6.04088">
        <ele>778.4</ele>
        <time>2015-07-19T06:02:59Z</time>
      </trkpt>
      <trkpt lat="45.13068" lon="6.04091">
        <ele>778.76</ele>
        <time>2015-07-19T06:03:00Z</time>
      </trkpt>
      <trkpt lat="45.1307" lon="6.04097">
        <ele>779.07</ele>
        <time>2015-07-19T06:03:01Z</time>
      </trkpt>
      <trkpt lat="45.1307" lon="6.04103">
        <ele>779.24</ele>
        <time>2015-07-19T06:03:02Z</time>
      </trkpt>
      <trkpt lat="45.13068" lon="6.0411">
        <ele>779.29</ele>
        <time>2015-07-19T06:03:03Z</time>
      </trkpt>
      <trkpt lat="45.13065" lon="6.04116">
        <ele>779.35</ele>
        <time>2015-07-19T06:03:04Z</time>
      </trkpt>
      <trkpt lat="45.13061" lon="6.04121">
        <ele>779.5</ele>
        <time>2015-07-19T06:03:05Z</time>
      </trkpt>
      <trkpt lat="45.13028" lon="6.04175">
        <ele>780.12</ele>
        <time>2015-07-19T06:03:14Z</time>
      </trkpt>
      <trkpt lat="45.12994" lon="6.04231">
        <ele>780.37</ele>
        <time>2015-07-19T06:03:22Z</time>
      </trkpt>
      <trkpt lat="45.12961" lon="6.04286">
        <ele>780.49</ele>
        <time>2015-07-19T06:03:30Z</time>
      </trkpt>
      <trkpt lat="45.12927" lon="6.04342">
        <ele>780.6</ele>
        <time>2015-07-19T06:03:38Z</time>
      </trkpt>
      <trkpt lat="45.12893" lon="6.04397">
        <ele>780.25</ele>
        <time>2015-07-19T06:03:46Z</time>
      </trkpt>
      <trkpt lat="45.12858" lon="6.04452">
        <ele>780.28</ele>
        <time>2015-07-19T06:03:54Z</time>
      </trkpt>
      <trkpt lat="45.12826" lon="6.04504">
        <ele>780.73</ele>
        <time>2015-07-19T06:04:01Z</time>
      </trkpt>
      <trkpt lat="45.12807" lon="6.04534">
        <ele>780.63</ele>
        <time>2015-07-19T06:04:06Z</time>
      </trkpt>
      <trkpt lat="45.12804" lon="6.04537">
        <ele>780.22</ele>
        <time>2015-07-19T06:04:07Z</time>
      </trkpt>
      <trkpt lat="45.12799" lon="6.04545">
        <ele>779.87</ele>
        <time>2015-07-19T06:04:10Z</time>
      </trkpt>
      <trkpt lat="45.12798" lon="6.04549">
        <ele>779.98</ele>
        <time>2015-07-19T06:04:11Z</time>
      </trkpt>
      <trkpt lat="45.12801" lon="6.04554">
        <ele>780.16</ele>
        <time>2015-07-19T06:04:12Z</time>
      </trkpt>
      <trkpt lat="45.12803" lon="6.04559">
        <ele>780.3</ele>
        <time>2015-07-19T06:04:13Z</time>
      </trkpt>
      <trkpt lat="45.12806" lon="6.04564">
        <ele>780.43</ele>
        <time>2015-07-19T06:04:14Z</time>
      </trkpt>
      <trkpt lat="45.12845" lon="6.04619">
        <ele>781.07</ele>
        <time>2015-07-19T06:04:23Z</time>
      </trkpt>
      <trkpt lat="45.12879" lon="6.04672">
        <ele>781.11</ele>
        <time>2015-07-19T06:04:31Z</time>
      </trkpt>
      <trkpt lat="45.12912" lon="6.04726">
        <ele>781.24</ele>
        <time>2015-07-19T06:04:39Z</time>
      </trkpt>
      <trkpt lat="45.12939" lon="6.04772">
        <ele>781.38</ele>
        <time>2015-07-19T06:04:46Z</time>
      </trkpt>
      <trkpt lat="45.12944" lon="6.04777">
        <ele>781.45</ele>
        <time>2015-07-19T06:04:47Z</time>
      </trkpt>
      <trkpt lat="45.12948" lon="6.04781">
        <ele>781.55</ele>
        <time>2015-07-19T06:04:48Z</time>
      </trkpt>
      <trkpt lat="45.12953" lon="6.04784">
        <ele>781.59</ele>
        <time>2015-07-19T06:04:49Z</time>
      </trkpt>
      <trkpt lat="45.12958" lon="6.04787">
        <ele>781.64</ele>
        <time>2015-07-19T06:04:50Z</time>
      </trkpt>
      <trkpt lat="45.12965" lon="6.04789">
        <ele>781.71</ele>
        <time>2015-07-19T06:04:51Z</time>
      </trkpt>
      <trkpt lat="45.12971" lon="6.04791">
        <ele>781.95</ele>
        <time>2015-07-19T06:04:52Z</time>
      </trkpt>
      <trkpt lat="45.13019" lon="6.04802">
        <ele>782.75</ele>
        <time>2015-07-19T06:05:00Z</time>
      </trkpt>
      <trkpt lat="45.13069" lon="6.04822">
        <ele>782.7</ele>
        <time>2015-07-19T06:05:08Z</time>
      </trkpt>
      <trkpt lat="45.1312" lon="6.04841">
        <ele>782.9</ele>
        <time>2015-07-19T06:05:16Z</time>
      </trkpt>
      <trkpt lat="45.13171" lon="6.04856">
        <ele>783.13</ele>
        <time>2015-07-19T06:05:24Z</time>
      </trkpt>
      <trkpt lat="45.13219" lon="6.04869">
        <ele>783.42</ele>
        <time>2015-07-19T06:05:32Z</time>
      </trkpt>
      <trkpt lat="45.13268" lon="6.04882">
        <ele>783.7</ele>
        <time>2015-07-19T06:05:40Z</time>
      </trkpt>
      <trkpt lat="45.13318" lon="6.04894">
        <ele>784.06</ele>
        <time>2015-07-19T06:05:48Z</time>
      </trkpt>
      <trkpt lat="45.13367" lon="6.04907">
        <ele>784.3</ele>
        <time>2015-07-19T06:05:56Z</time>
      </trkpt>
      <trkpt lat="45.13418" lon="6.04918">
        <ele>784.69</ele>
        <time>2015-07-19T06:06:04Z</time>
      </trkpt>
      <trkpt lat="45.13469" lon="6.04928">
        <ele>785.15</ele>
        <time>2015-07-19T06:06:12Z</time>
      </trkpt>
      <trkpt lat="45.13517" lon="6.04939">
        <ele>785.43</ele>
        <time>2015-07-19T06:06:20Z</time>
      </trkpt>
      <trkpt lat="45.13566" lon="6.0495">
        <ele>785.44</ele>
        <time>2015-07-19T06:06:28Z</time>
      </trkpt>
      <trkpt lat="45.1361" lon="6.04956">
        <ele>785.57</ele>
        <time>2015-07-19T06:06:35Z</time>
      </trkpt>
      <trkpt lat="45.13616" lon="6.04955">
        <ele>785.54</ele>
        <time>2015-07-19T06:06:36Z</time>
      </trkpt>
      <trkpt lat="45.13629" lon="6.04952">
        <ele>785.86</ele>
        <time>2015-07-19T06:06:38Z</time>
      </trkpt>
      <trkpt lat="45.13677" lon="6.04922">
        <ele>786.86</ele>
        <time>2015-07-19T06:06:46Z</time>
      </trkpt>
      <trkpt lat="45.13722" lon="6.04889">
        <ele>786.68</ele>
        <time>2015-07-19T06:06:54Z</time>
      </trkpt>
      <trkpt lat="45.13773" lon="6.04859">
        <ele>786.07</ele>
        <time>2015-07-19T06:07:02Z</time>
      </trkpt>
      <trkpt lat="45.13795" lon="6.04853">
        <ele>786.01</ele>
        <time>2015-07-19T06:07:05Z</time>
      </trkpt>
      <trkpt lat="45.13803" lon="6.04853">
        <ele>785.55</ele>
        <time>2015-07-19T06:07:06Z</time>
      </trkpt>
      <trkpt lat="45.13811" lon="6.04853">
        <ele>785.18</ele>
        <time>2015-07-19T06:07:07Z</time>
      </trkpt>
      <trkpt lat="45.13852" lon="6.04865">
        <ele>783.82</ele>
        <time>2015-07-19T06:07:12Z</time>
      </trkpt>
      <trkpt lat="45.13895" lon="6.04892">
        <ele>782.71</ele>
        <time>2015-07-19T06:07:18Z</time>
      </trkpt>
      <trkpt lat="45.13945" lon="6.0491">
        <ele>781.8</ele>
        <time>2015-07-19T06:07:25Z</time>
      </trkpt>
      <trkpt lat="45.13996" lon="6.04909">
        <ele>781.84</ele>
        <time>2015-07-19T06:07:32Z</time>
      </trkpt>
      <trkpt lat="45.14046" lon="6.04911">
        <ele>781.09</ele>
        <time>2015-07-19T06:07:39Z</time>
      </trkpt>
      <trkpt lat="45.14101" lon="6.04923">
        <ele>780.51</ele>
        <time>2015-07-19T06:07:47Z</time>
      </trkpt>
      <trkpt lat="45.14152" lon="6.04946">
        <ele>780.2</ele>
        <time>2015-07-19T06:07:55Z</time>
      </trkpt>
      <trkpt lat="45.14199" lon="6.04972">
        <ele>780.29</ele>
        <time>2015-07-19T06:08:03Z</time>
      </trkpt>
      <trkpt lat="45.14252" lon="6.05002">
        <ele>780.34</ele>
        <time>2015-07-19T06:08:11Z</time>
      </trkpt>
      <trkpt lat="45.14298" lon="6.05033">
        <ele>780.78</ele>
        <time>2015-07-19T06:08:19Z</time>
      </trkpt>
      <trkpt lat="45.14342" lon="6.05067">
        <ele>781.79</ele>
        <time>2015-07-19T06:08:28Z</time>
      </trkpt>
      <trkpt lat="45.14379" lon="6.05112">
        <ele>784.19</ele>
        <time>2015-07-19T06:08:40Z</time>
      </trkpt>
      <trkpt lat="45.14423" lon="6.05147">
        <ele>787.36</ele>
        <time>2015-07-19T06:08:54Z</time>
      </trkpt>
      <trkpt lat="45.14451" lon="6.05196">
        <ele>790.39</ele>
        <time>2015-07-19T06:09:08Z</time>
      </trkpt>
      <trkpt lat="45.14439" lon="6.05259">
        <ele>793.4</ele>
        <time>2015-07-19T06:09:23Z</time>
      </trkpt>
      <trkpt lat="45.1444" lon="6.05332">
        <ele>796.4</ele>
        <time>2015-07-19T06:09:38Z</time>
      </trkpt>
      <trkpt lat="45.1445" lon="6.05399">
        <ele>799.25</ele>
        <time>2015-07-19T06:09:54Z</time>
      </trkpt>
      <trkpt lat="45.14479" lon="6.05442">
        <ele>802.37</ele>
        <time>2015-07-19T06:10:08Z</time>
      </trkpt>
      <trkpt lat="45.14534" lon="6.05446">
        <ele>805.06</ele>
        <time>2015-07-19T06:10:23Z</time>
      </trkpt>
      <trkpt lat="45.14565" lon="6.05405">
        <ele>808.07</ele>
        <time>2015-07-19T06:10:38Z</time>
      </trkpt>
      <trkpt lat="45.1458" lon="6.05345">
        <ele>811.07</ele>
        <time>2015-07-19T06:10:52Z</time>
      </trkpt>
      <trkpt lat="45.14583" lon="6.05274">
        <ele>814.11</ele>
        <time>2015-07-19T06:11:08Z</time>
      </trkpt>
      <trkpt lat="45.14593" lon="6.052">
        <ele>816.63</ele>
        <time>2015-07-19T06:11:22Z</time>
      </trkpt>
      <trkpt lat="45.14601" lon="6.05178">
        <ele>817.18</ele>
        <time>2015-07-19T06:11:26Z</time>
      </trkpt>
      <trkpt lat="45.14605" lon="6.05173">
        <ele>817.37</ele>
        <time>2015-07-19T06:11:27Z</time>
      </trkpt>
      <trkpt lat="45.14643" lon="6.05125">
        <ele>818.51</ele>
        <time>2015-07-19T06:11:38Z</time>
      </trkpt>
      <trkpt lat="45.14687" lon="6.05089">
        <ele>818.44</ele>
        <time>2015-07-19T06:11:47Z</time>
      </trkpt>
      <trkpt lat="45.14694" lon="6.05087">
        <ele>818.41</ele>
        <time>2015-07-19T06:11:48Z</time>
      </trkpt>
      <trkpt lat="45.14701" lon="6.05087">
        <ele>818.28</ele>
        <time>2015-07-19T06:11:49Z</time>
      </trkpt>
      <trkpt lat="45.14715" lon="6.05085">
        <ele>818.06</ele>
        <time>2015-07-19T06:11:51Z</time>
      </trkpt>
      <trkpt lat="45.14722" lon="6.05082">
        <ele>817.94</ele>
        <time>2015-07-19T06:11:52Z</time>
      </trkpt>
      <trkpt lat="45.14729" lon="6.05078">
        <ele>817.8</ele>
        <time>2015-07-19T06:11:53Z</time>
      </trkpt>
      <trkpt lat="45.14735" lon="6.05072">
        <ele>817.57</ele>
        <time>2015-07-19T06:11:54Z</time>
      </trkpt>
      <trkpt lat="45.14742" lon="6.05066">
        <ele>817.28</ele>
        <time>2015-07-19T06:11:55Z</time>
      </trkpt>
      <trkpt lat="45.14749" lon="6.05058">
        <ele>816.89</ele>
        <time>2015-07-19T06:11:56Z</time>
      </trkpt>
      <trkpt lat="45.14756" lon="6.0505">
        <ele>816.51</ele>
        <time>2015-07-19T06:11:57Z</time>
      </trkpt>
      <trkpt lat="45.14763" lon="6.05042">
        <ele>816.14</ele>
        <time>2015-07-19T06:11:58Z</time>
      </trkpt>
      <trkpt lat="45.14798" lon="6.04992">
        <ele>814.02</ele>
        <time>2015-07-19T06:12:03Z</time>
      </trkpt>
      <trkpt lat="45.14803" lon="6.04978">
        <ele>813.19</ele>
        <time>2015-07-19T06:12:04Z</time>
      </trkpt>
      <trkpt lat="45.14807" lon="6.04963">
        <ele>812.6</ele>
        <time>2015-07-19T06:12:05Z</time>
      </trkpt>
      <trkpt lat="45.14811" lon="6.04947">
        <ele>812.07</ele>
        <time>2015-07-19T06:12:06Z</time>
      </trkpt>
      <trkpt lat="45.14813" lon="6.04931">
        <ele>811.43</ele>
        <time>2015-07-19T06:12:07Z</time>
      </trkpt>
      <trkpt lat="45.14824" lon="6.04885">
        <ele>808.26</ele>
        <time>2015-07-19T06:12:10Z</time>
      </trkpt>
      <trkpt lat="45.14836" lon="6.04861">
        <ele>806.77</ele>
        <time>2015-07-19T06:12:12Z</time>
      </trkpt>
      <trkpt lat="45.14843" lon="6.04852">
        <ele>806.21</ele>
        <time>2015-07-19T06:12:13Z</time>
      </trkpt>
      <trkpt lat="45.14851" lon="6.04844">
        <ele>805.64</ele>
        <time>2015-07-19T06:12:14Z</time>
      </trkpt>
      <trkpt lat="45.14862" lon="6.04838">
        <ele>805.21</ele>
        <time>2015-07-19T06:12:15Z</time>
      </trkpt>
      <trkpt lat="45.14874" lon="6.04833">
        <ele>804.77</ele>
        <time>2015-07-19T06:12:16Z</time>
      </trkpt>
      <trkpt lat="45.14886" lon="6.0483">
        <ele>804.34</ele>
        <time>2015-07-19T06:12:17Z</time>
      </trkpt>
      <trkpt lat="45.14898" lon="6.04826">
        <ele>803.79</ele>
        <time>2015-07-19T06:12:18Z</time>
      </trkpt>
      <trkpt lat="45.14911" lon="6.04825">
        <ele>803.63</ele>
        <time>2015-07-19T06:12:19Z</time>
      </trkpt>
      <trkpt lat="45.14922" lon="6.04825">
        <ele>803.49</ele>
        <time>2015-07-19T06:12:20Z</time>
      </trkpt>
      <trkpt lat="45.14934" lon="6.04826">
        <ele>803.35</ele>
        <time>2015-07-19T06:12:21Z</time>
      </trkpt>
      <trkpt lat="45.14945" lon="6.04827">
        <ele>803.15</ele>
        <time>2015-07-19T06:12:22Z</time>
      </trkpt>
      <trkpt lat="45.14998" lon="6.04811">
        <ele>802.13</ele>
        <time>2015-07-19T06:12:27Z</time>
      </trkpt>
      <trkpt lat="45.15048" lon="6.04783">
        <ele>801.07</ele>
        <time>2015-07-19T06:12:33Z</time>
      </trkpt>
      <trkpt lat="45.15097" lon="6.04755">
        <ele>800.93</ele>
        <time>2015-07-19T06:12:39Z</time>
      </trkpt>
      <trkpt lat="45.15149" lon="6.04725">
        <ele>799.5</ele>
        <time>2015-07-19T06:12:46Z</time>
      </trkpt>
      <trkpt lat="45.15171" lon="6.04708">
        <ele>799.21</ele>
        <time>2015-07-19T06:12:49Z</time>
      </trkpt>
      <trkpt lat="45.15216" lon="6.0466">
        <ele>798.28</ele>
        <time>2015-07-19T06:12:56Z</time>
      </trkpt>
      <trkpt lat="45.15251" lon="6.04637">
        <ele>797.7</ele>
        <time>2015-07-19T06:13:02Z</time>
      </trkpt>
      <trkpt lat="45.15292" lon="6.04619">
        <ele>798.15</ele>
        <time>2015-07-19T06:13:09Z</time>
      </trkpt>
      <trkpt lat="45.15295" lon="6.04606">
        <ele>798.34</ele>
        <time>2015-07-19T06:13:11Z</time>
      </trkpt>
      <trkpt lat="45.15318" lon="6.0455">
        <ele>799.89</ele>
        <time>2015-07-19T06:13:23Z</time>
      </trkpt>
      <trkpt lat="45.15333" lon="6.04535">
        <ele>800.93</ele>
        <time>2015-07-19T06:13:31Z</time>
      </trkpt>
      <trkpt lat="45.15338" lon="6.04535">
        <ele>801.08</ele>
        <time>2015-07-19T06:13:32Z</time>
      </trkpt>
      <trkpt lat="45.15342" lon="6.04535">
        <ele>801.28</ele>
        <time>2015-07-19T06:13:33Z</time>
      </trkpt>
      <trkpt lat="45.15381" lon="6.0453">
        <ele>804.44</ele>
        <time>2015-07-19T06:13:46Z</time>
      </trkpt>
      <trkpt lat="45.154" lon="6.04525">
        <ele>807.47</ele>
        <time>2015-07-19T06:13:58Z</time>
      </trkpt>
      <trkpt lat="45.15407" lon="6.0452">
        <ele>809.66</ele>
        <time>2015-07-19T06:14:07Z</time>
      </trkpt>
      <trkpt lat="45.15406" lon="6.04518">
        <ele>809.93</ele>
        <time>2015-07-19T06:14:08Z</time>
      </trkpt>
      <trkpt lat="45.15406" lon="6.04518">
        <ele>810.17</ele>
        <time>2015-07-19T06:14:09Z</time>
      </trkpt>
      <trkpt lat="45.15405" lon="6.04516">
        <ele>810.42</ele>
        <time>2015-07-19T06:14:10Z</time>
      </trkpt>
      <trkpt lat="45.15405" lon="6.04515">
        <ele>810.67</ele>
        <time>2015-07-19T06:14:11Z</time>
      </trkpt>
      <trkpt lat="45.15405" lon="6.04514">
        <ele>810.95</ele>
        <time>2015-07-19T06:14:12Z</time>
      </trkpt>
      <trkpt lat="45.15408" lon="6.04513">
        <ele>811.2</ele>
        <time>2015-07-19T06:14:13Z</time>
      </trkpt>
      <trkpt lat="45.15409" lon="6.04512">
        <ele>811.43</ele>
        <time>2015-07-19T06:14:14Z</time>
      </trkpt>
      <trkpt lat="45.15411" lon="6.04511">
        <ele>811.61</ele>
        <time>2015-07-19T06:14:15Z</time>
      </trkpt>
      <trkpt lat="45.15412" lon="6.0451">
        <ele>811.96</ele>
        <time>2015-07-19T06:14:16Z</time>
      </trkpt>
      <trkpt lat="45.15415" lon="6.04509">
        <ele>812.25</ele>
        <time>2015-07-19T06:14:17Z</time>
      </trkpt>
      <trkpt lat="45.15418" lon="6.04508">
        <ele>812.47</ele>
        <time>2015-07-19T06:14:18Z</time>
      </trkpt>
      <trkpt lat="45.1542" lon="6.04506">
        <ele>812.68</ele>
        <time>2015-07-19T06:14:19Z</time>
      </trkpt>
      <trkpt lat="45.15423" lon="6.04504">
        <ele>812.91</ele>
        <time>2015-07-19T06:14:20Z</time>
      </trkpt>
      <trkpt lat="45.15477" lon="6.04497">
        <ele>815.96</ele>
        <time>2015-07-19T06:14:31Z</time>
      </trkpt>
      <trkpt lat="45.1549" lon="6.04489">
        <ele>819.16</ele>
        <time>2015-07-19T06:14:43Z</time>
      </trkpt>
      <trkpt lat="45.155" lon="6.04477">
        <ele>822.38</ele>
        <time>2015-07-19T06:14:55Z</time>
      </trkpt>
      <trkpt lat="45.15506" lon="6.04459">
        <ele>825.5</ele>
        <time>2015-07-19T06:15:01Z</time>
      </trkpt>
      <trkpt lat="45.15506" lon="6.04459">
        <ele>831.6</ele>
        <time>2015-07-19T06:15:31Z</time>
      </trkpt>
      <trkpt lat="45.15506" lon="6.04459">
        <ele>834.74</ele>
        <time>2015-07-19T06:15:44Z</time>
      </trkpt>
      <trkpt lat="45.15506" lon="6.04459">
        <ele>837.86</ele>
        <time>2015-07-19T06:15:57Z</time>
      </trkpt>
      <trkpt lat="45.15506" lon="6.04459">
        <ele>840.93</ele>
        <time>2015-07-19T06:16:10Z</time>
      </trkpt>
      <trkpt lat="45.15506" lon="6.04459">
        <ele>844.02</ele>
        <time>2015-07-19T06:16:23Z</time>
      </trkpt>
      <trkpt lat="45.15506" lon="6.04459">
        <ele>847.14</ele>
        <time>2015-07-19T06:16:36Z</time>
      </trkpt>
      <trkpt lat="45.15506" lon="6.04459">
        <ele>850.31</ele>
        <time>2015-07-19T06:16:49Z</time>
      </trkpt>
      <trkpt lat="45.15506" lon="6.04459">
        <ele>853.47</ele>
        <time>2015-07-19T06:17:00Z</time>
      </trkpt>
      <trkpt lat="45.15506" lon="6.04459">
        <ele>856.49</ele>
        <time>2015-07-19T06:17:15Z</time>
      </trkpt>
      <trkpt lat="45.15506" lon="6.04459">
        <ele>859.59</ele>
        <time>2015-07-19T06:17:29Z</time>
      </trkpt>
      <trkpt lat="45.15506" lon="6.04459">
        <ele>862.68</ele>
        <time>2015-07-19T06:17:42Z</time>
      </trkpt>
      <trkpt lat="45.15506" lon="6.04459">
        <ele>865.74</ele>
        <time>2015-07-19T06:17:54Z</time>
      </trkpt>
      <trkpt lat="45.15506" lon="6.04459">
        <ele>868.91</ele>
        <time>2015-07-19T06:18:07Z</time>
      </trkpt>
      <trkpt lat="45.15506" lon="6.04459">
        <ele>872.06</ele>
        <time>2015-07-19T06:18:21Z</time>
      </trkpt>
      <trkpt lat="45.15506" lon="6.04459">
        <ele>875.12</ele>
        <time>2015-07-19T06:18:36Z</time>
      </trkpt>
      <trkpt lat="45.15506" lon="6.04459">
        <ele>875.92</ele>
        <time>2015-07-19T06:18:42Z</time>
      </trkpt>
      <trkpt lat="45.15506" lon="6.04459">
        <ele>876.44</ele>
        <time>2015-07-19T06:18:46Z</time>
      </trkpt>
      <trkpt lat="45.15506" lon="6.04459">
        <ele>876.5</ele>
        <time>2015-07-19T06:18:47Z</time>
      </trkpt>
      <trkpt lat="45.15506" lon="6.04459">
        <ele>877.15</ele>
        <time>2015-07-19T06:18:51Z</time>
      </trkpt>
      <trkpt lat="45.15506" lon="6.04459">
        <ele>877.15</ele>
        <time>2015-07-19T06:18:52Z</time>
      </trkpt>
      <trkpt lat="45.15506" lon="6.04459">
        <ele>880.3</ele>
        <time>2015-07-19T06:19:10Z</time>
      </trkpt>
      <trkpt lat="45.15506" lon="6.04459">
        <ele>883.4</ele>
        <time>2015-07-19T06:19:26Z</time>
      </trkpt>
      <trkpt lat="45.15506" lon="6.04459">
        <ele>886.51</ele>
        <time>2015-07-19T06:19:42Z</time>
      </trkpt>
      <trkpt lat="45.15506" lon="6.04459">
        <ele>889.54</ele>
        <time>2015-07-19T06:19:58Z</time>
      </trkpt>
      <trkpt lat="45.15506" lon="6.04459">
        <ele>892.58</ele>
        <time>2015-07-19T06:20:19Z</time>
      </trkpt>
      <trkpt lat="45.15506" lon="6.04459">
        <ele>895.88</ele>
        <time>2015-07-19T06:20:34Z</time>
      </trkpt>
      <trkpt lat="45.15506" lon="6.04459">
        <ele>899.04</ele>
        <time>2015-07-19T06:20:50Z</time>
      </trkpt>
      <trkpt lat="45.15506" lon="6.04459">
        <ele>902.22</ele>
        <time>2015-07-19T06:21:06Z</time>
      </trkpt>
      <trkpt lat="45.15506" lon="6.04459">
        <ele>905.28</ele>
        <time>2015-07-19T06:21:20Z</time>
      </trkpt>
      <trkpt lat="45.15506" lon="6.04459">
        <ele>908.49</ele>
        <time>2015-07-19T06:21:35Z</time>
      </trkpt>
      <trkpt lat="45.15506" lon="6.04459">
        <ele>911.54</ele>
        <time>2015-07-19T06:21:48Z</time>
      </trkpt>
      <trkpt lat="45.15506" lon="6.04459">
        <ele>914.65</ele>
        <time>2015-07-19T06:22:01Z</time>
      </trkpt>
      <trkpt lat="45.15506" lon="6.04459">
        <ele>917.68</ele>
        <time>2015-07-19T06:22:15Z</time>
      </trkpt>
      <trkpt lat="45.15506" lon="6.04459">
        <ele>920.87</ele>
        <time>2015-07-19T06:22:30Z</time>
      </trkpt>
      <trkpt lat="45.15506" lon="6.04459">
        <ele>923.96</ele>
        <time>2015-07-19T06:22:44Z</time>
      </trkpt>
      <trkpt lat="45.15506" lon="6.04459">
        <ele>927.22</ele>
        <time>2015-07-19T06:22:57Z</time>
      </trkpt>
      <trkpt lat="45.15506" lon="6.04459">
        <ele>930.47</ele>
        <time>2015-07-19T06:23:11Z</time>
      </trkpt>
      <trkpt lat="45.15506" lon="6.04459">
        <ele>933.48</ele>
        <time>2015-07-19T06:23:24Z</time>
      </trkpt>
      <trkpt lat="45.16858" lon="6.03972">
        <ele>935.97</ele>
        <time>2015-07-19T06:23:48Z</time>
      </trkpt>
      <trkpt lat="45.16911" lon="6.03953">
        <ele>939.1</ele>
        <time>2015-07-19T06:24:04Z</time>
      </trkpt>
      <trkpt lat="45.16943" lon="6.03951">
        <ele>942.21</ele>
        <time>2015-07-19T06:24:16Z</time>
      </trkpt>
      <trkpt lat="45.16967" lon="6.03939">
        <ele>945.44</ele>
        <time>2015-07-19T06:24:30Z</time>
      </trkpt>
      <trkpt lat="45.16993" lon="6.03917">
        <ele>948.52</ele>
        <time>2015-07-19T06:24:42Z</time>
      </trkpt>
      <trkpt lat="45.17001" lon="6.03898">
        <ele>951.65</ele>
        <time>2015-07-19T06:24:54Z</time>
      </trkpt>
      <trkpt lat="45.17002" lon="6.03896">
        <ele>952.16</ele>
        <time>2015-07-19T06:24:56Z</time>
      </trkpt>
      <trkpt lat="45.17002" lon="6.03894">
        <ele>952.4</ele>
        <time>2015-07-19T06:24:57Z</time>
      </trkpt>
      <trkpt lat="45.17003" lon="6.03892">
        <ele>952.66</ele>
        <time>2015-07-19T06:24:58Z</time>
      </trkpt>
      <trkpt lat="45.17003" lon="6.03891">
        <ele>952.92</ele>
        <time>2015-07-19T06:24:59Z</time>
      </trkpt>
      <trkpt lat="45.17007" lon="6.0389">
        <ele>953.17</ele>
        <time>2015-07-19T06:25:00Z</time>
      </trkpt>
      <trkpt lat="45.1701" lon="6.03889">
        <ele>953.45</ele>
        <time>2015-07-19T06:25:01Z</time>
      </trkpt>
      <trkpt lat="45.17013" lon="6.03888">
        <ele>953.78</ele>
        <time>2015-07-19T06:25:02Z</time>
      </trkpt>
      <trkpt lat="45.17014" lon="6.03886">
        <ele>954.09</ele>
        <time>2015-07-19T06:25:03Z</time>
      </trkpt>
      <trkpt lat="45.17016" lon="6.03885">
        <ele>954.3</ele>
        <time>2015-07-19T06:25:04Z</time>
      </trkpt>
      <trkpt lat="45.17019" lon="6.03884">
        <ele>954.51</ele>
        <time>2015-07-19T06:25:05Z</time>
      </trkpt>
      <trkpt lat="45.17072" lon="6.03866">
        <ele>957.54</ele>
        <time>2015-07-19T06:25:17Z</time>
      </trkpt>
      <trkpt lat="45.17123" lon="6.03844">
        <ele>960.68</ele>
        <time>2015-07-19T06:25:35Z</time>
      </trkpt>
      <trkpt lat="45.17131" lon="6.03839">
        <ele>961.21</ele>
        <time>2015-07-19T06:25:38Z</time>
      </trkpt>
      <trkpt lat="45.17132" lon="6.03838">
        <ele>961.41</ele>
        <time>2015-07-19T06:25:39Z</time>
      </trkpt>
      <trkpt lat="45.17134" lon="6.03836">
        <ele>961.58</ele>
        <time>2015-07-19T06:25:40Z</time>
      </trkpt>
      <trkpt lat="45.17175" lon="6.03815">
        <ele>964.58</ele>
        <time>2015-07-19T06:25:54Z</time>
      </trkpt>
      <trkpt lat="45.17212" lon="6.03799">
        <ele>967.73</ele>
        <time>2015-07-19T06:26:07Z</time>
      </trkpt>
      <trkpt lat="45.17242" lon="6.03789">
        <ele>970.97</ele>
        <time>2015-07-19T06:26:20Z</time>
      </trkpt>
      <trkpt lat="45.17271" lon="6.03781">
        <ele>974.11</ele>
        <time>2015-07-19T06:26:34Z</time>
      </trkpt>
      <trkpt lat="45.17294" lon="6.03776">
        <ele>977.29</ele>
        <time>2015-07-19T06:26:46Z</time>
      </trkpt>
      <trkpt lat="45.17323" lon="6.03775">
        <ele>980.5</ele>
        <time>2015-07-19T06:26:59Z</time>
      </trkpt>
      <trkpt lat="45.17352" lon="6.03775">
        <ele>983.52</ele>
        <time>2015-07-19T06:27:12Z</time>
      </trkpt>
      <trkpt lat="45.17377" lon="6.03772">
        <ele>986.66</ele>
        <time>2015-07-19T06:27:24Z</time>
      </trkpt>
      <trkpt lat="45.17412" lon="6.03759">
        <ele>989.9</ele>
        <time>2015-07-19T06:27:36Z</time>
      </trkpt>
      <trkpt lat="45.17442" lon="6.03745">
        <ele>992.91</ele>
        <time>2015-07-19T06:27:49Z</time>
      </trkpt>
      <trkpt lat="45.17467" lon="6.03727">
        <ele>996.2</ele>
        <time>2015-07-19T06:28:01Z</time>
      </trkpt>
      <trkpt lat="45.17506" lon="6.03722">
        <ele>999.34</ele>
        <time>2015-07-19T06:28:15Z</time>
      </trkpt>
      <trkpt lat="45.17556" lon="6.03707">
        <ele>1001.82</ele>
        <time>2015-07-19T06:28:30Z</time>
      </trkpt>
      <trkpt lat="45.17586" lon="6.03699">
        <ele>1002.57</ele>
        <time>2015-07-19T06:28:38Z</time>
      </trkpt>
      <trkpt lat="45.1759" lon="6.037">
        <ele>1002.8</ele>
        <time>2015-07-19T06:28:39Z</time>
      </trkpt>
      <trkpt lat="45.17593" lon="6.03701">
        <ele>1003.08</ele>
        <time>2015-07-19T06:28:40Z</time>
      </trkpt>
      <trkpt lat="45.1764" lon="6.03697">
        <ele>1005.34</ele>
        <time>2015-07-19T06:28:54Z</time>
      </trkpt>
      <trkpt lat="45.17678" lon="6.03666">
        <ele>1005.98</ele>
        <time>2015-07-19T06:29:05Z</time>
      </trkpt>
      <trkpt lat="45.17683" lon="6.03661">
        <ele>1005.98</ele>
        <time>2015-07-19T06:29:06Z</time>
      </trkpt>
      <trkpt lat="45.17693" lon="6.03652">
        <ele>1006.04</ele>
        <time>2015-07-19T06:29:08Z</time>
      </trkpt>
      <trkpt lat="45.17698" lon="6.0365">
        <ele>1006.09</ele>
        <time>2015-07-19T06:29:09Z</time>
      </trkpt>
      <trkpt lat="45.17702" lon="6.03648">
        <ele>1006.14</ele>
        <time>2015-07-19T06:29:10Z</time>
      </trkpt>
      <trkpt lat="45.17707" lon="6.03647">
        <ele>1006.26</ele>
        <time>2015-07-19T06:29:11Z</time>
      </trkpt>
      <trkpt lat="45.17712" lon="6.03647">
        <ele>1006.36</ele>
        <time>2015-07-19T06:29:12Z</time>
      </trkpt>
      <trkpt lat="45.17717" lon="6.03647">
        <ele>1006.56</ele>
        <time>2015-07-19T06:29:13Z</time>
      </trkpt>
      <trkpt lat="45.17721" lon="6.03649">
        <ele>1006.8</ele>
        <time>2015-07-19T06:29:14Z</time>
      </trkpt>
      <trkpt lat="45.17724" lon="6.03651">
        <ele>1006.96</ele>
        <time>2015-07-19T06:29:15Z</time>
      </trkpt>
      <trkpt lat="45.17753" lon="6.03671">
        <ele>1010.2</ele>
        <time>2015-07-19T06:29:27Z</time>
      </trkpt>
      <trkpt lat="45.17777" lon="6.03685">
        <ele>1013.34</ele>
        <time>2015-07-19T06:29:39Z</time>
      </trkpt>
      <trkpt lat="45.17805" lon="6.03678">
        <ele>1016.54</ele>
        <time>2015-07-19T06:29:52Z</time>
      </trkpt>
      <trkpt lat="45.17837" lon="6.03664">
        <ele>1019.58</ele>
        <time>2015-07-19T06:30:05Z</time>
      </trkpt>
      <trkpt lat="45.17861" lon="6.03668">
        <ele>1022.69</ele>
        <time>2015-07-19T06:30:17Z</time>
      </trkpt>
      <trkpt lat="45.17885" lon="6.0367">
        <ele>1025.81</ele>
        <time>2015-07-19T06:30:29Z</time>
      </trkpt>
      <trkpt lat="45.17907" lon="6.03658">
        <ele>1028.98</ele>
        <time>2015-07-19T06:30:43Z</time>
      </trkpt>
      <trkpt lat="45.1793" lon="6.03645">
        <ele>1032.13</ele>
        <time>2015-07-19T06:30:57Z</time>
      </trkpt>
      <trkpt lat="45.17953" lon="6.03622">
        <ele>1035.18</ele>
        <time>2015-07-19T06:31:10Z</time>
      </trkpt>
      <trkpt lat="45.17964" lon="6.0361">
        <ele>1036.51</ele>
        <time>2015-07-19T06:31:16Z</time>
      </trkpt>
      <trkpt lat="45.17966" lon="6.03608">
        <ele>1036.76</ele>
        <time>2015-07-19T06:31:17Z</time>
      </trkpt>
      <trkpt lat="45.17968" lon="6.03606">
        <ele>1037.04</ele>
        <time>2015-07-19T06:31:18Z</time>
      </trkpt>
      <trkpt lat="45.1797" lon="6.03605">
        <ele>1037.29</ele>
        <time>2015-07-19T06:31:19Z</time>
      </trkpt>
      <trkpt lat="45.17973" lon="6.03603">
        <ele>1037.51</ele>
        <time>2015-07-19T06:31:20Z</time>
      </trkpt>
      <trkpt lat="45.17975" lon="6.03601">
        <ele>1037.71</ele>
        <time>2015-07-19T06:31:21Z</time>
      </trkpt>
      <trkpt lat="45.18004" lon="6.03586">
        <ele>1040.82</ele>
        <time>2015-07-19T06:31:33Z</time>
      </trkpt>
      <trkpt lat="45.18036" lon="6.03572">
        <ele>1044.02</ele>
        <time>2015-07-19T06:31:46Z</time>
      </trkpt>
      <trkpt lat="45.18062" lon="6.03562">
        <ele>1047.12</ele>
        <time>2015-07-19T06:31:59Z</time>
      </trkpt>
      <trkpt lat="45.18064" lon="6.03562">
        <ele>1047.46</ele>
        <time>2015-07-19T06:32:00Z</time>
      </trkpt>
      <trkpt lat="45.18066" lon="6.03561">
        <ele>1047.73</ele>
        <time>2015-07-19T06:32:01Z</time>
      </trkpt>
      <trkpt lat="45.18094" lon="6.03553">
        <ele>1050.93</ele>
        <time>2015-07-19T06:32:13Z</time>
      </trkpt>
      <trkpt lat="45.18128" lon="6.03541">
        <ele>1054.13</ele>
        <time>2015-07-19T06:32:25Z</time>
      </trkpt>
      <trkpt lat="45.18154" lon="6.03529">
        <ele>1057.28</ele>
        <time>2015-07-19T06:32:38Z</time>
      </trkpt>
      <trkpt lat="45.1817" lon="6.03522">
        <ele>1059.09</ele>
        <time>2015-07-19T06:32:45Z</time>
      </trkpt>
      <trkpt lat="45.18173" lon="6.03521">
        <ele>1059.24</ele>
        <time>2015-07-19T06:32:46Z</time>
      </trkpt>
      <trkpt lat="45.18176" lon="6.03521">
        <ele>1059.4</ele>
        <time>2015-07-19T06:32:47Z</time>
      </trkpt>
      <trkpt lat="45.18178" lon="6.03521">
        <ele>1059.62</ele>
        <time>2015-07-19T06:32:48Z</time>
      </trkpt>
      <trkpt lat="45.1818" lon="6.03521">
        <ele>1059.86</ele>
        <time>2015-07-19T06:32:49Z</time>
      </trkpt>
      <trkpt lat="45.1821" lon="6.03509">
        <ele>1062.98</ele>
        <time>2015-07-19T06:33:01Z</time>
      </trkpt>
      <trkpt lat="45.18244" lon="6.03504">
        <ele>1066.08</ele>
        <time>2015-07-19T06:33:13Z</time>
      </trkpt>
      <trkpt lat="45.1828" lon="6.0351">
        <ele>1069.16</ele>
        <time>2015-07-19T06:33:28Z</time>
      </trkpt>
      <trkpt lat="45.18315" lon="6.03511">
        <ele>1072.32</ele>
        <time>2015-07-19T06:33:42Z</time>
      </trkpt>
      <trkpt lat="45.18339" lon="6.03503">
        <ele>1075.35</ele>
        <time>2015-07-19T06:33:53Z</time>
      </trkpt>
      <trkpt lat="45.18356" lon="6.03487">
        <ele>1078.35</ele>
        <time>2015-07-19T06:34:05Z</time>
      </trkpt>
      <trkpt lat="45.18385" lon="6.03481">
        <ele>1081.5</ele>
        <time>2015-07-19T06:34:18Z</time>
      </trkpt>
      <trkpt lat="45.18417" lon="6.03475">
        <ele>1084.67</ele>
        <time>2015-07-19T06:34:32Z</time>
      </trkpt>
      <trkpt lat="45.18424" lon="6.03479">
        <ele>1085.75</ele>
        <time>2015-07-19T06:34:36Z</time>
      </trkpt>
      <trkpt lat="45.1845" lon="6.03467">
        <ele>1088.69</ele>
        <time>2015-07-19T06:34:48Z</time>
      </trkpt>
      <trkpt lat="45.18481" lon="6.03452">
        <ele>1091.7</ele>
        <time>2015-07-19T06:35:00Z</time>
      </trkpt>
      <trkpt lat="45.18509" lon="6.03447">
        <ele>1094.89</ele>
        <time>2015-07-19T06:35:12Z</time>
      </trkpt>
      <trkpt lat="45.1854" lon="6.03444">
        <ele>1098.16</ele>
        <time>2015-07-19T06:35:25Z</time>
      </trkpt>
      <trkpt lat="45.18566" lon="6.0344">
        <ele>1101.23</ele>
        <time>2015-07-19T06:35:38Z</time>
      </trkpt>
      <trkpt lat="45.18574" lon="6.03434">
        <ele>1102.76</ele>
        <time>2015-07-19T06:35:44Z</time>
      </trkpt>
      <trkpt lat="45.18575" lon="6.03432">
        <ele>1103.03</ele>
        <time>2015-07-19T06:35:45Z</time>
      </trkpt>
      <trkpt lat="45.18577" lon="6.03431">
        <ele>1103.28</ele>
        <time>2015-07-19T06:35:46Z</time>
      </trkpt>
      <trkpt lat="45.18578" lon="6.0343">
        <ele>1103.56</ele>
        <time>2015-07-19T06:35:47Z</time>
      </trkpt>
      <trkpt lat="45.1858" lon="6.03429">
        <ele>1103.79</ele>
        <time>2015-07-19T06:35:48Z</time>
      </trkpt>
      <trkpt lat="45.18582" lon="6.03428">
        <ele>1104.25</ele>
        <time>2015-07-19T06:35:50Z</time>
      </trkpt>
      <trkpt lat="45.18584" lon="6.03428">
        <ele>1104.53</ele>
        <time>2015-07-19T06:35:51Z</time>
      </trkpt>
      <trkpt lat="45.18611" lon="6.03415">
        <ele>1107.61</ele>
        <time>2015-07-19T06:36:03Z</time>
      </trkpt>
      <trkpt lat="45.18642" lon="6.03398">
        <ele>1110.73</ele>
        <time>2015-07-19T06:36:16Z</time>
      </trkpt>
      <trkpt lat="45.18669" lon="6.03384">
        <ele>1113.79</ele>
        <time>2015-07-19T06:36:27Z</time>
      </trkpt>
      <trkpt lat="45.18707" lon="6.03378">
        <ele>1116.79</ele>
        <time>2015-07-19T06:36:40Z</time>
      </trkpt>
      <trkpt lat="45.18744" lon="6.03406">
        <ele>1119.8</ele>
        <time>2015-07-19T06:36:55Z</time>
      </trkpt>
      <trkpt lat="45.18773" lon="6.03427">
        <ele>1122.83</ele>
        <time>2015-07-19T06:37:09Z</time>
      </trkpt>
      <trkpt lat="45.18795" lon="6.03448">
        <ele>1125.98</ele>
        <time>2015-07-19T06:37:22Z</time>
      </trkpt>
      <trkpt lat="45.18817" lon="6.03465">
        <ele>1129.04</ele>
        <time>2015-07-19T06:37:34Z</time>
      </trkpt>
      <trkpt lat="45.18841" lon="6.03489">
        <ele>1132.16</ele>
        <time>2015-07-19T06:37:47Z</time>
      </trkpt>
      <trkpt lat="45.18869" lon="6.03505">
        <ele>1135.33</ele>
        <time>2015-07-19T06:37:59Z</time>
      </trkpt>
      <trkpt lat="45.18902" lon="6.03515">
        <ele>1138.5</ele>
        <time>2015-07-19T06:38:13Z</time>
      </trkpt>
      <trkpt lat="45.18922" lon="6.03524">
        <ele>1141.08</ele>
        <time>2015-07-19T06:38:24Z</time>
      </trkpt>
      <trkpt lat="45.18924" lon="6.03526">
        <ele>1141.29</ele>
        <time>2015-07-19T06:38:25Z</time>
      </trkpt>
      <trkpt lat="45.18925" lon="6.03527">
        <ele>1141.57</ele>
        <time>2015-07-19T06:38:26Z</time>
      </trkpt>
      <trkpt lat="45.18927" lon="6.03528">
        <ele>1141.84</ele>
        <time>2015-07-19T06:38:27Z</time>
      </trkpt>
      <trkpt lat="45.18929" lon="6.03529">
        <ele>1142.09</ele>
        <time>2015-07-19T06:38:28Z</time>
      </trkpt>
      <trkpt lat="45.18933" lon="6.03529">
        <ele>1142.66</ele>
        <time>2015-07-19T06:38:30Z</time>
      </trkpt>
      <trkpt lat="45.18935" lon="6.0353">
        <ele>1142.87</ele>
        <time>2015-07-19T06:38:31Z</time>
      </trkpt>
      <trkpt lat="45.18965" lon="6.03543">
        <ele>1146.13</ele>
        <time>2015-07-19T06:38:44Z</time>
      </trkpt>
      <trkpt lat="45.18998" lon="6.03563">
        <ele>1149.38</ele>
        <time>2015-07-19T06:38:57Z</time>
      </trkpt>
      <trkpt lat="45.19027" lon="6.03576">
        <ele>1152.44</ele>
        <time>2015-07-19T06:39:11Z</time>
      </trkpt>
      <trkpt lat="45.19055" lon="6.03586">
        <ele>1155.57</ele>
        <time>2015-07-19T06:39:25Z</time>
      </trkpt>
      <trkpt lat="45.19082" lon="6.03594">
        <ele>1158.64</ele>
        <time>2015-07-19T06:39:36Z</time>
      </trkpt>
      <trkpt lat="45.19108" lon="6.03602">
        <ele>1161.71</ele>
        <time>2015-07-19T06:39:47Z</time>
      </trkpt>
      <trkpt lat="45.19138" lon="6.03612">
        <ele>1164.89</ele>
        <time>2015-07-19T06:40:00Z</time>
      </trkpt>
      <trkpt lat="45.19162" lon="6.03616">
        <ele>1167.92</ele>
        <time>2015-07-19T06:40:12Z</time>
      </trkpt>
      <trkpt lat="45.19194" lon="6.03629">
        <ele>1171.01</ele>
        <time>2015-07-19T06:40:25Z</time>
      </trkpt>
      <trkpt lat="45.1922" lon="6.03642">
        <ele>1173.81</ele>
        <time>2015-07-19T06:40:36Z</time>
      </trkpt>
      <trkpt lat="45.19222" lon="6.03643">
        <ele>1174.05</ele>
        <time>2015-07-19T06:40:37Z</time>
      </trkpt>
      <trkpt lat="45.19224" lon="6.03643">
        <ele>1174.27</ele>
        <time>2015-07-19T06:40:38Z</time>
      </trkpt>
      <trkpt lat="45.19226" lon="6.03643">
        <ele>1174.47</ele>
        <time>2015-07-19T06:40:39Z</time>
      </trkpt>
      <trkpt lat="45.19229" lon="6.03643">
        <ele>1174.66</ele>
        <time>2015-07-19T06:40:40Z</time>
      </trkpt>
      <trkpt lat="45.19231" lon="6.03643">
        <ele>1174.92</ele>
        <time>2015-07-19T06:40:41Z</time>
      </trkpt>
      <trkpt lat="45.19233" lon="6.03644">
        <ele>1175.22</ele>
        <time>2015-07-19T06:40:42Z</time>
      </trkpt>
      <trkpt lat="45.19235" lon="6.03644">
        <ele>1175.48</ele>
        <time>2015-07-19T06:40:43Z</time>
      </trkpt>
      <trkpt lat="45.19237" lon="6.03644">
        <ele>1175.73</ele>
        <time>2015-07-19T06:40:44Z</time>
      </trkpt>
      <trkpt lat="45.1924" lon="6.03644">
        <ele>1176.04</ele>
        <time>2015-07-19T06:40:45Z</time>
      </trkpt>
      <trkpt lat="45.19243" lon="6.03643">
        <ele>1176.35</ele>
        <time>2015-07-19T06:40:46Z</time>
      </trkpt>
      <trkpt lat="45.19245" lon="6.03643">
        <ele>1176.61</ele>
        <time>2015-07-19T06:40:47Z</time>
      </trkpt>
      <trkpt lat="45.19268" lon="6.03654">
        <ele>1179.78</ele>
        <time>2015-07-19T06:40:59Z</time>
      </trkpt>
      <trkpt lat="45.19293" lon="6.03675">
        <ele>1183.03</ele>
        <time>2015-07-19T06:41:12Z</time>
      </trkpt>
      <trkpt lat="45.19314" lon="6.037">
        <ele>1186.36</ele>
        <time>2015-07-19T06:41:25Z</time>
      </trkpt>
      <trkpt lat="45.19342" lon="6.03722">
        <ele>1189.55</ele>
        <time>2015-07-19T06:41:38Z</time>
      </trkpt>
      <trkpt lat="45.19372" lon="6.0374">
        <ele>1192.64</ele>
        <time>2015-07-19T06:41:51Z</time>
      </trkpt>
      <trkpt lat="45.194" lon="6.03759">
        <ele>1195.92</ele>
        <time>2015-07-19T06:42:04Z</time>
      </trkpt>
      <trkpt lat="45.19428" lon="6.03776">
        <ele>1199.2</ele>
        <time>2015-07-19T06:42:18Z</time>
      </trkpt>
      <trkpt lat="45.19455" lon="6.03788">
        <ele>1202.47</ele>
        <time>2015-07-19T06:42:31Z</time>
      </trkpt>
      <trkpt lat="45.19476" lon="6.03795">
        <ele>1204.66</ele>
        <time>2015-07-19T06:42:41Z</time>
      </trkpt>
      <trkpt lat="45.19478" lon="6.03795">
        <ele>1204.88</ele>
        <time>2015-07-19T06:42:42Z</time>
      </trkpt>
      <trkpt lat="45.1951" lon="6.03796">
        <ele>1207.89</ele>
        <time>2015-07-19T06:42:55Z</time>
      </trkpt>
      <trkpt lat="45.19532" lon="6.03814">
        <ele>1210.97</ele>
        <time>2015-07-19T06:43:06Z</time>
      </trkpt>
      <trkpt lat="45.19557" lon="6.0383">
        <ele>1214.17</ele>
        <time>2015-07-19T06:43:18Z</time>
      </trkpt>
      <trkpt lat="45.19586" lon="6.03858">
        <ele>1217.23</ele>
        <time>2015-07-19T06:43:32Z</time>
      </trkpt>
      <trkpt lat="45.19629" lon="6.03873">
        <ele>1220.24</ele>
        <time>2015-07-19T06:43:47Z</time>
      </trkpt>
      <trkpt lat="45.19663" lon="6.03881">
        <ele>1223.37</ele>
        <time>2015-07-19T06:44:01Z</time>
      </trkpt>
      <trkpt lat="45.19694" lon="6.03886">
        <ele>1226.61</ele>
        <time>2015-07-19T06:44:15Z</time>
      </trkpt>
      <trkpt lat="45.19722" lon="6.03889">
        <ele>1229.64</ele>
        <time>2015-07-19T06:44:27Z</time>
      </trkpt>
      <trkpt lat="45.19728" lon="6.03889">
        <ele>1230.47</ele>
        <time>2015-07-19T06:44:30Z</time>
      </trkpt>
      <trkpt lat="45.19756" lon="6.03898">
        <ele>1233.58</ele>
        <time>2015-07-19T06:44:42Z</time>
      </trkpt>
      <trkpt lat="45.19789" lon="6.03917">
        <ele>1236.64</ele>
        <time>2015-07-19T06:44:54Z</time>
      </trkpt>
      <trkpt lat="45.1983" lon="6.03932">
        <ele>1239.64</ele>
        <time>2015-07-19T06:45:08Z</time>
      </trkpt>
      <trkpt lat="45.19868" lon="6.03947">
        <ele>1242.66</ele>
        <time>2015-07-19T06:45:23Z</time>
      </trkpt>
      <trkpt lat="45.19918" lon="6.03934">
        <ele>1245.05</ele>
        <time>2015-07-19T06:45:37Z</time>
      </trkpt>
      <trkpt lat="45.19967" lon="6.03917">
        <ele>1246.08</ele>
        <time>2015-07-19T06:45:49Z</time>
      </trkpt>
      <trkpt lat="45.19972" lon="6.03917">
        <ele>1246.17</ele>
        <time>2015-07-19T06:45:50Z</time>
      </trkpt>
      <trkpt lat="45.19976" lon="6.03918">
        <ele>1246.39</ele>
        <time>2015-07-19T06:45:51Z</time>
      </trkpt>
      <trkpt lat="45.1998" lon="6.03918">
        <ele>1246.5</ele>
        <time>2015-07-19T06:45:52Z</time>
      </trkpt>
      <trkpt lat="45.19984" lon="6.03919">
        <ele>1246.58</ele>
        <time>2015-07-19T06:45:53Z</time>
      </trkpt>
      <trkpt lat="45.19988" lon="6.03919">
        <ele>1246.68</ele>
        <time>2015-07-19T06:45:54Z</time>
      </trkpt>
      <trkpt lat="45.19997" lon="6.03921">
        <ele>1246.82</ele>
        <time>2015-07-19T06:45:56Z</time>
      </trkpt>
      <trkpt lat="45.20046" lon="6.03933">
        <ele>1247.65</ele>
        <time>2015-07-19T06:46:08Z</time>
      </trkpt>
      <trkpt lat="45.20096" lon="6.03953">
        <ele>1248.5</ele>
        <time>2015-07-19T06:46:19Z</time>
      </trkpt>
      <trkpt lat="45.201" lon="6.03954">
        <ele>1248.52</ele>
        <time>2015-07-19T06:46:20Z</time>
      </trkpt>
      <trkpt lat="45.2011" lon="6.03955">
        <ele>1248.88</ele>
        <time>2015-07-19T06:46:22Z</time>
      </trkpt>
      <trkpt lat="45.20138" lon="6.03956">
        <ele>1249.51</ele>
        <time>2015-07-19T06:46:28Z</time>
      </trkpt>
      <trkpt lat="45.20143" lon="6.03957">
        <ele>1249.54</ele>
        <time>2015-07-19T06:46:29Z</time>
      </trkpt>
      <trkpt lat="45.20162" lon="6.03962">
        <ele>1250.01</ele>
        <time>2015-07-19T06:46:33Z</time>
      </trkpt>
      <trkpt lat="45.20166" lon="6.03965">
        <ele>1250.02</ele>
        <time>2015-07-19T06:46:34Z</time>
      </trkpt>
      <trkpt lat="45.2017" lon="6.03969">
        <ele>1249.99</ele>
        <time>2015-07-19T06:46:35Z</time>
      </trkpt>
      <trkpt lat="45.20173" lon="6.03973">
        <ele>1250.06</ele>
        <time>2015-07-19T06:46:36Z</time>
      </trkpt>
      <trkpt lat="45.20177" lon="6.03977">
        <ele>1250.21</ele>
        <time>2015-07-19T06:46:37Z</time>
      </trkpt>
      <trkpt lat="45.2018" lon="6.03981">
        <ele>1250.3</ele>
        <time>2015-07-19T06:46:38Z</time>
      </trkpt>
      <trkpt lat="45.20183" lon="6.03984">
        <ele>1250.38</ele>
        <time>2015-07-19T06:46:39Z</time>
      </trkpt>
      <trkpt lat="45.20217" lon="6.04025">
        <ele>1251.88</ele>
        <time>2015-07-19T06:46:51Z</time>
      </trkpt>
      <trkpt lat="45.20269" lon="6.04031">
        <ele>1253.68</ele>
        <time>2015-07-19T06:47:04Z</time>
      </trkpt>
      <trkpt lat="45.20316" lon="6.04038">
        <ele>1256.48</ele>
        <time>2015-07-19T06:47:17Z</time>
      </trkpt>
      <trkpt lat="45.20349" lon="6.0408">
        <ele>1259.65</ele>
        <time>2015-07-19T06:47:29Z</time>
      </trkpt>
      <trkpt lat="45.20389" lon="6.04121">
        <ele>1262.03</ele>
        <time>2015-07-19T06:47:43Z</time>
      </trkpt>
      <trkpt lat="45.20429" lon="6.04163">
        <ele>1263.15</ele>
        <time>2015-07-19T06:47:54Z</time>
      </trkpt>
      <trkpt lat="45.20443" lon="6.04182">
        <ele>1263.1</ele>
        <time>2015-07-19T06:47:58Z</time>
      </trkpt>
      <trkpt lat="45.20446" lon="6.04188">
        <ele>1263.17</ele>
        <time>2015-07-19T06:47:59Z</time>
      </trkpt>
      <trkpt lat="45.20449" lon="6.04194">
        <ele>1263.17</ele>
        <time>2015-07-19T06:48:00Z</time>
      </trkpt>
      <trkpt lat="45.20474" lon="6.0426">
        <ele>1263.68</ele>
        <time>2015-07-19T06:48:11Z</time>
      </trkpt>
      <trkpt lat="45.2048" lon="6.04272">
        <ele>1263.84</ele>
        <time>2015-07-19T06:48:13Z</time>
      </trkpt>
      <trkpt lat="45.20486" lon="6.04289">
        <ele>1264.16</ele>
        <time>2015-07-19T06:48:16Z</time>
      </trkpt>
      <trkpt lat="45.20491" lon="6.04301">
        <ele>1264.35</ele>
        <time>2015-07-19T06:48:18Z</time>
      </trkpt>
      <trkpt lat="45.20497" lon="6.04311">
        <ele>1264.54</ele>
        <time>2015-07-19T06:48:20Z</time>
      </trkpt>
      <trkpt lat="45.20513" lon="6.04335">
        <ele>1265.12</ele>
        <time>2015-07-19T06:48:25Z</time>
      </trkpt>
      <trkpt lat="45.20516" lon="6.04339">
        <ele>1265.21</ele>
        <time>2015-07-19T06:48:26Z</time>
      </trkpt>
      <trkpt lat="45.20519" lon="6.04342">
        <ele>1265.3</ele>
        <time>2015-07-19T06:48:27Z</time>
      </trkpt>
      <trkpt lat="45.20522" lon="6.04344">
        <ele>1265.35</ele>
        <time>2015-07-19T06:48:28Z</time>
      </trkpt>
      <trkpt lat="45.20526" lon="6.04347">
        <ele>1265.51</ele>
        <time>2015-07-19T06:48:29Z</time>
      </trkpt>
      <trkpt lat="45.20577" lon="6.04371">
        <ele>1265.99</ele>
        <time>2015-07-19T06:48:40Z</time>
      </trkpt>
      <trkpt lat="45.20625" lon="6.04395">
        <ele>1266.04</ele>
        <time>2015-07-19T06:48:49Z</time>
      </trkpt>
      <trkpt lat="45.2063" lon="6.04399">
        <ele>1266</ele>
        <time>2015-07-19T06:48:50Z</time>
      </trkpt>
      <trkpt lat="45.2066" lon="6.04433">
        <ele>1266.41</ele>
        <time>2015-07-19T06:48:57Z</time>
      </trkpt>
      <trkpt lat="45.20677" lon="6.0445">
        <ele>1266.8</ele>
        <time>2015-07-19T06:49:01Z</time>
      </trkpt>
      <trkpt lat="45.20728" lon="6.04476">
        <ele>1267.74</ele>
        <time>2015-07-19T06:49:11Z</time>
      </trkpt>
      <trkpt lat="45.20733" lon="6.04477">
        <ele>1267.84</ele>
        <time>2015-07-19T06:49:12Z</time>
      </trkpt>
      <trkpt lat="45.20786" lon="6.04483">
        <ele>1268.05</ele>
        <time>2015-07-19T06:49:21Z</time>
      </trkpt>
      <trkpt lat="45.20809" lon="6.04488">
        <ele>1267.9</ele>
        <time>2015-07-19T06:49:25Z</time>
      </trkpt>
      <trkpt lat="45.20815" lon="6.04492">
        <ele>1267.88</ele>
        <time>2015-07-19T06:49:26Z</time>
      </trkpt>
      <trkpt lat="45.2082" lon="6.04497">
        <ele>1267.93</ele>
        <time>2015-07-19T06:49:27Z</time>
      </trkpt>
      <trkpt lat="45.20824" lon="6.04503">
        <ele>1268.13</ele>
        <time>2015-07-19T06:49:28Z</time>
      </trkpt>
      <trkpt lat="45.20828" lon="6.0451">
        <ele>1268.19</ele>
        <time>2015-07-19T06:49:29Z</time>
      </trkpt>
      <trkpt lat="45.20832" lon="6.04517">
        <ele>1268.21</ele>
        <time>2015-07-19T06:49:30Z</time>
      </trkpt>
      <trkpt lat="45.20842" lon="6.04537">
        <ele>1268.52</ele>
        <time>2015-07-19T06:49:33Z</time>
      </trkpt>
      <trkpt lat="45.20845" lon="6.04542">
        <ele>1268.51</ele>
        <time>2015-07-19T06:49:34Z</time>
      </trkpt>
      <trkpt lat="45.20849" lon="6.04548">
        <ele>1268.53</ele>
        <time>2015-07-19T06:49:35Z</time>
      </trkpt>
      <trkpt lat="45.20854" lon="6.04552">
        <ele>1268.53</ele>
        <time>2015-07-19T06:49:36Z</time>
      </trkpt>
      <trkpt lat="45.2086" lon="6.04555">
        <ele>1268.59</ele>
        <time>2015-07-19T06:49:37Z</time>
      </trkpt>
      <trkpt lat="45.20866" lon="6.04557">
        <ele>1268.66</ele>
        <time>2015-07-19T06:49:38Z</time>
      </trkpt>
      <trkpt lat="45.20872" lon="6.04557">
        <ele>1268.76</ele>
        <time>2015-07-19T06:49:39Z</time>
      </trkpt>
      <trkpt lat="45.20878" lon="6.04556">
        <ele>1268.75</ele>
        <time>2015-07-19T06:49:40Z</time>
      </trkpt>
      <trkpt lat="45.20884" lon="6.04554">
        <ele>1268.73</ele>
        <time>2015-07-19T06:49:41Z</time>
      </trkpt>
      <trkpt lat="45.2089" lon="6.04552">
        <ele>1268.68</ele>
        <time>2015-07-19T06:49:42Z</time>
      </trkpt>
      <trkpt lat="45.20895" lon="6.04548">
        <ele>1268.66</ele>
        <time>2015-07-19T06:49:43Z</time>
      </trkpt>
      <trkpt lat="45.209" lon="6.04543">
        <ele>1268.8</ele>
        <time>2015-07-19T06:49:44Z</time>
      </trkpt>
      <trkpt lat="45.20917" lon="6.04531">
        <ele>1268.91</ele>
        <time>2015-07-19T06:49:47Z</time>
      </trkpt>
      <trkpt lat="45.20929" lon="6.04531">
        <ele>1269.05</ele>
        <time>2015-07-19T06:49:49Z</time>
      </trkpt>
      <trkpt lat="45.20935" lon="6.04536">
        <ele>1269.11</ele>
        <time>2015-07-19T06:49:50Z</time>
      </trkpt>
      <trkpt lat="45.2094" lon="6.04542">
        <ele>1268.69</ele>
        <time>2015-07-19T06:49:51Z</time>
      </trkpt>
      <trkpt lat="45.20944" lon="6.0455">
        <ele>1268.38</ele>
        <time>2015-07-19T06:49:52Z</time>
      </trkpt>
      <trkpt lat="45.20944" lon="6.04559">
        <ele>1268.2</ele>
        <time>2015-07-19T06:49:53Z</time>
      </trkpt>
      <trkpt lat="45.20944" lon="6.04567">
        <ele>1268.09</ele>
        <time>2015-07-19T06:49:54Z</time>
      </trkpt>
      <trkpt lat="45.20942" lon="6.04576">
        <ele>1268</ele>
        <time>2015-07-19T06:49:55Z</time>
      </trkpt>
      <trkpt lat="45.20941" lon="6.04585">
        <ele>1267.97</ele>
        <time>2015-07-19T06:49:56Z</time>
      </trkpt>
      <trkpt lat="45.20938" lon="6.04622">
        <ele>1268.17</ele>
        <time>2015-07-19T06:50:00Z</time>
      </trkpt>
      <trkpt lat="45.20939" lon="6.04631">
        <ele>1268.15</ele>
        <time>2015-07-19T06:50:01Z</time>
      </trkpt>
      <trkpt lat="45.20941" lon="6.04639">
        <ele>1268.07</ele>
        <time>2015-07-19T06:50:02Z</time>
      </trkpt>
      <trkpt lat="45.20945" lon="6.04647">
        <ele>1268.02</ele>
        <time>2015-07-19T06:50:03Z</time>
      </trkpt>
      <trkpt lat="45.2095" lon="6.04654">
        <ele>1268.02</ele>
        <time>2015-07-19T06:50:04Z</time>
      </trkpt>
      <trkpt lat="45.20957" lon="6.04657">
        <ele>1268.07</ele>
        <time>2015-07-19T06:50:05Z</time>
      </trkpt>
      <trkpt lat="45.20963" lon="6.04659">
        <ele>1268.14</ele>
        <time>2015-07-19T06:50:06Z</time>
      </trkpt>
      <trkpt lat="45.2097" lon="6.04661">
        <ele>1268.19</ele>
        <time>2015-07-19T06:50:07Z</time>
      </trkpt>
      <trkpt lat="45.20976" lon="6.04662">
        <ele>1268.18</ele>
        <time>2015-07-19T06:50:08Z</time>
      </trkpt>
      <trkpt lat="45.20993" lon="6.04667">
        <ele>1268.38</ele>
        <time>2015-07-19T06:50:11Z</time>
      </trkpt>
      <trkpt lat="45.20998" lon="6.0467">
        <ele>1268.47</ele>
        <time>2015-07-19T06:50:12Z</time>
      </trkpt>
      <trkpt lat="45.21002" lon="6.04674">
        <ele>1268.54</ele>
        <time>2015-07-19T06:50:13Z</time>
      </trkpt>
      <trkpt lat="45.21007" lon="6.04679">
        <ele>1268.59</ele>
        <time>2015-07-19T06:50:14Z</time>
      </trkpt>
      <trkpt lat="45.21012" lon="6.04685">
        <ele>1268.72</ele>
        <time>2015-07-19T06:50:15Z</time>
      </trkpt>
      <trkpt lat="45.21021" lon="6.04697">
        <ele>1269.16</ele>
        <time>2015-07-19T06:50:17Z</time>
      </trkpt>
      <trkpt lat="45.21026" lon="6.04701">
        <ele>1269.17</ele>
        <time>2015-07-19T06:50:18Z</time>
      </trkpt>
      <trkpt lat="45.21032" lon="6.04705">
        <ele>1269.12</ele>
        <time>2015-07-19T06:50:19Z</time>
      </trkpt>
      <trkpt lat="45.21039" lon="6.04708">
        <ele>1269.05</ele>
        <time>2015-07-19T06:50:20Z</time>
      </trkpt>
      <trkpt lat="45.21045" lon="6.04711">
        <ele>1269.02</ele>
        <time>2015-07-19T06:50:21Z</time>
      </trkpt>
      <trkpt lat="45.21052" lon="6.04714">
        <ele>1268.95</ele>
        <time>2015-07-19T06:50:22Z</time>
      </trkpt>
      <trkpt lat="45.21059" lon="6.04718">
        <ele>1268.94</ele>
        <time>2015-07-19T06:50:23Z</time>
      </trkpt>
      <trkpt lat="45.21065" lon="6.04722">
        <ele>1268.95</ele>
        <time>2015-07-19T06:50:24Z</time>
      </trkpt>
      <trkpt lat="45.21112" lon="6.04753">
        <ele>1268.75</ele>
        <time>2015-07-19T06:50:31Z</time>
      </trkpt>
      <trkpt lat="45.21122" lon="6.04777">
        <ele>1268.5</ele>
        <time>2015-07-19T06:50:34Z</time>
      </trkpt>
      <trkpt lat="45.21122" lon="6.04786">
        <ele>1268.33</ele>
        <time>2015-07-19T06:50:35Z</time>
      </trkpt>
      <trkpt lat="45.21117" lon="6.04795">
        <ele>1267.87</ele>
        <time>2015-07-19T06:50:36Z</time>
      </trkpt>
      <trkpt lat="45.21111" lon="6.04803">
        <ele>1267.57</ele>
        <time>2015-07-19T06:50:37Z</time>
      </trkpt>
      <trkpt lat="45.21104" lon="6.04811">
        <ele>1267.35</ele>
        <time>2015-07-19T06:50:38Z</time>
      </trkpt>
      <trkpt lat="45.21097" lon="6.04818">
        <ele>1267.12</ele>
        <time>2015-07-19T06:50:39Z</time>
      </trkpt>
      <trkpt lat="45.2109" lon="6.04826">
        <ele>1266.85</ele>
        <time>2015-07-19T06:50:40Z</time>
      </trkpt>
      <trkpt lat="45.21086" lon="6.04837">
        <ele>1266.68</ele>
        <time>2015-07-19T06:50:41Z</time>
      </trkpt>
      <trkpt lat="45.21082" lon="6.04849">
        <ele>1266.52</ele>
        <time>2015-07-19T06:50:42Z</time>
      </trkpt>
      <trkpt lat="45.21079" lon="6.04862">
        <ele>1266.28</ele>
        <time>2015-07-19T06:50:43Z</time>
      </trkpt>
      <trkpt lat="45.21078" lon="6.04876">
        <ele>1265.88</ele>
        <time>2015-07-19T06:50:44Z</time>
      </trkpt>
      <trkpt lat="45.21076" lon="6.04889">
        <ele>1265.51</ele>
        <time>2015-07-19T06:50:45Z</time>
      </trkpt>
      <trkpt lat="45.21072" lon="6.04961">
        <ele>1263.34</ele>
        <time>2015-07-19T06:50:50Z</time>
      </trkpt>
      <trkpt lat="45.21075" lon="6.04975">
        <ele>1263</ele>
        <time>2015-07-19T06:50:51Z</time>
      </trkpt>
      <trkpt lat="45.21079" lon="6.04989">
        <ele>1262.7</ele>
        <time>2015-07-19T06:50:52Z</time>
      </trkpt>
      <trkpt lat="45.21084" lon="6.05001">
        <ele>1262.26</ele>
        <time>2015-07-19T06:50:53Z</time>
      </trkpt>
      <trkpt lat="45.2109" lon="6.05013">
        <ele>1261.68</ele>
        <time>2015-07-19T06:50:54Z</time>
      </trkpt>
      <trkpt lat="45.21096" lon="6.05025">
        <ele>1260.65</ele>
        <time>2015-07-19T06:50:55Z</time>
      </trkpt>
      <trkpt lat="45.21104" lon="6.05036">
        <ele>1259.79</ele>
        <time>2015-07-19T06:50:56Z</time>
      </trkpt>
      <trkpt lat="45.21108" lon="6.05049">
        <ele>1259.22</ele>
        <time>2015-07-19T06:50:57Z</time>
      </trkpt>
      <trkpt lat="45.21106" lon="6.05065">
        <ele>1258.4</ele>
        <time>2015-07-19T06:50:58Z</time>
      </trkpt>
      <trkpt lat="45.21105" lon="6.05079">
        <ele>1257.51</ele>
        <time>2015-07-19T06:50:59Z</time>
      </trkpt>
      <trkpt lat="45.21101" lon="6.0509">
        <ele>1256.86</ele>
        <time>2015-07-19T06:51:00Z</time>
      </trkpt>
      <trkpt lat="45.21096" lon="6.05101">
        <ele>1256.17</ele>
        <time>2015-07-19T06:51:01Z</time>
      </trkpt>
      <trkpt lat="45.2109" lon="6.0511">
        <ele>1255.61</ele>
        <time>2015-07-19T06:51:02Z</time>
      </trkpt>
      <trkpt lat="45.21083" lon="6.0512">
        <ele>1255.13</ele>
        <time>2015-07-19T06:51:03Z</time>
      </trkpt>
      <trkpt lat="45.21078" lon="6.05131">
        <ele>1254.78</ele>
        <time>2015-07-19T06:51:04Z</time>
      </trkpt>
      <trkpt lat="45.21074" lon="6.05144">
        <ele>1254.34</ele>
        <time>2015-07-19T06:51:05Z</time>
      </trkpt>
      <trkpt lat="45.21073" lon="6.05158">
        <ele>1253.81</ele>
        <time>2015-07-19T06:51:06Z</time>
      </trkpt>
      <trkpt lat="45.21074" lon="6.05172">
        <ele>1253.45</ele>
        <time>2015-07-19T06:51:07Z</time>
      </trkpt>
      <trkpt lat="45.21076" lon="6.05187">
        <ele>1252.86</ele>
        <time>2015-07-19T06:51:08Z</time>
      </trkpt>
      <trkpt lat="45.21087" lon="6.05262">
        <ele>1250.33</ele>
        <time>2015-07-19T06:51:13Z</time>
      </trkpt>
      <trkpt lat="45.21089" lon="6.05278">
        <ele>1249.91</ele>
        <time>2015-07-19T06:51:14Z</time>
      </trkpt>
      <trkpt lat="45.2109" lon="6.05294">
        <ele>1249.57</ele>
        <time>2015-07-19T06:51:15Z</time>
      </trkpt>
      <trkpt lat="45.2109" lon="6.05366">
        <ele>1247.96</ele>
        <time>2015-07-19T06:51:20Z</time>
      </trkpt>
      <trkpt lat="45.21085" lon="6.0544">
        <ele>1247.49</ele>
        <time>2015-07-19T06:51:26Z</time>
      </trkpt>
      <trkpt lat="45.21079" lon="6.05505">
        <ele>1246.89</ele>
        <time>2015-07-19T06:51:32Z</time>
      </trkpt>
      <trkpt lat="45.21079" lon="6.05515">
        <ele>1246.95</ele>
        <time>2015-07-19T06:51:33Z</time>
      </trkpt>
      <trkpt lat="45.21081" lon="6.05525">
        <ele>1246.95</ele>
        <time>2015-07-19T06:51:34Z</time>
      </trkpt>
      <trkpt lat="45.21084" lon="6.05535">
        <ele>1246.92</ele>
        <time>2015-07-19T06:51:35Z</time>
      </trkpt>
      <trkpt lat="45.21086" lon="6.05546">
        <ele>1246.77</ele>
        <time>2015-07-19T06:51:36Z</time>
      </trkpt>
      <trkpt lat="45.21089" lon="6.05569">
        <ele>1245.99</ele>
        <time>2015-07-19T06:51:38Z</time>
      </trkpt>
      <trkpt lat="45.21089" lon="6.05581">
        <ele>1245.52</ele>
        <time>2015-07-19T06:51:39Z</time>
      </trkpt>
      <trkpt lat="45.21088" lon="6.05594">
        <ele>1244.79</ele>
        <time>2015-07-19T06:51:40Z</time>
      </trkpt>
      <trkpt lat="45.21086" lon="6.05651">
        <ele>1240.97</ele>
        <time>2015-07-19T06:51:44Z</time>
      </trkpt>
      <trkpt lat="45.21085" lon="6.05684">
        <ele>1237.1</ele>
        <time>2015-07-19T06:51:47Z</time>
      </trkpt>
      <trkpt lat="45.21082" lon="6.0569">
        <ele>1235.68</ele>
        <time>2015-07-19T06:51:48Z</time>
      </trkpt>
      <trkpt lat="45.21078" lon="6.05691">
        <ele>1234.45</ele>
        <time>2015-07-19T06:51:49Z</time>
      </trkpt>
      <trkpt lat="45.21075" lon="6.05688">
        <ele>1233.88</ele>
        <time>2015-07-19T06:51:50Z</time>
      </trkpt>
      <trkpt lat="45.21073" lon="6.05681">
        <ele>1233.14</ele>
        <time>2015-07-19T06:51:51Z</time>
      </trkpt>
      <trkpt lat="45.21072" lon="6.05672">
        <ele>1232.71</ele>
        <time>2015-07-19T06:51:52Z</time>
      </trkpt>
      <trkpt lat="45.21071" lon="6.05662">
        <ele>1232.27</ele>
        <time>2015-07-19T06:51:53Z</time>
      </trkpt>
      <trkpt lat="45.21069" lon="6.05652">
        <ele>1231.72</ele>
        <time>2015-07-19T06:51:54Z</time>
      </trkpt>
      <trkpt lat="45.21067" lon="6.0564">
        <ele>1231.18</ele>
        <time>2015-07-19T06:51:55Z</time>
      </trkpt>
      <trkpt lat="45.21059" lon="6.05585">
        <ele>1227.93</ele>
        <time>2015-07-19T06:51:59Z</time>
      </trkpt>
      <trkpt lat="45.21054" lon="6.05555">
        <ele>1224.39</ele>
        <time>2015-07-19T06:52:02Z</time>
      </trkpt>
      <trkpt lat="45.21051" lon="6.05549">
        <ele>1223.44</ele>
        <time>2015-07-19T06:52:03Z</time>
      </trkpt>
      <trkpt lat="45.21045" lon="6.05549">
        <ele>1222.63</ele>
        <time>2015-07-19T06:52:04Z</time>
      </trkpt>
      <trkpt lat="45.21043" lon="6.05556">
        <ele>1222.12</ele>
        <time>2015-07-19T06:52:05Z</time>
      </trkpt>
      <trkpt lat="45.2104" lon="6.05564">
        <ele>1221.78</ele>
        <time>2015-07-19T06:52:06Z</time>
      </trkpt>
      <trkpt lat="45.21039" lon="6.05574">
        <ele>1221.58</ele>
        <time>2015-07-19T06:52:07Z</time>
      </trkpt>
      <trkpt lat="45.21036" lon="6.05585">
        <ele>1221.17</ele>
        <time>2015-07-19T06:52:08Z</time>
      </trkpt>
      <trkpt lat="45.21022" lon="6.05653">
        <ele>1218.27</ele>
        <time>2015-07-19T06:52:13Z</time>
      </trkpt>
      <trkpt lat="45.21017" lon="6.05682">
        <ele>1215.03</ele>
        <time>2015-07-19T06:52:15Z</time>
      </trkpt>
      <trkpt lat="45.21017" lon="6.05695">
        <ele>1213.34</ele>
        <time>2015-07-19T06:52:16Z</time>
      </trkpt>
      <trkpt lat="45.21016" lon="6.05718">
        <ele>1209.23</ele>
        <time>2015-07-19T06:52:18Z</time>
      </trkpt>
      <trkpt lat="45.21013" lon="6.05725">
        <ele>1207.11</ele>
        <time>2015-07-19T06:52:19Z</time>
      </trkpt>
      <trkpt lat="45.21008" lon="6.05729">
        <ele>1205.51</ele>
        <time>2015-07-19T06:52:20Z</time>
      </trkpt>
      <trkpt lat="45.21003" lon="6.05726">
        <ele>1204.29</ele>
        <time>2015-07-19T06:52:21Z</time>
      </trkpt>
      <trkpt lat="45.21" lon="6.0572">
        <ele>1203.57</ele>
        <time>2015-07-19T06:52:22Z</time>
      </trkpt>
      <trkpt lat="45.20997" lon="6.05712">
        <ele>1203.24</ele>
        <time>2015-07-19T06:52:23Z</time>
      </trkpt>
      <trkpt lat="45.20994" lon="6.057">
        <ele>1202.71</ele>
        <time>2015-07-19T06:52:24Z</time>
      </trkpt>
      <trkpt lat="45.20991" lon="6.05686">
        <ele>1201.78</ele>
        <time>2015-07-19T06:52:25Z</time>
      </trkpt>
      <trkpt lat="45.20979" lon="6.05623">
        <ele>1198.45</ele>
        <time>2015-07-19T06:52:29Z</time>
      </trkpt>
      <trkpt lat="45.20974" lon="6.05574">
        <ele>1193.73</ele>
        <time>2015-07-19T06:52:32Z</time>
      </trkpt>
      <trkpt lat="45.20976" lon="6.05549">
        <ele>1190.64</ele>
        <time>2015-07-19T06:52:34Z</time>
      </trkpt>
      <trkpt lat="45.20979" lon="6.05529">
        <ele>1187.03</ele>
        <time>2015-07-19T06:52:36Z</time>
      </trkpt>
      <trkpt lat="45.20979" lon="6.0552">
        <ele>1186.05</ele>
        <time>2015-07-19T06:52:37Z</time>
      </trkpt>
      <trkpt lat="45.20976" lon="6.05512">
        <ele>1185.5</ele>
        <time>2015-07-19T06:52:38Z</time>
      </trkpt>
      <trkpt lat="45.20971" lon="6.05508">
        <ele>1185.04</ele>
        <time>2015-07-19T06:52:39Z</time>
      </trkpt>
      <trkpt lat="45.20965" lon="6.05509">
        <ele>1184.71</ele>
        <time>2015-07-19T06:52:40Z</time>
      </trkpt>
      <trkpt lat="45.2096" lon="6.05514">
        <ele>1184.49</ele>
        <time>2015-07-19T06:52:41Z</time>
      </trkpt>
      <trkpt lat="45.20957" lon="6.05522">
        <ele>1184.32</ele>
        <time>2015-07-19T06:52:42Z</time>
      </trkpt>
      <trkpt lat="45.20953" lon="6.0553">
        <ele>1184.13</ele>
        <time>2015-07-19T06:52:43Z</time>
      </trkpt>
      <trkpt lat="45.2095" lon="6.0554">
        <ele>1183.99</ele>
        <time>2015-07-19T06:52:44Z</time>
      </trkpt>
      <trkpt lat="45.20948" lon="6.05551">
        <ele>1183.81</ele>
        <time>2015-07-19T06:52:45Z</time>
      </trkpt>
      <trkpt lat="45.20943" lon="6.05577">
        <ele>1183.08</ele>
        <time>2015-07-19T06:52:47Z</time>
      </trkpt>
      <trkpt lat="45.20934" lon="6.05639">
        <ele>1179.53</ele>
        <time>2015-07-19T06:52:51Z</time>
      </trkpt>
      <trkpt lat="45.20928" lon="6.05688">
        <ele>1176.41</ele>
        <time>2015-07-19T06:52:54Z</time>
      </trkpt>
      <trkpt lat="45.2092" lon="6.05734">
        <ele>1175.46</ele>
        <time>2015-07-19T06:52:57Z</time>
      </trkpt>
      <trkpt lat="45.20915" lon="6.05747">
        <ele>1174.85</ele>
        <time>2015-07-19T06:52:58Z</time>
      </trkpt>
      <trkpt lat="45.20906" lon="6.05757">
        <ele>1174.42</ele>
        <time>2015-07-19T06:52:59Z</time>
      </trkpt>
      <trkpt lat="45.20898" lon="6.05763">
        <ele>1174.11</ele>
        <time>2015-07-19T06:53:00Z</time>
      </trkpt>
      <trkpt lat="45.20889" lon="6.05768">
        <ele>1173.92</ele>
        <time>2015-07-19T06:53:01Z</time>
      </trkpt>
      <trkpt lat="45.20882" lon="6.05773">
        <ele>1173.8</ele>
        <time>2015-07-19T06:53:02Z</time>
      </trkpt>
      <trkpt lat="45.20876" lon="6.05779">
        <ele>1173.83</ele>
        <time>2015-07-19T06:53:03Z</time>
      </trkpt>
      <trkpt lat="45.20871" lon="6.05785">
        <ele>1173.98</ele>
        <time>2015-07-19T06:53:04Z</time>
      </trkpt>
      <trkpt lat="45.20867" lon="6.05791">
        <ele>1174.11</ele>
        <time>2015-07-19T06:53:05Z</time>
      </trkpt>
      <trkpt lat="45.20866" lon="6.05796">
        <ele>1174.34</ele>
        <time>2015-07-19T06:53:06Z</time>
      </trkpt>
      <trkpt lat="45.20864" lon="6.058">
        <ele>1174.47</ele>
        <time>2015-07-19T06:53:07Z</time>
      </trkpt>
      <trkpt lat="45.20863" lon="6.05804">
        <ele>1174.7</ele>
        <time>2015-07-19T06:53:08Z</time>
      </trkpt>
      <trkpt lat="45.20862" lon="6.05807">
        <ele>1174.88</ele>
        <time>2015-07-19T06:53:09Z</time>
      </trkpt>
      <trkpt lat="45.20862" lon="6.05809">
        <ele>1175.04</ele>
        <time>2015-07-19T06:53:10Z</time>
      </trkpt>
      <trkpt lat="45.20861" lon="6.05811">
        <ele>1175.17</ele>
        <time>2015-07-19T06:53:11Z</time>
      </trkpt>
      <trkpt lat="45.20853" lon="6.05837">
        <ele>1178.19</ele>
        <time>2015-07-19T06:53:21Z</time>
      </trkpt>
      <trkpt lat="45.20844" lon="6.05866">
        <ele>1181.39</ele>
        <time>2015-07-19T06:53:33Z</time>
      </trkpt>
      <trkpt lat="45.20838" lon="6.05898">
        <ele>1184.51</ele>
        <time>2015-07-19T06:53:46Z</time>
      </trkpt>
      <trkpt lat="45.20834" lon="6.05933">
        <ele>1187.61</ele>
        <time>2015-07-19T06:54:00Z</time>
      </trkpt>
      <trkpt lat="45.20823" lon="6.05966">
        <ele>1190.7</ele>
        <time>2015-07-19T06:54:13Z</time>
      </trkpt>
      <trkpt lat="45.20828" lon="6.05999">
        <ele>1193.74</ele>
        <time>2015-07-19T06:54:25Z</time>
      </trkpt>
      <trkpt lat="45.20821" lon="6.06034">
        <ele>1196.92</ele>
        <time>2015-07-19T06:54:39Z</time>
      </trkpt>
      <trkpt lat="45.20816" lon="6.06068">
        <ele>1199.99</ele>
        <time>2015-07-19T06:54:52Z</time>
      </trkpt>
      <trkpt lat="45.20804" lon="6.06103">
        <ele>1203.15</ele>
        <time>2015-07-19T06:55:06Z</time>
      </trkpt>
      <trkpt lat="45.20795" lon="6.06124">
        <ele>1205.19</ele>
        <time>2015-07-19T06:55:15Z</time>
      </trkpt>
      <trkpt lat="45.20794" lon="6.06126">
        <ele>1205.39</ele>
        <time>2015-07-19T06:55:16Z</time>
      </trkpt>
      <trkpt lat="45.20791" lon="6.0616">
        <ele>1208.11</ele>
        <time>2015-07-19T06:55:28Z</time>
      </trkpt>
      <trkpt lat="45.20791" lon="6.06162">
        <ele>1208.37</ele>
        <time>2015-07-19T06:55:29Z</time>
      </trkpt>
      <trkpt lat="45.20791" lon="6.06165">
        <ele>1208.55</ele>
        <time>2015-07-19T06:55:30Z</time>
      </trkpt>
      <trkpt lat="45.20783" lon="6.06205">
        <ele>1211.63</ele>
        <time>2015-07-19T06:55:44Z</time>
      </trkpt>
      <trkpt lat="45.20776" lon="6.06239">
        <ele>1214.99</ele>
        <time>2015-07-19T06:55:57Z</time>
      </trkpt>
      <trkpt lat="45.20772" lon="6.06277">
        <ele>1218.08</ele>
        <time>2015-07-19T06:56:11Z</time>
      </trkpt>
      <trkpt lat="45.20772" lon="6.0631">
        <ele>1221.31</ele>
        <time>2015-07-19T06:56:24Z</time>
      </trkpt>
      <trkpt lat="45.20776" lon="6.06334">
        <ele>1223.61</ele>
        <time>2015-07-19T06:56:33Z</time>
      </trkpt>
      <trkpt lat="45.20773" lon="6.06337">
        <ele>1223.93</ele>
        <time>2015-07-19T06:56:34Z</time>
      </trkpt>
      <trkpt lat="45.20771" lon="6.06371">
        <ele>1226.99</ele>
        <time>2015-07-19T06:56:46Z</time>
      </trkpt>
      <trkpt lat="45.20766" lon="6.06398">
        <ele>1230.11</ele>
        <time>2015-07-19T06:56:58Z</time>
      </trkpt>
      <trkpt lat="45.2075" lon="6.06425">
        <ele>1233.39</ele>
        <time>2015-07-19T06:57:11Z</time>
      </trkpt>
      <trkpt lat="45.20745" lon="6.06451">
        <ele>1236.53</ele>
        <time>2015-07-19T06:57:24Z</time>
      </trkpt>
      <trkpt lat="45.20746" lon="6.06463">
        <ele>1238.06</ele>
        <time>2015-07-19T06:57:30Z</time>
      </trkpt>
      <trkpt lat="45.20746" lon="6.06466">
        <ele>1238.25</ele>
        <time>2015-07-19T06:57:31Z</time>
      </trkpt>
      <trkpt lat="45.20746" lon="6.06468">
        <ele>1238.45</ele>
        <time>2015-07-19T06:57:32Z</time>
      </trkpt>
      <trkpt lat="45.20731" lon="6.06492">
        <ele>1241.58</ele>
        <time>2015-07-19T06:57:44Z</time>
      </trkpt>
      <trkpt lat="45.20721" lon="6.06527">
        <ele>1244.77</ele>
        <time>2015-07-19T06:57:57Z</time>
      </trkpt>
      <trkpt lat="45.20708" lon="6.06557">
        <ele>1247.94</ele>
        <time>2015-07-19T06:58:09Z</time>
      </trkpt>
      <trkpt lat="45.20688" lon="6.06581">
        <ele>1251.07</ele>
        <time>2015-07-19T06:58:21Z</time>
      </trkpt>
      <trkpt lat="45.20667" lon="6.06612">
        <ele>1254.21</ele>
        <time>2015-07-19T06:58:35Z</time>
      </trkpt>
      <trkpt lat="45.20648" lon="6.0666">
        <ele>1257.33</ele>
        <time>2015-07-19T06:58:50Z</time>
      </trkpt>
      <trkpt lat="45.2063" lon="6.06703">
        <ele>1260.52</ele>
        <time>2015-07-19T06:59:04Z</time>
      </trkpt>
      <trkpt lat="45.20612" lon="6.06738">
        <ele>1263.76</ele>
        <time>2015-07-19T06:59:18Z</time>
      </trkpt>
      <trkpt lat="45.20594" lon="6.06768">
        <ele>1266.9</ele>
        <time>2015-07-19T06:59:31Z</time>
      </trkpt>
      <trkpt lat="45.20578" lon="6.06806">
        <ele>1269.98</ele>
        <time>2015-07-19T06:59:44Z</time>
      </trkpt>
      <trkpt lat="45.20567" lon="6.06849">
        <ele>1272.65</ele>
        <time>2015-07-19T06:59:56Z</time>
      </trkpt>
      <trkpt lat="45.20566" lon="6.06851">
        <ele>1272.91</ele>
        <time>2015-07-19T06:59:57Z</time>
      </trkpt>
      <trkpt lat="45.20565" lon="6.06853">
        <ele>1273.14</ele>
        <time>2015-07-19T06:59:58Z</time>
      </trkpt>
      <trkpt lat="45.20564" lon="6.06855">
        <ele>1273.36</ele>
        <time>2015-07-19T06:59:59Z</time>
      </trkpt>
      <trkpt lat="45.20564" lon="6.06858">
        <ele>1273.62</ele>
        <time>2015-07-19T07:00:00Z</time>
      </trkpt>
      <trkpt lat="45.20558" lon="6.06888">
        <ele>1276.89</ele>
        <time>2015-07-19T07:00:12Z</time>
      </trkpt>
      <trkpt lat="45.20545" lon="6.0692">
        <ele>1279.9</ele>
        <time>2015-07-19T07:00:24Z</time>
      </trkpt>
      <trkpt lat="45.20526" lon="6.06981">
        <ele>1283.13</ele>
        <time>2015-07-19T07:00:39Z</time>
      </trkpt>
      <trkpt lat="45.20506" lon="6.07043">
        <ele>1285.58</ele>
        <time>2015-07-19T07:00:55Z</time>
      </trkpt>
      <trkpt lat="45.2048" lon="6.07104">
        <ele>1286.84</ele>
        <time>2015-07-19T07:01:09Z</time>
      </trkpt>
      <trkpt lat="45.20465" lon="6.07175">
        <ele>1285.82</ele>
        <time>2015-07-19T07:01:18Z</time>
      </trkpt>
      <trkpt lat="45.20463" lon="6.07187">
        <ele>1285.73</ele>
        <time>2015-07-19T07:01:19Z</time>
      </trkpt>
      <trkpt lat="45.2046" lon="6.07198">
        <ele>1285.56</ele>
        <time>2015-07-19T07:01:20Z</time>
      </trkpt>
      <trkpt lat="45.20457" lon="6.07208">
        <ele>1285.37</ele>
        <time>2015-07-19T07:01:21Z</time>
      </trkpt>
      <trkpt lat="45.20433" lon="6.07274">
        <ele>1284.08</ele>
        <time>2015-07-19T07:01:27Z</time>
      </trkpt>
      <trkpt lat="45.20429" lon="6.07286">
        <ele>1283.93</ele>
        <time>2015-07-19T07:01:28Z</time>
      </trkpt>
      <trkpt lat="45.20429" lon="6.07299">
        <ele>1283.71</ele>
        <time>2015-07-19T07:01:29Z</time>
      </trkpt>
      <trkpt lat="45.2043" lon="6.07312">
        <ele>1283.39</ele>
        <time>2015-07-19T07:01:30Z</time>
      </trkpt>
      <trkpt lat="45.20421" lon="6.07373">
        <ele>1286.63</ele>
        <time>2015-07-19T07:01:42Z</time>
      </trkpt>
      <trkpt lat="45.20416" lon="6.07398">
        <ele>1289.77</ele>
        <time>2015-07-19T07:01:52Z</time>
      </trkpt>
      <trkpt lat="45.20404" lon="6.07418">
        <ele>1292.94</ele>
        <time>2015-07-19T07:02:05Z</time>
      </trkpt>
      <trkpt lat="45.20388" lon="6.07429">
        <ele>1296.11</ele>
        <time>2015-07-19T07:02:15Z</time>
      </trkpt>
      <trkpt lat="45.20376" lon="6.07466">
        <ele>1299.31</ele>
        <time>2015-07-19T07:02:30Z</time>
      </trkpt>
      <trkpt lat="45.20367" lon="6.075">
        <ele>1302.5</ele>
        <time>2015-07-19T07:02:42Z</time>
      </trkpt>
      <trkpt lat="45.2035" lon="6.07527">
        <ele>1305.55</ele>
        <time>2015-07-19T07:02:55Z</time>
      </trkpt>
      <trkpt lat="45.20328" lon="6.07545">
        <ele>1308.77</ele>
        <time>2015-07-19T07:03:09Z</time>
      </trkpt>
      <trkpt lat="45.2031" lon="6.0757">
        <ele>1311.83</ele>
        <time>2015-07-19T07:03:21Z</time>
      </trkpt>
      <trkpt lat="45.20289" lon="6.07592">
        <ele>1314.86</ele>
        <time>2015-07-19T07:03:34Z</time>
      </trkpt>
      <trkpt lat="45.20266" lon="6.0761">
        <ele>1318.06</ele>
        <time>2015-07-19T07:03:47Z</time>
      </trkpt>
      <trkpt lat="45.20248" lon="6.07633">
        <ele>1321.15</ele>
        <time>2015-07-19T07:04:01Z</time>
      </trkpt>
      <trkpt lat="45.20229" lon="6.0765">
        <ele>1324.36</ele>
        <time>2015-07-19T07:04:13Z</time>
      </trkpt>
      <trkpt lat="45.20204" lon="6.07653">
        <ele>1327.43</ele>
        <time>2015-07-19T07:04:27Z</time>
      </trkpt>
      <trkpt lat="45.20185" lon="6.07671">
        <ele>1330.3</ele>
        <time>2015-07-19T07:04:38Z</time>
      </trkpt>
      <trkpt lat="45.20185" lon="6.07675">
        <ele>1330.44</ele>
        <time>2015-07-19T07:04:39Z</time>
      </trkpt>
      <trkpt lat="45.20185" lon="6.07679">
        <ele>1330.68</ele>
        <time>2015-07-19T07:04:40Z</time>
      </trkpt>
      <trkpt lat="45.20186" lon="6.07683">
        <ele>1330.88</ele>
        <time>2015-07-19T07:04:41Z</time>
      </trkpt>
      <trkpt lat="45.20188" lon="6.07686">
        <ele>1331.01</ele>
        <time>2015-07-19T07:04:42Z</time>
      </trkpt>
      <trkpt lat="45.20189" lon="6.07688">
        <ele>1331.2</ele>
        <time>2015-07-19T07:04:43Z</time>
      </trkpt>
      <trkpt lat="45.2021" lon="6.07708">
        <ele>1334.23</ele>
        <time>2015-07-19T07:04:56Z</time>
      </trkpt>
      <trkpt lat="45.20234" lon="6.0771">
        <ele>1337.4</ele>
        <time>2015-07-19T07:05:10Z</time>
      </trkpt>
      <trkpt lat="45.20263" lon="6.07702">
        <ele>1340.49</ele>
        <time>2015-07-19T07:05:23Z</time>
      </trkpt>
      <trkpt lat="45.20288" lon="6.07692">
        <ele>1343.6</ele>
        <time>2015-07-19T07:05:36Z</time>
      </trkpt>
      <trkpt lat="45.20312" lon="6.07673">
        <ele>1346.77</ele>
        <time>2015-07-19T07:05:50Z</time>
      </trkpt>
      <trkpt lat="45.20337" lon="6.07659">
        <ele>1349.88</ele>
        <time>2015-07-19T07:06:05Z</time>
      </trkpt>
      <trkpt lat="45.20359" lon="6.07642">
        <ele>1353.02</ele>
        <time>2015-07-19T07:06:19Z</time>
      </trkpt>
      <trkpt lat="45.20367" lon="6.07639">
        <ele>1354.03</ele>
        <time>2015-07-19T07:06:23Z</time>
      </trkpt>
      <trkpt lat="45.20368" lon="6.07642">
        <ele>1354.27</ele>
        <time>2015-07-19T07:06:24Z</time>
      </trkpt>
      <trkpt lat="45.20368" lon="6.07644">
        <ele>1354.49</ele>
        <time>2015-07-19T07:06:25Z</time>
      </trkpt>
      <trkpt lat="45.20366" lon="6.07647">
        <ele>1354.68</ele>
        <time>2015-07-19T07:06:26Z</time>
      </trkpt>
      <trkpt lat="45.20365" lon="6.07649">
        <ele>1354.88</ele>
        <time>2015-07-19T07:06:27Z</time>
      </trkpt>
      <trkpt lat="45.20363" lon="6.07651">
        <ele>1355.16</ele>
        <time>2015-07-19T07:06:28Z</time>
      </trkpt>
      <trkpt lat="45.20361" lon="6.07653">
        <ele>1355.29</ele>
        <time>2015-07-19T07:06:29Z</time>
      </trkpt>
      <trkpt lat="45.2034" lon="6.07669">
        <ele>1358.32</ele>
        <time>2015-07-19T07:06:41Z</time>
      </trkpt>
      <trkpt lat="45.20315" lon="6.07691">
        <ele>1361.41</ele>
        <time>2015-07-19T07:06:54Z</time>
      </trkpt>
      <trkpt lat="45.20293" lon="6.07716">
        <ele>1364.44</ele>
        <time>2015-07-19T07:07:07Z</time>
      </trkpt>
      <trkpt lat="45.20264" lon="6.0774">
        <ele>1367.49</ele>
        <time>2015-07-19T07:07:21Z</time>
      </trkpt>
      <trkpt lat="45.20239" lon="6.07764">
        <ele>1370.52</ele>
        <time>2015-07-19T07:07:35Z</time>
      </trkpt>
      <trkpt lat="45.20215" lon="6.07782">
        <ele>1373.68</ele>
        <time>2015-07-19T07:07:48Z</time>
      </trkpt>
      <trkpt lat="45.20189" lon="6.07808">
        <ele>1376.68</ele>
        <time>2015-07-19T07:08:02Z</time>
      </trkpt>
      <trkpt lat="45.20166" lon="6.07831">
        <ele>1379.76</ele>
        <time>2015-07-19T07:08:16Z</time>
      </trkpt>
      <trkpt lat="45.20138" lon="6.07854">
        <ele>1382.99</ele>
        <time>2015-07-19T07:08:32Z</time>
      </trkpt>
      <trkpt lat="45.20141" lon="6.07929">
        <ele>1386.09</ele>
        <time>2015-07-19T07:08:47Z</time>
      </trkpt>
      <trkpt lat="45.20136" lon="6.07979">
        <ele>1389.25</ele>
        <time>2015-07-19T07:09:03Z</time>
      </trkpt>
      <trkpt lat="45.20132" lon="6.08025">
        <ele>1392.49</ele>
        <time>2015-07-19T07:09:18Z</time>
      </trkpt>
      <trkpt lat="45.20121" lon="6.08071">
        <ele>1395.52</ele>
        <time>2015-07-19T07:09:32Z</time>
      </trkpt>
      <trkpt lat="45.20112" lon="6.08125">
        <ele>1398.68</ele>
        <time>2015-07-19T07:09:47Z</time>
      </trkpt>
      <trkpt lat="45.20117" lon="6.08184">
        <ele>1401.95</ele>
        <time>2015-07-19T07:10:02Z</time>
      </trkpt>
      <trkpt lat="45.20124" lon="6.08233">
        <ele>1405.05</ele>
        <time>2015-07-19T07:10:17Z</time>
      </trkpt>
      <trkpt lat="45.20127" lon="6.08282">
        <ele>1408.26</ele>
        <time>2015-07-19T07:10:31Z</time>
      </trkpt>
      <trkpt lat="45.20123" lon="6.0833">
        <ele>1411.39</ele>
        <time>2015-07-19T07:10:45Z</time>
      </trkpt>
      <trkpt lat="45.20108" lon="6.08376">
        <ele>1414.48</ele>
        <time>2015-07-19T07:11:01Z</time>
      </trkpt>
      <trkpt lat="45.20101" lon="6.0842">
        <ele>1417.52</ele>
        <time>2015-07-19T07:11:15Z</time>
      </trkpt>
      <trkpt lat="45.20098" lon="6.08431">
        <ele>1418.1</ele>
        <time>2015-07-19T07:11:18Z</time>
      </trkpt>
      <trkpt lat="45.20107" lon="6.08477">
        <ele>1421.13</ele>
        <time>2015-07-19T07:11:32Z</time>
      </trkpt>
      <trkpt lat="45.20112" lon="6.08494">
        <ele>1422.24</ele>
        <time>2015-07-19T07:11:37Z</time>
      </trkpt>
      <trkpt lat="45.20113" lon="6.08497">
        <ele>1422.46</ele>
        <time>2015-07-19T07:11:38Z</time>
      </trkpt>
      <trkpt lat="45.20128" lon="6.08537">
        <ele>1425.52</ele>
        <time>2015-07-19T07:11:52Z</time>
      </trkpt>
      <trkpt lat="45.20153" lon="6.08575">
        <ele>1428.69</ele>
        <time>2015-07-19T07:12:05Z</time>
      </trkpt>
      <trkpt lat="45.2018" lon="6.08629">
        <ele>1431.16</ele>
        <time>2015-07-19T07:12:21Z</time>
      </trkpt>
      <trkpt lat="45.20217" lon="6.08679">
        <ele>1434.31</ele>
        <time>2015-07-19T07:12:38Z</time>
      </trkpt>
      <trkpt lat="45.20254" lon="6.08731">
        <ele>1437.42</ele>
        <time>2015-07-19T07:12:57Z</time>
      </trkpt>
      <trkpt lat="45.20299" lon="6.08783">
        <ele>1439.81</ele>
        <time>2015-07-19T07:13:13Z</time>
      </trkpt>
      <trkpt lat="45.20336" lon="6.08835">
        <ele>1442.08</ele>
        <time>2015-07-19T07:13:27Z</time>
      </trkpt>
      <trkpt lat="45.20361" lon="6.08902">
        <ele>1444.57</ele>
        <time>2015-07-19T07:13:42Z</time>
      </trkpt>
      <trkpt lat="45.20378" lon="6.0897">
        <ele>1447.19</ele>
        <time>2015-07-19T07:13:57Z</time>
      </trkpt>
      <trkpt lat="45.2037" lon="6.09027">
        <ele>1450.33</ele>
        <time>2015-07-19T07:14:13Z</time>
      </trkpt>
      <trkpt lat="45.2037" lon="6.09081">
        <ele>1453.39</ele>
        <time>2015-07-19T07:14:29Z</time>
      </trkpt>
      <trkpt lat="45.20394" lon="6.09117">
        <ele>1456.48</ele>
        <time>2015-07-19T07:14:44Z</time>
      </trkpt>
      <trkpt lat="45.20402" lon="6.09161">
        <ele>1459.57</ele>
        <time>2015-07-19T07:14:58Z</time>
      </trkpt>
      <trkpt lat="45.20405" lon="6.09174">
        <ele>1460.49</ele>
        <time>2015-07-19T07:15:03Z</time>
      </trkpt>
      <trkpt lat="45.20417" lon="6.09218">
        <ele>1463.56</ele>
        <time>2015-07-19T07:15:18Z</time>
      </trkpt>
      <trkpt lat="45.2043" lon="6.09254">
        <ele>1466.15</ele>
        <time>2015-07-19T07:15:31Z</time>
      </trkpt>
      <trkpt lat="45.20443" lon="6.09283">
        <ele>1469.22</ele>
        <time>2015-07-19T07:15:45Z</time>
      </trkpt>
      <trkpt lat="45.20452" lon="6.09328">
        <ele>1472.29</ele>
        <time>2015-07-19T07:15:59Z</time>
      </trkpt>
      <trkpt lat="45.2046" lon="6.09375">
        <ele>1475.52</ele>
        <time>2015-07-19T07:16:13Z</time>
      </trkpt>
      <trkpt lat="45.20464" lon="6.09412">
        <ele>1478.59</ele>
        <time>2015-07-19T07:16:27Z</time>
      </trkpt>
      <trkpt lat="45.20467" lon="6.09454">
        <ele>1481.64</ele>
        <time>2015-07-19T07:16:41Z</time>
      </trkpt>
      <trkpt lat="45.20466" lon="6.09497">
        <ele>1484.71</ele>
        <time>2015-07-19T07:16:55Z</time>
      </trkpt>
      <trkpt lat="45.20464" lon="6.0954">
        <ele>1487.76</ele>
        <time>2015-07-19T07:17:10Z</time>
      </trkpt>
      <trkpt lat="45.20458" lon="6.09584">
        <ele>1490.91</ele>
        <time>2015-07-19T07:17:26Z</time>
      </trkpt>
      <trkpt lat="45.20453" lon="6.09622">
        <ele>1494</ele>
        <time>2015-07-19T07:17:41Z</time>
      </trkpt>
      <trkpt lat="45.20451" lon="6.09662">
        <ele>1497.05</ele>
        <time>2015-07-19T07:17:56Z</time>
      </trkpt>
      <trkpt lat="45.20457" lon="6.09707">
        <ele>1500.16</ele>
        <time>2015-07-19T07:18:11Z</time>
      </trkpt>
      <trkpt lat="45.20454" lon="6.0975">
        <ele>1503.31</ele>
        <time>2015-07-19T07:18:26Z</time>
      </trkpt>
      <trkpt lat="45.20446" lon="6.09787">
        <ele>1506.4</ele>
        <time>2015-07-19T07:18:40Z</time>
      </trkpt>
      <trkpt lat="45.20434" lon="6.09824">
        <ele>1509.47</ele>
        <time>2015-07-19T07:18:54Z</time>
      </trkpt>
      <trkpt lat="45.2043" lon="6.09866">
        <ele>1512.51</ele>
        <time>2015-07-19T07:19:08Z</time>
      </trkpt>
      <trkpt lat="45.20431" lon="6.09904">
        <ele>1515.64</ele>
        <time>2015-07-19T07:19:22Z</time>
      </trkpt>
      <trkpt lat="45.20437" lon="6.09943">
        <ele>1518.67</ele>
        <time>2015-07-19T07:19:36Z</time>
      </trkpt>
      <trkpt lat="45.20437" lon="6.09995">
        <ele>1521.77</ele>
        <time>2015-07-19T07:19:51Z</time>
      </trkpt>
      <trkpt lat="45.20441" lon="6.10043">
        <ele>1524.88</ele>
        <time>2015-07-19T07:20:06Z</time>
      </trkpt>
      <trkpt lat="45.20445" lon="6.10096">
        <ele>1527.95</ele>
        <time>2015-07-19T07:20:21Z</time>
      </trkpt>
      <trkpt lat="45.20448" lon="6.10146">
        <ele>1531.07</ele>
        <time>2015-07-19T07:20:36Z</time>
      </trkpt>
      <trkpt lat="45.20456" lon="6.10198">
        <ele>1534.13</ele>
        <time>2015-07-19T07:20:51Z</time>
      </trkpt>
      <trkpt lat="45.20474" lon="6.10241">
        <ele>1537.25</ele>
        <time>2015-07-19T07:21:07Z</time>
      </trkpt>
      <trkpt lat="45.20496" lon="6.10283">
        <ele>1540.33</ele>
        <time>2015-07-19T07:21:22Z</time>
      </trkpt>
      <trkpt lat="45.2051" lon="6.10324">
        <ele>1543.44</ele>
        <time>2015-07-19T07:21:35Z</time>
      </trkpt>
      <trkpt lat="45.20527" lon="6.10364">
        <ele>1546.5</ele>
        <time>2015-07-19T07:21:51Z</time>
      </trkpt>
      <trkpt lat="45.20542" lon="6.10412">
        <ele>1549.66</ele>
        <time>2015-07-19T07:22:07Z</time>
      </trkpt>
      <trkpt lat="45.2055" lon="6.1046">
        <ele>1552.71</ele>
        <time>2015-07-19T07:22:22Z</time>
      </trkpt>
      <trkpt lat="45.20563" lon="6.10504">
        <ele>1555.73</ele>
        <time>2015-07-19T07:22:37Z</time>
      </trkpt>
      <trkpt lat="45.20582" lon="6.10552">
        <ele>1558.95</ele>
        <time>2015-07-19T07:22:53Z</time>
      </trkpt>
      <trkpt lat="45.20602" lon="6.10599">
        <ele>1562.17</ele>
        <time>2015-07-19T07:23:09Z</time>
      </trkpt>
      <trkpt lat="45.20618" lon="6.10645">
        <ele>1565.31</ele>
        <time>2015-07-19T07:23:24Z</time>
      </trkpt>
      <trkpt lat="45.20637" lon="6.1069">
        <ele>1568.45</ele>
        <time>2015-07-19T07:23:38Z</time>
      </trkpt>
      <trkpt lat="45.20656" lon="6.10738">
        <ele>1571.6</ele>
        <time>2015-07-19T07:23:54Z</time>
      </trkpt>
      <trkpt lat="45.20668" lon="6.10787">
        <ele>1574.75</ele>
        <time>2015-07-19T07:24:09Z</time>
      </trkpt>
      <trkpt lat="45.20675" lon="6.10856">
        <ele>1577.81</ele>
        <time>2015-07-19T07:24:26Z</time>
      </trkpt>
      <trkpt lat="45.20696" lon="6.10876">
        <ele>1579.87</ele>
        <time>2015-07-19T07:24:41Z</time>
      </trkpt>
      <trkpt lat="45.20681" lon="6.10809">
        <ele>1581.44</ele>
        <time>2015-07-19T07:24:56Z</time>
      </trkpt>
      <trkpt lat="45.20677" lon="6.10744">
        <ele>1583.8</ele>
        <time>2015-07-19T07:25:12Z</time>
      </trkpt>
      <trkpt lat="45.20669" lon="6.10698">
        <ele>1586.94</ele>
        <time>2015-07-19T07:25:25Z</time>
      </trkpt>
      <trkpt lat="45.20663" lon="6.10644">
        <ele>1589.98</ele>
        <time>2015-07-19T07:25:41Z</time>
      </trkpt>
      <trkpt lat="45.20656" lon="6.10589">
        <ele>1593.03</ele>
        <time>2015-07-19T07:25:55Z</time>
      </trkpt>
      <trkpt lat="45.20647" lon="6.10544">
        <ele>1596.11</ele>
        <time>2015-07-19T07:26:09Z</time>
      </trkpt>
      <trkpt lat="45.20626" lon="6.105">
        <ele>1599.27</ele>
        <time>2015-07-19T07:26:23Z</time>
      </trkpt>
      <trkpt lat="45.20616" lon="6.10457">
        <ele>1602.31</ele>
        <time>2015-07-19T07:26:37Z</time>
      </trkpt>
      <trkpt lat="45.20603" lon="6.10411">
        <ele>1605.44</ele>
        <time>2015-07-19T07:26:51Z</time>
      </trkpt>
      <trkpt lat="45.20581" lon="6.10351">
        <ele>1608.13</ele>
        <time>2015-07-19T07:27:09Z</time>
      </trkpt>
      <trkpt lat="45.20571" lon="6.10326">
        <ele>1608.75</ele>
        <time>2015-07-19T07:27:16Z</time>
      </trkpt>
      <trkpt lat="45.20571" lon="6.10322">
        <ele>1608.82</ele>
        <time>2015-07-19T07:27:17Z</time>
      </trkpt>
      <trkpt lat="45.20572" lon="6.10319">
        <ele>1608.98</ele>
        <time>2015-07-19T07:27:18Z</time>
      </trkpt>
      <trkpt lat="45.20574" lon="6.10317">
        <ele>1609.19</ele>
        <time>2015-07-19T07:27:19Z</time>
      </trkpt>
      <trkpt lat="45.20577" lon="6.10317">
        <ele>1609.41</ele>
        <time>2015-07-19T07:27:20Z</time>
      </trkpt>
      <trkpt lat="45.2058" lon="6.10319">
        <ele>1609.61</ele>
        <time>2015-07-19T07:27:21Z</time>
      </trkpt>
      <trkpt lat="45.20582" lon="6.10322">
        <ele>1609.74</ele>
        <time>2015-07-19T07:27:22Z</time>
      </trkpt>
      <trkpt lat="45.20584" lon="6.10326">
        <ele>1609.69</ele>
        <time>2015-07-19T07:27:23Z</time>
      </trkpt>
      <trkpt lat="45.20585" lon="6.10331">
        <ele>1609.56</ele>
        <time>2015-07-19T07:27:24Z</time>
      </trkpt>
      <trkpt lat="45.20585" lon="6.10337">
        <ele>1609.59</ele>
        <time>2015-07-19T07:27:25Z</time>
      </trkpt>
      <trkpt lat="45.20586" lon="6.10342">
        <ele>1609.67</ele>
        <time>2015-07-19T07:27:26Z</time>
      </trkpt>
      <trkpt lat="45.20587" lon="6.10347">
        <ele>1609.74</ele>
        <time>2015-07-19T07:27:27Z</time>
      </trkpt>
      <trkpt lat="45.2061" lon="6.10406">
        <ele>1611.16</ele>
        <time>2015-07-19T07:27:40Z</time>
      </trkpt>
      <trkpt lat="45.2063" lon="6.10468">
        <ele>1613.8</ele>
        <time>2015-07-19T07:27:55Z</time>
      </trkpt>
      <trkpt lat="45.20656" lon="6.10514">
        <ele>1616.93</ele>
        <time>2015-07-19T07:28:10Z</time>
      </trkpt>
      <trkpt lat="45.20682" lon="6.10557">
        <ele>1619.98</ele>
        <time>2015-07-19T07:28:25Z</time>
      </trkpt>
      <trkpt lat="45.20695" lon="6.10603">
        <ele>1623.2</ele>
        <time>2015-07-19T07:28:40Z</time>
      </trkpt>
      <trkpt lat="45.2071" lon="6.10648">
        <ele>1626.41</ele>
        <time>2015-07-19T07:28:55Z</time>
      </trkpt>
      <trkpt lat="45.2073" lon="6.10684">
        <ele>1629.46</ele>
        <time>2015-07-19T07:29:10Z</time>
      </trkpt>
      <trkpt lat="45.20745" lon="6.10731">
        <ele>1632.57</ele>
        <time>2015-07-19T07:29:25Z</time>
      </trkpt>
      <trkpt lat="45.20749" lon="6.10783">
        <ele>1635.77</ele>
        <time>2015-07-19T07:29:39Z</time>
      </trkpt>
      <trkpt lat="45.20763" lon="6.10834">
        <ele>1638.9</ele>
        <time>2015-07-19T07:29:55Z</time>
      </trkpt>
      <trkpt lat="45.20782" lon="6.10887">
        <ele>1642.03</ele>
        <time>2015-07-19T07:30:11Z</time>
      </trkpt>
      <trkpt lat="45.2079" lon="6.10934">
        <ele>1645.12</ele>
        <time>2015-07-19T07:30:25Z</time>
      </trkpt>
      <trkpt lat="45.20781" lon="6.10991">
        <ele>1648.33</ele>
        <time>2015-07-19T07:30:39Z</time>
      </trkpt>
      <trkpt lat="45.20779" lon="6.11061">
        <ele>1651.42</ele>
        <time>2015-07-19T07:30:56Z</time>
      </trkpt>
      <trkpt lat="45.20769" lon="6.11129">
        <ele>1654.19</ele>
        <time>2015-07-19T07:31:11Z</time>
      </trkpt>
      <trkpt lat="45.20773" lon="6.11203">
        <ele>1656.59</ele>
        <time>2015-07-19T07:31:26Z</time>
      </trkpt>
      <trkpt lat="45.20789" lon="6.11268">
        <ele>1659.65</ele>
        <time>2015-07-19T07:31:41Z</time>
      </trkpt>
      <trkpt lat="45.20784" lon="6.11337">
        <ele>1662.33</ele>
        <time>2015-07-19T07:31:55Z</time>
      </trkpt>
      <trkpt lat="45.20795" lon="6.11402">
        <ele>1664.96</ele>
        <time>2015-07-19T07:32:09Z</time>
      </trkpt>
      <trkpt lat="45.20809" lon="6.11472">
        <ele>1667.79</ele>
        <time>2015-07-19T07:32:22Z</time>
      </trkpt>
      <trkpt lat="45.2083" lon="6.11535">
        <ele>1669.91</ele>
        <time>2015-07-19T07:32:37Z</time>
      </trkpt>
      <trkpt lat="45.2084" lon="6.11608">
        <ele>1671.71</ele>
        <time>2015-07-19T07:32:52Z</time>
      </trkpt>
      <trkpt lat="45.20844" lon="6.11683">
        <ele>1672.16</ele>
        <time>2015-07-19T07:33:04Z</time>
      </trkpt>
      <trkpt lat="45.20846" lon="6.11719">
        <ele>1672.1</ele>
        <time>2015-07-19T07:33:09Z</time>
      </trkpt>
      <trkpt lat="45.20847" lon="6.11726">
        <ele>1672.17</ele>
        <time>2015-07-19T07:33:10Z</time>
      </trkpt>
      <trkpt lat="45.20847" lon="6.11734">
        <ele>1672.2</ele>
        <time>2015-07-19T07:33:11Z</time>
      </trkpt>
      <trkpt lat="45.20847" lon="6.11741">
        <ele>1672.12</ele>
        <time>2015-07-19T07:33:12Z</time>
      </trkpt>
      <trkpt lat="45.20847" lon="6.11748">
        <ele>1672.09</ele>
        <time>2015-07-19T07:33:13Z</time>
      </trkpt>
      <trkpt lat="45.20846" lon="6.11756">
        <ele>1672.13</ele>
        <time>2015-07-19T07:33:14Z</time>
      </trkpt>
      <trkpt lat="45.2084" lon="6.11824">
        <ele>1672.54</ele>
        <time>2015-07-19T07:33:23Z</time>
      </trkpt>
      <trkpt lat="45.20841" lon="6.11832">
        <ele>1672.54</ele>
        <time>2015-07-19T07:33:24Z</time>
      </trkpt>
      <trkpt lat="45.20842" lon="6.11841">
        <ele>1672.52</ele>
        <time>2015-07-19T07:33:25Z</time>
      </trkpt>
      <trkpt lat="45.20843" lon="6.11849">
        <ele>1672.54</ele>
        <time>2015-07-19T07:33:26Z</time>
      </trkpt>
      <trkpt lat="45.20845" lon="6.11857">
        <ele>1672.54</ele>
        <time>2015-07-19T07:33:27Z</time>
      </trkpt>
      <trkpt lat="45.20848" lon="6.11864">
        <ele>1672.5</ele>
        <time>2015-07-19T07:33:28Z</time>
      </trkpt>
      <trkpt lat="45.2086" lon="6.11903">
        <ele>1672.16</ele>
        <time>2015-07-19T07:33:33Z</time>
      </trkpt>
      <trkpt lat="45.20861" lon="6.11912">
        <ele>1672.18</ele>
        <time>2015-07-19T07:33:34Z</time>
      </trkpt>
      <trkpt lat="45.20861" lon="6.1192">
        <ele>1672.17</ele>
        <time>2015-07-19T07:33:35Z</time>
      </trkpt>
      <trkpt lat="45.20856" lon="6.11996">
        <ele>1672.5</ele>
        <time>2015-07-19T07:33:44Z</time>
      </trkpt>
      <trkpt lat="45.20864" lon="6.12064">
        <ele>1673.59</ele>
        <time>2015-07-19T07:33:53Z</time>
      </trkpt>
      <trkpt lat="45.2088" lon="6.12129">
        <ele>1675.05</ele>
        <time>2015-07-19T07:34:04Z</time>
      </trkpt>
      <trkpt lat="45.20898" lon="6.12196">
        <ele>1676.87</ele>
        <time>2015-07-19T07:34:16Z</time>
      </trkpt>
      <trkpt lat="45.20924" lon="6.12252">
        <ele>1679.41</ele>
        <time>2015-07-19T07:34:29Z</time>
      </trkpt>
      <trkpt lat="45.20951" lon="6.1231">
        <ele>1681.91</ele>
        <time>2015-07-19T07:34:43Z</time>
      </trkpt>
      <trkpt lat="45.20973" lon="6.12375">
        <ele>1684.43</ele>
        <time>2015-07-19T07:34:56Z</time>
      </trkpt>
      <trkpt lat="45.20992" lon="6.12438">
        <ele>1686.93</ele>
        <time>2015-07-19T07:35:09Z</time>
      </trkpt>
      <trkpt lat="45.2101" lon="6.12503">
        <ele>1689.69</ele>
        <time>2015-07-19T07:35:23Z</time>
      </trkpt>
      <trkpt lat="45.21025" lon="6.12565">
        <ele>1692.61</ele>
        <time>2015-07-19T07:35:37Z</time>
      </trkpt>
      <trkpt lat="45.21045" lon="6.12624">
        <ele>1694.94</ele>
        <time>2015-07-19T07:35:50Z</time>
      </trkpt>
      <trkpt lat="45.21073" lon="6.12681">
        <ele>1697.68</ele>
        <time>2015-07-19T07:36:04Z</time>
      </trkpt>
      <trkpt lat="45.21101" lon="6.12734">
        <ele>1700.4</ele>
        <time>2015-07-19T07:36:17Z</time>
      </trkpt>
      <trkpt lat="45.21143" lon="6.1277">
        <ele>1702.87</ele>
        <time>2015-07-19T07:36:30Z</time>
      </trkpt>
      <trkpt lat="45.21185" lon="6.12802">
        <ele>1705.47</ele>
        <time>2015-07-19T07:36:42Z</time>
      </trkpt>
      <trkpt lat="45.21214" lon="6.12858">
        <ele>1708.27</ele>
        <time>2015-07-19T07:36:56Z</time>
      </trkpt>
      <trkpt lat="45.2125" lon="6.12904">
        <ele>1710.57</ele>
        <time>2015-07-19T07:37:10Z</time>
      </trkpt>
      <trkpt lat="45.21288" lon="6.12945">
        <ele>1712.9</ele>
        <time>2015-07-19T07:37:22Z</time>
      </trkpt>
      <trkpt lat="45.21328" lon="6.12984">
        <ele>1715.51</ele>
        <time>2015-07-19T07:37:36Z</time>
      </trkpt>
      <trkpt lat="45.21371" lon="6.13018">
        <ele>1718.06</ele>
        <time>2015-07-19T07:37:50Z</time>
      </trkpt>
      <trkpt lat="45.21395" lon="6.13035">
        <ele>1719.5</ele>
        <time>2015-07-19T07:37:57Z</time>
      </trkpt>
      <trkpt lat="45.21399" lon="6.13037">
        <ele>1719.75</ele>
        <time>2015-07-19T07:37:58Z</time>
      </trkpt>
      <trkpt lat="45.21438" lon="6.13077">
        <ele>1722.47</ele>
        <time>2015-07-19T07:38:11Z</time>
      </trkpt>
      <trkpt lat="45.21479" lon="6.13122">
        <ele>1725.38</ele>
        <time>2015-07-19T07:38:25Z</time>
      </trkpt>
      <trkpt lat="45.21527" lon="6.13147">
        <ele>1727.79</ele>
        <time>2015-07-19T07:38:38Z</time>
      </trkpt>
      <trkpt lat="45.21572" lon="6.13172">
        <ele>1730.09</ele>
        <time>2015-07-19T07:38:51Z</time>
      </trkpt>
      <trkpt lat="45.21614" lon="6.13203">
        <ele>1732.69</ele>
        <time>2015-07-19T07:39:04Z</time>
      </trkpt>
      <trkpt lat="45.21656" lon="6.13238">
        <ele>1735.62</ele>
        <time>2015-07-19T07:39:17Z</time>
      </trkpt>
      <trkpt lat="45.21697" lon="6.13278">
        <ele>1738.52</ele>
        <time>2015-07-19T07:39:30Z</time>
      </trkpt>
      <trkpt lat="45.21739" lon="6.13319">
        <ele>1740.9</ele>
        <time>2015-07-19T07:39:43Z</time>
      </trkpt>
      <trkpt lat="45.21781" lon="6.13355">
        <ele>1743.25</ele>
        <time>2015-07-19T07:39:55Z</time>
      </trkpt>
      <trkpt lat="45.21826" lon="6.13386">
        <ele>1745.91</ele>
        <time>2015-07-19T07:40:08Z</time>
      </trkpt>
      <trkpt lat="45.2187" lon="6.13423">
        <ele>1748.49</ele>
        <time>2015-07-19T07:40:21Z</time>
      </trkpt>
      <trkpt lat="45.21883" lon="6.13435">
        <ele>1749.32</ele>
        <time>2015-07-19T07:40:25Z</time>
      </trkpt>
      <trkpt lat="45.21925" lon="6.1347">
        <ele>1751.28</ele>
        <time>2015-07-19T07:40:37Z</time>
      </trkpt>
      <trkpt lat="45.21967" lon="6.1351">
        <ele>1753.38</ele>
        <time>2015-07-19T07:40:49Z</time>
      </trkpt>
      <trkpt lat="45.22004" lon="6.13544">
        <ele>1754.49</ele>
        <time>2015-07-19T07:40:59Z</time>
      </trkpt>
      <trkpt lat="45.22016" lon="6.13551">
        <ele>1754.71</ele>
        <time>2015-07-19T07:41:02Z</time>
      </trkpt>
      <trkpt lat="45.22066" lon="6.13577">
        <ele>1755.74</ele>
        <time>2015-07-19T07:41:13Z</time>
      </trkpt>
      <trkpt lat="45.22096" lon="6.13596">
        <ele>1755.9</ele>
        <time>2015-07-19T07:41:19Z</time>
      </trkpt>
      <trkpt lat="45.22143" lon="6.13636">
        <ele>1756.11</ele>
        <time>2015-07-19T07:41:28Z</time>
      </trkpt>
      <trkpt lat="45.22189" lon="6.13666">
        <ele>1755.5</ele>
        <time>2015-07-19T07:41:35Z</time>
      </trkpt>
      <trkpt lat="45.22196" lon="6.13671">
        <ele>1755.24</ele>
        <time>2015-07-19T07:41:36Z</time>
      </trkpt>
      <trkpt lat="45.22203" lon="6.13677">
        <ele>1755.25</ele>
        <time>2015-07-19T07:41:37Z</time>
      </trkpt>
      <trkpt lat="45.2221" lon="6.13684">
        <ele>1755.17</ele>
        <time>2015-07-19T07:41:38Z</time>
      </trkpt>
      <trkpt lat="45.2223" lon="6.13709">
        <ele>1754.71</ele>
        <time>2015-07-19T07:41:41Z</time>
      </trkpt>
      <trkpt lat="45.22236" lon="6.13719">
        <ele>1754.45</ele>
        <time>2015-07-19T07:41:42Z</time>
      </trkpt>
      <trkpt lat="45.22241" lon="6.1373">
        <ele>1754.13</ele>
        <time>2015-07-19T07:41:43Z</time>
      </trkpt>
      <trkpt lat="45.22268" lon="6.13806">
        <ele>1752.01</ele>
        <time>2015-07-19T07:41:49Z</time>
      </trkpt>
      <trkpt lat="45.22289" lon="6.13858">
        <ele>1751.21</ele>
        <time>2015-07-19T07:41:53Z</time>
      </trkpt>
      <trkpt lat="45.22297" lon="6.1387">
        <ele>1751.02</ele>
        <time>2015-07-19T07:41:54Z</time>
      </trkpt>
      <trkpt lat="45.22305" lon="6.13878">
        <ele>1750.85</ele>
        <time>2015-07-19T07:41:55Z</time>
      </trkpt>
      <trkpt lat="45.22314" lon="6.13886">
        <ele>1750.18</ele>
        <time>2015-07-19T07:41:56Z</time>
      </trkpt>
      <trkpt lat="45.22325" lon="6.1389">
        <ele>1749.77</ele>
        <time>2015-07-19T07:41:57Z</time>
      </trkpt>
      <trkpt lat="45.22336" lon="6.1389">
        <ele>1749.23</ele>
        <time>2015-07-19T07:41:58Z</time>
      </trkpt>
      <trkpt lat="45.22347" lon="6.13889">
        <ele>1748.57</ele>
        <time>2015-07-19T07:41:59Z</time>
      </trkpt>
      <trkpt lat="45.22358" lon="6.13884">
        <ele>1747.9</ele>
        <time>2015-07-19T07:42:00Z</time>
      </trkpt>
      <trkpt lat="45.22369" lon="6.13878">
        <ele>1747.68</ele>
        <time>2015-07-19T07:42:01Z</time>
      </trkpt>
      <trkpt lat="45.22379" lon="6.13872">
        <ele>1747.5</ele>
        <time>2015-07-19T07:42:02Z</time>
      </trkpt>
      <trkpt lat="45.22389" lon="6.13866">
        <ele>1747.07</ele>
        <time>2015-07-19T07:42:03Z</time>
      </trkpt>
      <trkpt lat="45.22399" lon="6.13863">
        <ele>1746.39</ele>
        <time>2015-07-19T07:42:04Z</time>
      </trkpt>
      <trkpt lat="45.22411" lon="6.13865">
        <ele>1745.8</ele>
        <time>2015-07-19T07:42:05Z</time>
      </trkpt>
      <trkpt lat="45.22421" lon="6.13871">
        <ele>1744.71</ele>
        <time>2015-07-19T07:42:06Z</time>
      </trkpt>
      <trkpt lat="45.2243" lon="6.1388">
        <ele>1744.14</ele>
        <time>2015-07-19T07:42:07Z</time>
      </trkpt>
      <trkpt lat="45.22438" lon="6.13891">
        <ele>1743.7</ele>
        <time>2015-07-19T07:42:08Z</time>
      </trkpt>
      <trkpt lat="45.22444" lon="6.13904">
        <ele>1743.36</ele>
        <time>2015-07-19T07:42:09Z</time>
      </trkpt>
      <trkpt lat="45.2245" lon="6.13917">
        <ele>1743.15</ele>
        <time>2015-07-19T07:42:10Z</time>
      </trkpt>
      <trkpt lat="45.22479" lon="6.13983">
        <ele>1741.17</ele>
        <time>2015-07-19T07:42:15Z</time>
      </trkpt>
      <trkpt lat="45.22502" lon="6.14055">
        <ele>1737.58</ele>
        <time>2015-07-19T07:42:20Z</time>
      </trkpt>
      <trkpt lat="45.22514" lon="6.14119">
        <ele>1735.15</ele>
        <time>2015-07-19T07:42:24Z</time>
      </trkpt>
      <trkpt lat="45.22533" lon="6.14198">
        <ele>1733.16</ele>
        <time>2015-07-19T07:42:29Z</time>
      </trkpt>
      <trkpt lat="45.22562" lon="6.14279">
        <ele>1729.94</ele>
        <time>2015-07-19T07:42:34Z</time>
      </trkpt>
      <trkpt lat="45.22592" lon="6.14363">
        <ele>1725.97</ele>
        <time>2015-07-19T07:42:39Z</time>
      </trkpt>
      <trkpt lat="45.22609" lon="6.14415">
        <ele>1722.83</ele>
        <time>2015-07-19T07:42:42Z</time>
      </trkpt>
      <trkpt lat="45.2263" lon="6.14486">
        <ele>1720.99</ele>
        <time>2015-07-19T07:42:46Z</time>
      </trkpt>
      <trkpt lat="45.22636" lon="6.14503">
        <ele>1720.71</ele>
        <time>2015-07-19T07:42:47Z</time>
      </trkpt>
      <trkpt lat="45.22651" lon="6.14578">
        <ele>1718.25</ele>
        <time>2015-07-19T07:42:51Z</time>
      </trkpt>
      <trkpt lat="45.22657" lon="6.14651">
        <ele>1715.34</ele>
        <time>2015-07-19T07:42:55Z</time>
      </trkpt>
      <trkpt lat="45.22664" lon="6.14726">
        <ele>1712.71</ele>
        <time>2015-07-19T07:42:59Z</time>
      </trkpt>
      <trkpt lat="45.22668" lon="6.14801">
        <ele>1710.29</ele>
        <time>2015-07-19T07:43:03Z</time>
      </trkpt>
      <trkpt lat="45.22664" lon="6.14858">
        <ele>1706.86</ele>
        <time>2015-07-19T07:43:06Z</time>
      </trkpt>
      <trkpt lat="45.22663" lon="6.14877">
        <ele>1705.9</ele>
        <time>2015-07-19T07:43:07Z</time>
      </trkpt>
      <trkpt lat="45.22663" lon="6.14895">
        <ele>1704.98</ele>
        <time>2015-07-19T07:43:08Z</time>
      </trkpt>
      <trkpt lat="45.22665" lon="6.14913">
        <ele>1704.17</ele>
        <time>2015-07-19T07:43:09Z</time>
      </trkpt>
      <trkpt lat="45.22669" lon="6.14931">
        <ele>1703.57</ele>
        <time>2015-07-19T07:43:10Z</time>
      </trkpt>
      <trkpt lat="45.22675" lon="6.14947">
        <ele>1703.38</ele>
        <time>2015-07-19T07:43:11Z</time>
      </trkpt>
      <trkpt lat="45.22684" lon="6.14961">
        <ele>1702.85</ele>
        <time>2015-07-19T07:43:12Z</time>
      </trkpt>
      <trkpt lat="45.22695" lon="6.14972">
        <ele>1702.25</ele>
        <time>2015-07-19T07:43:13Z</time>
      </trkpt>
      <trkpt lat="45.22706" lon="6.14984">
        <ele>1701.89</ele>
        <time>2015-07-19T07:43:14Z</time>
      </trkpt>
      <trkpt lat="45.22715" lon="6.14998">
        <ele>1700.96</ele>
        <time>2015-07-19T07:43:15Z</time>
      </trkpt>
      <trkpt lat="45.22723" lon="6.15012">
        <ele>1699.97</ele>
        <time>2015-07-19T07:43:16Z</time>
      </trkpt>
      <trkpt lat="45.22729" lon="6.15029">
        <ele>1699.07</ele>
        <time>2015-07-19T07:43:17Z</time>
      </trkpt>
      <trkpt lat="45.22733" lon="6.15047">
        <ele>1698.11</ele>
        <time>2015-07-19T07:43:18Z</time>
      </trkpt>
      <trkpt lat="45.22736" lon="6.15065">
        <ele>1697.34</ele>
        <time>2015-07-19T07:43:19Z</time>
      </trkpt>
      <trkpt lat="45.22737" lon="6.15084">
        <ele>1696.47</ele>
        <time>2015-07-19T07:43:20Z</time>
      </trkpt>
      <trkpt lat="45.22743" lon="6.1512">
        <ele>1695.51</ele>
        <time>2015-07-19T07:43:22Z</time>
      </trkpt>
      <trkpt lat="45.22757" lon="6.15151">
        <ele>1694.64</ele>
        <time>2015-07-19T07:43:24Z</time>
      </trkpt>
      <trkpt lat="45.22768" lon="6.15162">
        <ele>1694.18</ele>
        <time>2015-07-19T07:43:25Z</time>
      </trkpt>
      <trkpt lat="45.22778" lon="6.15174">
        <ele>1693.67</ele>
        <time>2015-07-19T07:43:26Z</time>
      </trkpt>
      <trkpt lat="45.22786" lon="6.15187">
        <ele>1693.05</ele>
        <time>2015-07-19T07:43:27Z</time>
      </trkpt>
      <trkpt lat="45.22791" lon="6.15203">
        <ele>1692.77</ele>
        <time>2015-07-19T07:43:28Z</time>
      </trkpt>
      <trkpt lat="45.22795" lon="6.15219">
        <ele>1692.88</ele>
        <time>2015-07-19T07:43:29Z</time>
      </trkpt>
      <trkpt lat="45.22797" lon="6.15235">
        <ele>1692.82</ele>
        <time>2015-07-19T07:43:30Z</time>
      </trkpt>
      <trkpt lat="45.228" lon="6.1525">
        <ele>1692.78</ele>
        <time>2015-07-19T07:43:31Z</time>
      </trkpt>
      <trkpt lat="45.22803" lon="6.15264">
        <ele>1693.01</ele>
        <time>2015-07-19T07:43:32Z</time>
      </trkpt>
      <trkpt lat="45.22807" lon="6.15277">
        <ele>1693.19</ele>
        <time>2015-07-19T07:43:33Z</time>
      </trkpt>
      <trkpt lat="45.22812" lon="6.15289">
        <ele>1693.35</ele>
        <time>2015-07-19T07:43:34Z</time>
      </trkpt>
      <trkpt lat="45.22817" lon="6.153">
        <ele>1693.86</ele>
        <time>2015-07-19T07:43:35Z</time>
      </trkpt>
      <trkpt lat="45.22837" lon="6.15361">
        <ele>1695.59</ele>
        <time>2015-07-19T07:43:42Z</time>
      </trkpt>
      <trkpt lat="45.22851" lon="6.15417">
        <ele>1698.74</ele>
        <time>2015-07-19T07:43:54Z</time>
      </trkpt>
      <trkpt lat="45.22849" lon="6.15461">
        <ele>1701.89</ele>
        <time>2015-07-19T07:44:06Z</time>
      </trkpt>
      <trkpt lat="45.22842" lon="6.15508">
        <ele>1704.89</ele>
        <time>2015-07-19T07:44:21Z</time>
      </trkpt>
      <trkpt lat="45.22848" lon="6.15551">
        <ele>1708.08</ele>
        <time>2015-07-19T07:44:34Z</time>
      </trkpt>
      <trkpt lat="45.22873" lon="6.15602">
        <ele>1711.12</ele>
        <time>2015-07-19T07:44:50Z</time>
      </trkpt>
      <trkpt lat="45.22896" lon="6.15642">
        <ele>1714.02</ele>
        <time>2015-07-19T07:45:05Z</time>
      </trkpt>
      <trkpt lat="45.2292" lon="6.15683">
        <ele>1716.63</ele>
        <time>2015-07-19T07:45:18Z</time>
      </trkpt>
      <trkpt lat="45.22948" lon="6.15715">
        <ele>1719.22</ele>
        <time>2015-07-19T07:45:31Z</time>
      </trkpt>
      <trkpt lat="45.22969" lon="6.1576">
        <ele>1722.4</ele>
        <time>2015-07-19T07:45:45Z</time>
      </trkpt>
      <trkpt lat="45.22976" lon="6.15804">
        <ele>1725.55</ele>
        <time>2015-07-19T07:45:59Z</time>
      </trkpt>
      <trkpt lat="45.22992" lon="6.15862">
        <ele>1728.74</ele>
        <time>2015-07-19T07:46:16Z</time>
      </trkpt>
      <trkpt lat="45.23015" lon="6.15921">
        <ele>1731.8</ele>
        <time>2015-07-19T07:46:32Z</time>
      </trkpt>
      <trkpt lat="45.23052" lon="6.15956">
        <ele>1734.96</ele>
        <time>2015-07-19T07:46:47Z</time>
      </trkpt>
      <trkpt lat="45.23081" lon="6.16009">
        <ele>1737.58</ele>
        <time>2015-07-19T07:47:02Z</time>
      </trkpt>
      <trkpt lat="45.23115" lon="6.16063">
        <ele>1740.37</ele>
        <time>2015-07-19T07:47:17Z</time>
      </trkpt>
      <trkpt lat="45.23128" lon="6.16106">
        <ele>1743.45</ele>
        <time>2015-07-19T07:47:30Z</time>
      </trkpt>
      <trkpt lat="45.23159" lon="6.1614">
        <ele>1746.51</ele>
        <time>2015-07-19T07:47:45Z</time>
      </trkpt>
      <trkpt lat="45.23175" lon="6.16184">
        <ele>1749.53</ele>
        <time>2015-07-19T07:47:58Z</time>
      </trkpt>
      <trkpt lat="45.23192" lon="6.16232">
        <ele>1752.77</ele>
        <time>2015-07-19T07:48:12Z</time>
      </trkpt>
      <trkpt lat="45.23197" lon="6.16281">
        <ele>1755.81</ele>
        <time>2015-07-19T07:48:25Z</time>
      </trkpt>
      <trkpt lat="45.23209" lon="6.16335">
        <ele>1758.95</ele>
        <time>2015-07-19T07:48:40Z</time>
      </trkpt>
      <trkpt lat="45.23218" lon="6.16383">
        <ele>1762.07</ele>
        <time>2015-07-19T07:48:53Z</time>
      </trkpt>
      <trkpt lat="45.23232" lon="6.16436">
        <ele>1765.31</ele>
        <time>2015-07-19T07:49:09Z</time>
      </trkpt>
      <trkpt lat="45.23251" lon="6.16488">
        <ele>1768.47</ele>
        <time>2015-07-19T07:49:25Z</time>
      </trkpt>
      <trkpt lat="45.23264" lon="6.16543">
        <ele>1771.48</ele>
        <time>2015-07-19T07:49:40Z</time>
      </trkpt>
      <trkpt lat="45.23279" lon="6.1659">
        <ele>1774.49</ele>
        <time>2015-07-19T07:49:54Z</time>
      </trkpt>
      <trkpt lat="45.23303" lon="6.16654">
        <ele>1777.65</ele>
        <time>2015-07-19T07:50:10Z</time>
      </trkpt>
      <trkpt lat="45.23309" lon="6.16721">
        <ele>1780.87</ele>
        <time>2015-07-19T07:50:25Z</time>
      </trkpt>
      <trkpt lat="45.23325" lon="6.16772">
        <ele>1783.93</ele>
        <time>2015-07-19T07:50:40Z</time>
      </trkpt>
      <trkpt lat="45.23348" lon="6.16822">
        <ele>1786.94</ele>
        <time>2015-07-19T07:50:55Z</time>
      </trkpt>
      <trkpt lat="45.23358" lon="6.16867">
        <ele>1790.13</ele>
        <time>2015-07-19T07:51:08Z</time>
      </trkpt>
      <trkpt lat="45.23376" lon="6.16916">
        <ele>1793.24</ele>
        <time>2015-07-19T07:51:22Z</time>
      </trkpt>
      <trkpt lat="45.23394" lon="6.16957">
        <ele>1796.33</ele>
        <time>2015-07-19T07:51:35Z</time>
      </trkpt>
      <trkpt lat="45.23415" lon="6.17018">
        <ele>1799.31</ele>
        <time>2015-07-19T07:51:51Z</time>
      </trkpt>
      <trkpt lat="45.23427" lon="6.17076">
        <ele>1802.5</ele>
        <time>2015-07-19T07:52:05Z</time>
      </trkpt>
      <trkpt lat="45.23441" lon="6.17118">
        <ele>1805.7</ele>
        <time>2015-07-19T07:52:18Z</time>
      </trkpt>
      <trkpt lat="45.23462" lon="6.1716">
        <ele>1808.72</ele>
        <time>2015-07-19T07:52:33Z</time>
      </trkpt>
      <trkpt lat="45.2348" lon="6.17197">
        <ele>1811.85</ele>
        <time>2015-07-19T07:52:46Z</time>
      </trkpt>
      <trkpt lat="45.23513" lon="6.1723">
        <ele>1814.93</ele>
        <time>2015-07-19T07:53:02Z</time>
      </trkpt>
      <trkpt lat="45.23556" lon="6.1726">
        <ele>1817.63</ele>
        <time>2015-07-19T07:53:18Z</time>
      </trkpt>
      <trkpt lat="45.23583" lon="6.17303">
        <ele>1820.69</ele>
        <time>2015-07-19T07:53:33Z</time>
      </trkpt>
      <trkpt lat="45.23601" lon="6.17341">
        <ele>1823.71</ele>
        <time>2015-07-19T07:53:46Z</time>
      </trkpt>
      <trkpt lat="45.23631" lon="6.1736">
        <ele>1826.84</ele>
        <time>2015-07-19T07:54:00Z</time>
      </trkpt>
      <trkpt lat="45.23649" lon="6.17404">
        <ele>1830</ele>
        <time>2015-07-19T07:54:14Z</time>
      </trkpt>
      <trkpt lat="45.23661" lon="6.17445">
        <ele>1833.09</ele>
        <time>2015-07-19T07:54:28Z</time>
      </trkpt>
      <trkpt lat="45.23685" lon="6.17474">
        <ele>1836.33</ele>
        <time>2015-07-19T07:54:42Z</time>
      </trkpt>
      <trkpt lat="45.23712" lon="6.17484">
        <ele>1839.34</ele>
        <time>2015-07-19T07:54:55Z</time>
      </trkpt>
      <trkpt lat="45.23736" lon="6.17503">
        <ele>1842.55</ele>
        <time>2015-07-19T07:55:08Z</time>
      </trkpt>
      <trkpt lat="45.23764" lon="6.17521">
        <ele>1845.62</ele>
        <time>2015-07-19T07:55:22Z</time>
      </trkpt>
      <trkpt lat="45.23805" lon="6.17541">
        <ele>1848.83</ele>
        <time>2015-07-19T07:55:38Z</time>
      </trkpt>
      <trkpt lat="45.23839" lon="6.17566">
        <ele>1852.06</ele>
        <time>2015-07-19T07:55:54Z</time>
      </trkpt>
      <trkpt lat="45.23847" lon="6.17614">
        <ele>1855.24</ele>
        <time>2015-07-19T07:56:08Z</time>
      </trkpt>
      <trkpt lat="45.23852" lon="6.17664">
        <ele>1858.27</ele>
        <time>2015-07-19T07:56:21Z</time>
      </trkpt>
      <trkpt lat="45.23868" lon="6.17711">
        <ele>1861.31</ele>
        <time>2015-07-19T07:56:35Z</time>
      </trkpt>
      <trkpt lat="45.23867" lon="6.17766">
        <ele>1864.34</ele>
        <time>2015-07-19T07:56:49Z</time>
      </trkpt>
      <trkpt lat="45.23874" lon="6.17787">
        <ele>1865.69</ele>
        <time>2015-07-19T07:57:04Z</time>
      </trkpt>
      <trkpt lat="45.2387" lon="6.17788">
        <ele>1865.64</ele>
        <time>2015-07-19T07:57:33Z</time>
      </trkpt>
      <trkpt lat="45.23873" lon="6.1779">
        <ele>1865.71</ele>
        <time>2015-07-19T07:57:45Z</time>
      </trkpt>
      <trkpt lat="45.23871" lon="6.17791">
        <ele>1865.81</ele>
        <time>2015-07-19T07:57:50Z</time>
      </trkpt>
      <trkpt lat="45.23869" lon="6.17787">
        <ele>1865.58</ele>
        <time>2015-07-19T07:57:51Z</time>
      </trkpt>
      <trkpt lat="45.23868" lon="6.17781">
        <ele>1865.63</ele>
        <time>2015-07-19T07:57:52Z</time>
      </trkpt>
      <trkpt lat="45.23865" lon="6.17754">
        <ele>1865.79</ele>
        <time>2015-07-19T07:57:55Z</time>
      </trkpt>
      <trkpt lat="45.23867" lon="6.17741">
        <ele>1865.77</ele>
        <time>2015-07-19T07:57:56Z</time>
      </trkpt>
      <trkpt lat="45.23866" lon="6.17728">
        <ele>1865.71</ele>
        <time>2015-07-19T07:57:57Z</time>
      </trkpt>
      <trkpt lat="45.23864" lon="6.17713">
        <ele>1865.65</ele>
        <time>2015-07-19T07:57:58Z</time>
      </trkpt>
      <trkpt lat="45.23861" lon="6.17699">
        <ele>1865.69</ele>
        <time>2015-07-19T07:57:59Z</time>
      </trkpt>
      <trkpt lat="45.23857" lon="6.17686">
        <ele>1865.76</ele>
        <time>2015-07-19T07:58:00Z</time>
      </trkpt>
      <trkpt lat="45.23853" lon="6.17672">
        <ele>1865.2</ele>
        <time>2015-07-19T07:58:01Z</time>
      </trkpt>
      <trkpt lat="45.23849" lon="6.17657">
        <ele>1864.56</ele>
        <time>2015-07-19T07:58:02Z</time>
      </trkpt>
      <trkpt lat="45.23847" lon="6.17642">
        <ele>1863.87</ele>
        <time>2015-07-19T07:58:03Z</time>
      </trkpt>
      <trkpt lat="45.23845" lon="6.17628">
        <ele>1862.86</ele>
        <time>2015-07-19T07:58:04Z</time>
      </trkpt>
      <trkpt lat="45.23845" lon="6.17613">
        <ele>1862</ele>
        <time>2015-07-19T07:58:05Z</time>
      </trkpt>
      <trkpt lat="45.23841" lon="6.17571">
        <ele>1858.06</ele>
        <time>2015-07-19T07:58:08Z</time>
      </trkpt>
      <trkpt lat="45.23837" lon="6.17558">
        <ele>1857.36</ele>
        <time>2015-07-19T07:58:09Z</time>
      </trkpt>
      <trkpt lat="45.23832" lon="6.17545">
        <ele>1856.88</ele>
        <time>2015-07-19T07:58:10Z</time>
      </trkpt>
      <trkpt lat="45.23825" lon="6.17535">
        <ele>1856.47</ele>
        <time>2015-07-19T07:58:11Z</time>
      </trkpt>
      <trkpt lat="45.23814" lon="6.17528">
        <ele>1855.87</ele>
        <time>2015-07-19T07:58:12Z</time>
      </trkpt>
      <trkpt lat="45.23804" lon="6.17522">
        <ele>1855.4</ele>
        <time>2015-07-19T07:58:13Z</time>
      </trkpt>
      <trkpt lat="45.23793" lon="6.17517">
        <ele>1854.92</ele>
        <time>2015-07-19T07:58:14Z</time>
      </trkpt>
      <trkpt lat="45.2378" lon="6.17513">
        <ele>1854.15</ele>
        <time>2015-07-19T07:58:15Z</time>
      </trkpt>
      <trkpt lat="45.23766" lon="6.17509">
        <ele>1853.18</ele>
        <time>2015-07-19T07:58:16Z</time>
      </trkpt>
      <trkpt lat="45.23737" lon="6.17499">
        <ele>1852.37</ele>
        <time>2015-07-19T07:58:18Z</time>
      </trkpt>
      <trkpt lat="45.23712" lon="6.17484">
        <ele>1849.9</ele>
        <time>2015-07-19T07:58:20Z</time>
      </trkpt>
      <trkpt lat="45.23686" lon="6.1747">
        <ele>1846.43</ele>
        <time>2015-07-19T07:58:22Z</time>
      </trkpt>
      <trkpt lat="45.23675" lon="6.1746">
        <ele>1845.37</ele>
        <time>2015-07-19T07:58:23Z</time>
      </trkpt>
      <trkpt lat="45.23665" lon="6.17447">
        <ele>1844.53</ele>
        <time>2015-07-19T07:58:24Z</time>
      </trkpt>
      <trkpt lat="45.23657" lon="6.17433">
        <ele>1843.35</ele>
        <time>2015-07-19T07:58:25Z</time>
      </trkpt>
      <trkpt lat="45.23652" lon="6.17417">
        <ele>1841.13</ele>
        <time>2015-07-19T07:58:26Z</time>
      </trkpt>
      <trkpt lat="45.23647" lon="6.17402">
        <ele>1839.74</ele>
        <time>2015-07-19T07:58:27Z</time>
      </trkpt>
      <trkpt lat="45.23644" lon="6.17387">
        <ele>1838.48</ele>
        <time>2015-07-19T07:58:28Z</time>
      </trkpt>
      <trkpt lat="45.23634" lon="6.17357">
        <ele>1835.08</ele>
        <time>2015-07-19T07:58:30Z</time>
      </trkpt>
      <trkpt lat="45.23618" lon="6.17334">
        <ele>1833.06</ele>
        <time>2015-07-19T07:58:32Z</time>
      </trkpt>
      <trkpt lat="45.23608" lon="6.17324">
        <ele>1832.42</ele>
        <time>2015-07-19T07:58:33Z</time>
      </trkpt>
      <trkpt lat="45.23567" lon="6.17256">
        <ele>1828.29</ele>
        <time>2015-07-19T07:58:38Z</time>
      </trkpt>
      <trkpt lat="45.23558" lon="6.17244">
        <ele>1826.88</ele>
        <time>2015-07-19T07:58:39Z</time>
      </trkpt>
      <trkpt lat="45.23548" lon="6.17233">
        <ele>1825.53</ele>
        <time>2015-07-19T07:58:40Z</time>
      </trkpt>
      <trkpt lat="45.23537" lon="6.17224">
        <ele>1824.03</ele>
        <time>2015-07-19T07:58:41Z</time>
      </trkpt>
      <trkpt lat="45.23527" lon="6.17216">
        <ele>1823.04</ele>
        <time>2015-07-19T07:58:42Z</time>
      </trkpt>
      <trkpt lat="45.23516" lon="6.1721">
        <ele>1822.14</ele>
        <time>2015-07-19T07:58:43Z</time>
      </trkpt>
      <trkpt lat="45.23505" lon="6.17206">
        <ele>1820.79</ele>
        <time>2015-07-19T07:58:44Z</time>
      </trkpt>
      <trkpt lat="45.23496" lon="6.172">
        <ele>1819.5</ele>
        <time>2015-07-19T07:58:45Z</time>
      </trkpt>
      <trkpt lat="45.23487" lon="6.17192">
        <ele>1818.99</ele>
        <time>2015-07-19T07:58:46Z</time>
      </trkpt>
      <trkpt lat="45.2348" lon="6.17182">
        <ele>1818.44</ele>
        <time>2015-07-19T07:58:47Z</time>
      </trkpt>
      <trkpt lat="45.23473" lon="6.17171">
        <ele>1817.93</ele>
        <time>2015-07-19T07:58:48Z</time>
      </trkpt>
      <trkpt lat="45.23467" lon="6.17158">
        <ele>1817.34</ele>
        <time>2015-07-19T07:58:49Z</time>
      </trkpt>
      <trkpt lat="45.23438" lon="6.17089">
        <ele>1815.29</ele>
        <time>2015-07-19T07:58:54Z</time>
      </trkpt>
      <trkpt lat="45.23424" lon="6.17041">
        <ele>1811.79</ele>
        <time>2015-07-19T07:58:57Z</time>
      </trkpt>
      <trkpt lat="45.23407" lon="6.16975">
        <ele>1808.21</ele>
        <time>2015-07-19T07:59:01Z</time>
      </trkpt>
      <trkpt lat="45.23399" lon="6.16961">
        <ele>1807.01</ele>
        <time>2015-07-19T07:59:02Z</time>
      </trkpt>
      <trkpt lat="45.23391" lon="6.16948">
        <ele>1806.05</ele>
        <time>2015-07-19T07:59:03Z</time>
      </trkpt>
      <trkpt lat="45.23369" lon="6.16905">
        <ele>1803.74</ele>
        <time>2015-07-19T07:59:06Z</time>
      </trkpt>
      <trkpt lat="45.23353" lon="6.16857">
        <ele>1800.17</ele>
        <time>2015-07-19T07:59:09Z</time>
      </trkpt>
      <trkpt lat="45.23346" lon="6.16823">
        <ele>1797.74</ele>
        <time>2015-07-19T07:59:11Z</time>
      </trkpt>
      <trkpt lat="45.2334" lon="6.16806">
        <ele>1796.67</ele>
        <time>2015-07-19T07:59:12Z</time>
      </trkpt>
      <trkpt lat="45.23317" lon="6.16739">
        <ele>1793.89</ele>
        <time>2015-07-19T07:59:16Z</time>
      </trkpt>
      <trkpt lat="45.23305" lon="6.16688">
        <ele>1790.68</ele>
        <time>2015-07-19T07:59:19Z</time>
      </trkpt>
      <trkpt lat="45.23303" lon="6.16671">
        <ele>1789.43</ele>
        <time>2015-07-19T07:59:20Z</time>
      </trkpt>
      <trkpt lat="45.233" lon="6.16653">
        <ele>1788.13</ele>
        <time>2015-07-19T07:59:21Z</time>
      </trkpt>
      <trkpt lat="45.23297" lon="6.16636">
        <ele>1787.58</ele>
        <time>2015-07-19T07:59:22Z</time>
      </trkpt>
      <trkpt lat="45.23293" lon="6.16619">
        <ele>1787.28</ele>
        <time>2015-07-19T07:59:23Z</time>
      </trkpt>
      <trkpt lat="45.23287" lon="6.16604">
        <ele>1786.67</ele>
        <time>2015-07-19T07:59:24Z</time>
      </trkpt>
      <trkpt lat="45.23281" lon="6.16589">
        <ele>1785.49</ele>
        <time>2015-07-19T07:59:25Z</time>
      </trkpt>
      <trkpt lat="45.23266" lon="6.16541">
        <ele>1782.29</ele>
        <time>2015-07-19T07:59:28Z</time>
      </trkpt>
      <trkpt lat="45.23249" lon="6.16475">
        <ele>1778.93</ele>
        <time>2015-07-19T07:59:32Z</time>
      </trkpt>
      <trkpt lat="45.23228" lon="6.1641">
        <ele>1775.14</ele>
        <time>2015-07-19T07:59:36Z</time>
      </trkpt>
      <trkpt lat="45.23214" lon="6.16358">
        <ele>1772.13</ele>
        <time>2015-07-19T07:59:39Z</time>
      </trkpt>
      <trkpt lat="45.23205" lon="6.16305">
        <ele>1768.7</ele>
        <time>2015-07-19T07:59:42Z</time>
      </trkpt>
      <trkpt lat="45.23198" lon="6.1627">
        <ele>1765.61</ele>
        <time>2015-07-19T07:59:44Z</time>
      </trkpt>
      <trkpt lat="45.23188" lon="6.16216">
        <ele>1762.32</ele>
        <time>2015-07-19T07:59:47Z</time>
      </trkpt>
      <trkpt lat="45.23171" lon="6.16166">
        <ele>1759.6</ele>
        <time>2015-07-19T07:59:50Z</time>
      </trkpt>
      <trkpt lat="45.23156" lon="6.16137">
        <ele>1756.66</ele>
        <time>2015-07-19T07:59:52Z</time>
      </trkpt>
      <trkpt lat="45.23147" lon="6.16124">
        <ele>1755.5</ele>
        <time>2015-07-19T07:59:53Z</time>
      </trkpt>
      <trkpt lat="45.23137" lon="6.16112">
        <ele>1753.9</ele>
        <time>2015-07-19T07:59:54Z</time>
      </trkpt>
      <trkpt lat="45.23127" lon="6.16099">
        <ele>1752.38</ele>
        <time>2015-07-19T07:59:55Z</time>
      </trkpt>
      <trkpt lat="45.23119" lon="6.16084">
        <ele>1751.09</ele>
        <time>2015-07-19T07:59:56Z</time>
      </trkpt>
      <trkpt lat="45.23112" lon="6.16068">
        <ele>1750.21</ele>
        <time>2015-07-19T07:59:57Z</time>
      </trkpt>
      <trkpt lat="45.23088" lon="6.16023">
        <ele>1746.83</ele>
        <time>2015-07-19T08:00:00Z</time>
      </trkpt>
      <trkpt lat="45.23072" lon="6.15993">
        <ele>1745.28</ele>
        <time>2015-07-19T08:00:02Z</time>
      </trkpt>
      <trkpt lat="45.23065" lon="6.15977">
        <ele>1744.78</ele>
        <time>2015-07-19T08:00:03Z</time>
      </trkpt>
      <trkpt lat="45.23058" lon="6.15963">
        <ele>1743.93</ele>
        <time>2015-07-19T08:00:04Z</time>
      </trkpt>
      <trkpt lat="45.23049" lon="6.1595">
        <ele>1743.12</ele>
        <time>2015-07-19T08:00:05Z</time>
      </trkpt>
      <trkpt lat="45.23039" lon="6.15939">
        <ele>1742.39</ele>
        <time>2015-07-19T08:00:06Z</time>
      </trkpt>
      <trkpt lat="45.23017" lon="6.1592">
        <ele>1742.39</ele>
        <time>2015-07-19T08:00:08Z</time>
      </trkpt>
      <trkpt lat="45.23008" lon="6.15907">
        <ele>1741.63</ele>
        <time>2015-07-19T08:00:09Z</time>
      </trkpt>
      <trkpt lat="45.23001" lon="6.15893">
        <ele>1741.04</ele>
        <time>2015-07-19T08:00:10Z</time>
      </trkpt>
      <trkpt lat="45.22995" lon="6.15878">
        <ele>1738.76</ele>
        <time>2015-07-19T08:00:11Z</time>
      </trkpt>
      <trkpt lat="45.22974" lon="6.15817">
        <ele>1734.97</ele>
        <time>2015-07-19T08:00:15Z</time>
      </trkpt>
      <trkpt lat="45.2297" lon="6.15802">
        <ele>1734.04</ele>
        <time>2015-07-19T08:00:16Z</time>
      </trkpt>
      <trkpt lat="45.22968" lon="6.15785">
        <ele>1733.37</ele>
        <time>2015-07-19T08:00:17Z</time>
      </trkpt>
      <trkpt lat="45.22965" lon="6.15769">
        <ele>1732.65</ele>
        <time>2015-07-19T08:00:18Z</time>
      </trkpt>
      <trkpt lat="45.22942" lon="6.15709">
        <ele>1729.46</ele>
        <time>2015-07-19T08:00:22Z</time>
      </trkpt>
      <trkpt lat="45.22933" lon="6.15696">
        <ele>1728.82</ele>
        <time>2015-07-19T08:00:23Z</time>
      </trkpt>
      <trkpt lat="45.22907" lon="6.15657">
        <ele>1725.03</ele>
        <time>2015-07-19T08:00:26Z</time>
      </trkpt>
      <trkpt lat="45.22874" lon="6.15601">
        <ele>1721.68</ele>
        <time>2015-07-19T08:00:30Z</time>
      </trkpt>
      <trkpt lat="45.22852" lon="6.15558">
        <ele>1718.41</ele>
        <time>2015-07-19T08:00:33Z</time>
      </trkpt>
      <trkpt lat="45.2284" lon="6.1553">
        <ele>1714.85</ele>
        <time>2015-07-19T08:00:35Z</time>
      </trkpt>
      <trkpt lat="45.22837" lon="6.15514">
        <ele>1713.65</ele>
        <time>2015-07-19T08:00:36Z</time>
      </trkpt>
      <trkpt lat="45.22836" lon="6.15501">
        <ele>1712.7</ele>
        <time>2015-07-19T08:00:37Z</time>
      </trkpt>
      <trkpt lat="45.22837" lon="6.15487">
        <ele>1711.48</ele>
        <time>2015-07-19T08:00:38Z</time>
      </trkpt>
      <trkpt lat="45.22838" lon="6.15471">
        <ele>1710.54</ele>
        <time>2015-07-19T08:00:39Z</time>
      </trkpt>
      <trkpt lat="45.22842" lon="6.15456">
        <ele>1709.32</ele>
        <time>2015-07-19T08:00:40Z</time>
      </trkpt>
      <trkpt lat="45.22845" lon="6.15439">
        <ele>1708.62</ele>
        <time>2015-07-19T08:00:41Z</time>
      </trkpt>
      <trkpt lat="45.22846" lon="6.15421">
        <ele>1708.21</ele>
        <time>2015-07-19T08:00:42Z</time>
      </trkpt>
      <trkpt lat="45.22845" lon="6.15404">
        <ele>1707.39</ele>
        <time>2015-07-19T08:00:43Z</time>
      </trkpt>
      <trkpt lat="45.22842" lon="6.15387">
        <ele>1706.35</ele>
        <time>2015-07-19T08:00:44Z</time>
      </trkpt>
      <trkpt lat="45.22824" lon="6.15317">
        <ele>1703.78</ele>
        <time>2015-07-19T08:00:48Z</time>
      </trkpt>
      <trkpt lat="45.22799" lon="6.15251">
        <ele>1700.48</ele>
        <time>2015-07-19T08:00:52Z</time>
      </trkpt>
      <trkpt lat="45.22795" lon="6.15233">
        <ele>1699.74</ele>
        <time>2015-07-19T08:00:53Z</time>
      </trkpt>
      <trkpt lat="45.22781" lon="6.15167">
        <ele>1696.73</ele>
        <time>2015-07-19T08:00:57Z</time>
      </trkpt>
      <trkpt lat="45.22774" lon="6.15154">
        <ele>1696.33</ele>
        <time>2015-07-19T08:00:58Z</time>
      </trkpt>
      <trkpt lat="45.22766" lon="6.15143">
        <ele>1696.07</ele>
        <time>2015-07-19T08:00:59Z</time>
      </trkpt>
      <trkpt lat="45.22732" lon="6.15082">
        <ele>1694.61</ele>
        <time>2015-07-19T08:01:05Z</time>
      </trkpt>
      <trkpt lat="45.22733" lon="6.15069">
        <ele>1694.51</ele>
        <time>2015-07-19T08:01:06Z</time>
      </trkpt>
      <trkpt lat="45.22729" lon="6.15015">
        <ele>1694.81</ele>
        <time>2015-07-19T08:01:13Z</time>
      </trkpt>
      <trkpt lat="45.22728" lon="6.15009">
        <ele>1694.92</ele>
        <time>2015-07-19T08:01:14Z</time>
      </trkpt>
      <trkpt lat="45.22726" lon="6.15003">
        <ele>1695.05</ele>
        <time>2015-07-19T08:01:15Z</time>
      </trkpt>
      <trkpt lat="45.22696" lon="6.14956">
        <ele>1697.77</ele>
        <time>2015-07-19T08:01:27Z</time>
      </trkpt>
      <trkpt lat="45.22668" lon="6.14905">
        <ele>1700.43</ele>
        <time>2015-07-19T08:01:39Z</time>
      </trkpt>
      <trkpt lat="45.22668" lon="6.149">
        <ele>1700.61</ele>
        <time>2015-07-19T08:01:40Z</time>
      </trkpt>
      <trkpt lat="45.2267" lon="6.1483">
        <ele>1703.25</ele>
        <time>2015-07-19T08:01:55Z</time>
      </trkpt>
      <trkpt lat="45.22671" lon="6.1476">
        <ele>1705.91</ele>
        <time>2015-07-19T08:02:10Z</time>
      </trkpt>
      <trkpt lat="45.22666" lon="6.14693">
        <ele>1708.51</ele>
        <time>2015-07-19T08:02:24Z</time>
      </trkpt>
      <trkpt lat="45.22661" lon="6.14623">
        <ele>1710.73</ele>
        <time>2015-07-19T08:02:39Z</time>
      </trkpt>
      <trkpt lat="45.22654" lon="6.14557">
        <ele>1713.32</ele>
        <time>2015-07-19T08:02:53Z</time>
      </trkpt>
      <trkpt lat="45.2264" lon="6.1449">
        <ele>1715.82</ele>
        <time>2015-07-19T08:03:08Z</time>
      </trkpt>
      <trkpt lat="45.22619" lon="6.14429">
        <ele>1718.15</ele>
        <time>2015-07-19T08:03:23Z</time>
      </trkpt>
      <trkpt lat="45.22601" lon="6.14366">
        <ele>1720.77</ele>
        <time>2015-07-19T08:03:39Z</time>
      </trkpt>
      <trkpt lat="45.22577" lon="6.14307">
        <ele>1723.08</ele>
        <time>2015-07-19T08:03:55Z</time>
      </trkpt>
      <trkpt lat="45.22551" lon="6.14249">
        <ele>1725.77</ele>
        <time>2015-07-19T08:04:10Z</time>
      </trkpt>
      <trkpt lat="45.22528" lon="6.14187">
        <ele>1728.65</ele>
        <time>2015-07-19T08:04:25Z</time>
      </trkpt>
      <trkpt lat="45.22514" lon="6.14127">
        <ele>1730.77</ele>
        <time>2015-07-19T08:04:39Z</time>
      </trkpt>
      <trkpt lat="45.22503" lon="6.14062">
        <ele>1733.24</ele>
        <time>2015-07-19T08:04:53Z</time>
      </trkpt>
      <trkpt lat="45.22485" lon="6.14002">
        <ele>1735.56</ele>
        <time>2015-07-19T08:05:07Z</time>
      </trkpt>
      <trkpt lat="45.22458" lon="6.13945">
        <ele>1737.84</ele>
        <time>2015-07-19T08:05:22Z</time>
      </trkpt>
      <trkpt lat="45.22429" lon="6.13889">
        <ele>1740.18</ele>
        <time>2015-07-19T08:05:37Z</time>
      </trkpt>
      <trkpt lat="45.2239" lon="6.13858">
        <ele>1742.32</ele>
        <time>2015-07-19T08:05:51Z</time>
      </trkpt>
      <trkpt lat="45.22349" lon="6.13877">
        <ele>1744.34</ele>
        <time>2015-07-19T08:06:04Z</time>
      </trkpt>
      <trkpt lat="45.22305" lon="6.13863">
        <ele>1746.5</ele>
        <time>2015-07-19T08:06:16Z</time>
      </trkpt>
      <trkpt lat="45.22272" lon="6.13812">
        <ele>1748.73</ele>
        <time>2015-07-19T08:06:30Z</time>
      </trkpt>
      <trkpt lat="45.22247" lon="6.13752">
        <ele>1750.9</ele>
        <time>2015-07-19T08:06:43Z</time>
      </trkpt>
      <trkpt lat="45.22231" lon="6.13711">
        <ele>1752.37</ele>
        <time>2015-07-19T08:06:51Z</time>
      </trkpt>
      <trkpt lat="45.22225" lon="6.13702">
        <ele>1752.65</ele>
        <time>2015-07-19T08:06:53Z</time>
      </trkpt>
      <trkpt lat="45.22203" lon="6.13679">
        <ele>1753.49</ele>
        <time>2015-07-19T08:06:59Z</time>
      </trkpt>
      <trkpt lat="45.22166" lon="6.13657">
        <ele>1755.28</ele>
        <time>2015-07-19T08:07:08Z</time>
      </trkpt>
      <trkpt lat="45.22121" lon="6.13626">
        <ele>1755.98</ele>
        <time>2015-07-19T08:07:19Z</time>
      </trkpt>
      <trkpt lat="45.22076" lon="6.13588">
        <ele>1757.01</ele>
        <time>2015-07-19T08:07:30Z</time>
      </trkpt>
      <trkpt lat="45.22031" lon="6.13561">
        <ele>1757.21</ele>
        <time>2015-07-19T08:07:40Z</time>
      </trkpt>
      <trkpt lat="45.21985" lon="6.13525">
        <ele>1756.39</ele>
        <time>2015-07-19T08:07:48Z</time>
      </trkpt>
      <trkpt lat="45.21944" lon="6.13486">
        <ele>1756</ele>
        <time>2015-07-19T08:07:55Z</time>
      </trkpt>
      <trkpt lat="45.219" lon="6.13438">
        <ele>1753.95</ele>
        <time>2015-07-19T08:08:02Z</time>
      </trkpt>
      <trkpt lat="45.21854" lon="6.13399">
        <ele>1751.76</ele>
        <time>2015-07-19T08:08:08Z</time>
      </trkpt>
      <trkpt lat="45.218" lon="6.1336">
        <ele>1750.22</ele>
        <time>2015-07-19T08:08:14Z</time>
      </trkpt>
      <trkpt lat="45.21754" lon="6.13324">
        <ele>1747.6</ele>
        <time>2015-07-19T08:08:19Z</time>
      </trkpt>
      <trkpt lat="45.21708" lon="6.13282">
        <ele>1745.06</ele>
        <time>2015-07-19T08:08:24Z</time>
      </trkpt>
      <trkpt lat="45.21669" lon="6.13245">
        <ele>1742.67</ele>
        <time>2015-07-19T08:08:28Z</time>
      </trkpt>
      <trkpt lat="45.21619" lon="6.13202">
        <ele>1740.15</ele>
        <time>2015-07-19T08:08:33Z</time>
      </trkpt>
      <trkpt lat="45.21574" lon="6.13172">
        <ele>1736.92</ele>
        <time>2015-07-19T08:08:37Z</time>
      </trkpt>
      <trkpt lat="45.21522" lon="6.13139">
        <ele>1733.36</ele>
        <time>2015-07-19T08:08:42Z</time>
      </trkpt>
      <trkpt lat="45.21463" lon="6.13111">
        <ele>1730.7</ele>
        <time>2015-07-19T08:08:47Z</time>
      </trkpt>
      <trkpt lat="45.21441" lon="6.13096">
        <ele>1729.49</ele>
        <time>2015-07-19T08:08:49Z</time>
      </trkpt>
      <trkpt lat="45.21431" lon="6.13087">
        <ele>1728.82</ele>
        <time>2015-07-19T08:08:50Z</time>
      </trkpt>
      <trkpt lat="45.21383" lon="6.13034">
        <ele>1725.58</ele>
        <time>2015-07-19T08:08:55Z</time>
      </trkpt>
      <trkpt lat="45.21332" lon="6.12989">
        <ele>1722.81</ele>
        <time>2015-07-19T08:09:00Z</time>
      </trkpt>
      <trkpt lat="45.21295" lon="6.12946">
        <ele>1719.78</ele>
        <time>2015-07-19T08:09:04Z</time>
      </trkpt>
      <trkpt lat="45.21247" lon="6.12893">
        <ele>1716.62</ele>
        <time>2015-07-19T08:09:09Z</time>
      </trkpt>
      <trkpt lat="45.21212" lon="6.12847">
        <ele>1714.35</ele>
        <time>2015-07-19T08:09:13Z</time>
      </trkpt>
      <trkpt lat="45.21205" lon="6.12835">
        <ele>1713.83</ele>
        <time>2015-07-19T08:09:14Z</time>
      </trkpt>
      <trkpt lat="45.21199" lon="6.12821">
        <ele>1713.35</ele>
        <time>2015-07-19T08:09:15Z</time>
      </trkpt>
      <trkpt lat="45.21185" lon="6.12794">
        <ele>1711.65</ele>
        <time>2015-07-19T08:09:17Z</time>
      </trkpt>
      <trkpt lat="45.21178" lon="6.12781">
        <ele>1710.86</ele>
        <time>2015-07-19T08:09:18Z</time>
      </trkpt>
      <trkpt lat="45.21168" lon="6.12771">
        <ele>1710.39</ele>
        <time>2015-07-19T08:09:19Z</time>
      </trkpt>
      <trkpt lat="45.21158" lon="6.12763">
        <ele>1710.19</ele>
        <time>2015-07-19T08:09:20Z</time>
      </trkpt>
      <trkpt lat="45.21147" lon="6.12758">
        <ele>1709.92</ele>
        <time>2015-07-19T08:09:21Z</time>
      </trkpt>
      <trkpt lat="45.21136" lon="6.12752">
        <ele>1709.61</ele>
        <time>2015-07-19T08:09:22Z</time>
      </trkpt>
      <trkpt lat="45.21125" lon="6.12745">
        <ele>1709.37</ele>
        <time>2015-07-19T08:09:23Z</time>
      </trkpt>
      <trkpt lat="45.21116" lon="6.12737">
        <ele>1709.16</ele>
        <time>2015-07-19T08:09:24Z</time>
      </trkpt>
      <trkpt lat="45.21107" lon="6.12726">
        <ele>1709</ele>
        <time>2015-07-19T08:09:25Z</time>
      </trkpt>
      <trkpt lat="45.211" lon="6.12715">
        <ele>1708.61</ele>
        <time>2015-07-19T08:09:26Z</time>
      </trkpt>
      <trkpt lat="45.21093" lon="6.12702">
        <ele>1708.01</ele>
        <time>2015-07-19T08:09:27Z</time>
      </trkpt>
      <trkpt lat="45.21065" lon="6.12649">
        <ele>1704.7</ele>
        <time>2015-07-19T08:09:31Z</time>
      </trkpt>
      <trkpt lat="45.21058" lon="6.12636">
        <ele>1704.52</ele>
        <time>2015-07-19T08:09:32Z</time>
      </trkpt>
      <trkpt lat="45.21028" lon="6.12567">
        <ele>1702.26</ele>
        <time>2015-07-19T08:09:37Z</time>
      </trkpt>
      <trkpt lat="45.21013" lon="6.12508">
        <ele>1699.2</ele>
        <time>2015-07-19T08:09:41Z</time>
      </trkpt>
      <trkpt lat="45.21002" lon="6.12461">
        <ele>1695.91</ele>
        <time>2015-07-19T08:09:44Z</time>
      </trkpt>
      <trkpt lat="45.20978" lon="6.12386">
        <ele>1693</ele>
        <time>2015-07-19T08:09:49Z</time>
      </trkpt>
      <trkpt lat="45.20956" lon="6.12329">
        <ele>1689.78</ele>
        <time>2015-07-19T08:09:53Z</time>
      </trkpt>
      <trkpt lat="45.20926" lon="6.1226">
        <ele>1686.76</ele>
        <time>2015-07-19T08:09:58Z</time>
      </trkpt>
      <trkpt lat="45.20897" lon="6.12191">
        <ele>1683.25</ele>
        <time>2015-07-19T08:10:03Z</time>
      </trkpt>
      <trkpt lat="45.20892" lon="6.12176">
        <ele>1682.92</ele>
        <time>2015-07-19T08:10:04Z</time>
      </trkpt>
      <trkpt lat="45.20872" lon="6.121">
        <ele>1680.68</ele>
        <time>2015-07-19T08:10:09Z</time>
      </trkpt>
      <trkpt lat="45.20858" lon="6.12026">
        <ele>1678.48</ele>
        <time>2015-07-19T08:10:14Z</time>
      </trkpt>
      <trkpt lat="45.20855" lon="6.11995">
        <ele>1677.21</ele>
        <time>2015-07-19T08:10:16Z</time>
      </trkpt>
      <trkpt lat="45.20855" lon="6.1198">
        <ele>1676.92</ele>
        <time>2015-07-19T08:10:17Z</time>
      </trkpt>
      <trkpt lat="45.20859" lon="6.11894">
        <ele>1675.57</ele>
        <time>2015-07-19T08:10:23Z</time>
      </trkpt>
      <trkpt lat="45.2085" lon="6.11858">
        <ele>1675.82</ele>
        <time>2015-07-19T08:10:26Z</time>
      </trkpt>
      <trkpt lat="45.20843" lon="6.11834">
        <ele>1675.67</ele>
        <time>2015-07-19T08:10:28Z</time>
      </trkpt>
      <trkpt lat="45.20842" lon="6.11821">
        <ele>1675.7</ele>
        <time>2015-07-19T08:10:29Z</time>
      </trkpt>
      <trkpt lat="45.20841" lon="6.11809">
        <ele>1675.73</ele>
        <time>2015-07-19T08:10:30Z</time>
      </trkpt>
      <trkpt lat="45.20842" lon="6.11797">
        <ele>1675.75</ele>
        <time>2015-07-19T08:10:31Z</time>
      </trkpt>
      <trkpt lat="45.20843" lon="6.11784">
        <ele>1675.77</ele>
        <time>2015-07-19T08:10:32Z</time>
      </trkpt>
      <trkpt lat="45.20848" lon="6.11703">
        <ele>1675.38</ele>
        <time>2015-07-19T08:10:39Z</time>
      </trkpt>
      <trkpt lat="45.20844" lon="6.11629">
        <ele>1675.88</ele>
        <time>2015-07-19T08:10:46Z</time>
      </trkpt>
      <trkpt lat="45.20836" lon="6.11557">
        <ele>1674.24</ele>
        <time>2015-07-19T08:10:53Z</time>
      </trkpt>
      <trkpt lat="45.20826" lon="6.11515">
        <ele>1673.64</ele>
        <time>2015-07-19T08:10:57Z</time>
      </trkpt>
      <trkpt lat="45.20805" lon="6.11456">
        <ele>1672.43</ele>
        <time>2015-07-19T08:11:02Z</time>
      </trkpt>
      <trkpt lat="45.20802" lon="6.11443">
        <ele>1672.11</ele>
        <time>2015-07-19T08:11:03Z</time>
      </trkpt>
      <trkpt lat="45.208" lon="6.11429">
        <ele>1671.64</ele>
        <time>2015-07-19T08:11:04Z</time>
      </trkpt>
      <trkpt lat="45.20797" lon="6.11415">
        <ele>1671.06</ele>
        <time>2015-07-19T08:11:05Z</time>
      </trkpt>
      <trkpt lat="45.20794" lon="6.11402">
        <ele>1670.52</ele>
        <time>2015-07-19T08:11:06Z</time>
      </trkpt>
      <trkpt lat="45.2079" lon="6.11389">
        <ele>1670.2</ele>
        <time>2015-07-19T08:11:07Z</time>
      </trkpt>
      <trkpt lat="45.20786" lon="6.11376">
        <ele>1669.97</ele>
        <time>2015-07-19T08:11:08Z</time>
      </trkpt>
      <trkpt lat="45.20774" lon="6.11311">
        <ele>1666.81</ele>
        <time>2015-07-19T08:11:13Z</time>
      </trkpt>
      <trkpt lat="45.20772" lon="6.11264">
        <ele>1665.57</ele>
        <time>2015-07-19T08:11:16Z</time>
      </trkpt>
      <trkpt lat="45.2077" lon="6.11248">
        <ele>1665.36</ele>
        <time>2015-07-19T08:11:17Z</time>
      </trkpt>
      <trkpt lat="45.20758" lon="6.1117">
        <ele>1663.64</ele>
        <time>2015-07-19T08:11:22Z</time>
      </trkpt>
      <trkpt lat="45.20758" lon="6.11155">
        <ele>1663.21</ele>
        <time>2015-07-19T08:11:23Z</time>
      </trkpt>
      <trkpt lat="45.20759" lon="6.11139">
        <ele>1662.63</ele>
        <time>2015-07-19T08:11:24Z</time>
      </trkpt>
      <trkpt lat="45.20762" lon="6.11123">
        <ele>1661.74</ele>
        <time>2015-07-19T08:11:25Z</time>
      </trkpt>
      <trkpt lat="45.20764" lon="6.11108">
        <ele>1660.9</ele>
        <time>2015-07-19T08:11:26Z</time>
      </trkpt>
      <trkpt lat="45.20767" lon="6.11028">
        <ele>1658.89</ele>
        <time>2015-07-19T08:11:31Z</time>
      </trkpt>
      <trkpt lat="45.20772" lon="6.10963">
        <ele>1654.91</ele>
        <time>2015-07-19T08:11:35Z</time>
      </trkpt>
      <trkpt lat="45.20775" lon="6.10909">
        <ele>1651.39</ele>
        <time>2015-07-19T08:11:38Z</time>
      </trkpt>
      <trkpt lat="45.2077" lon="6.10874">
        <ele>1650</ele>
        <time>2015-07-19T08:11:40Z</time>
      </trkpt>
      <trkpt lat="45.20765" lon="6.10857">
        <ele>1649.05</ele>
        <time>2015-07-19T08:11:41Z</time>
      </trkpt>
      <trkpt lat="45.20759" lon="6.10841">
        <ele>1648.16</ele>
        <time>2015-07-19T08:11:42Z</time>
      </trkpt>
      <trkpt lat="45.2075" lon="6.10826">
        <ele>1647.08</ele>
        <time>2015-07-19T08:11:43Z</time>
      </trkpt>
      <trkpt lat="45.20743" lon="6.10811">
        <ele>1646.3</ele>
        <time>2015-07-19T08:11:44Z</time>
      </trkpt>
      <trkpt lat="45.20739" lon="6.10795">
        <ele>1645.1</ele>
        <time>2015-07-19T08:11:45Z</time>
      </trkpt>
      <trkpt lat="45.20736" lon="6.10777">
        <ele>1643.95</ele>
        <time>2015-07-19T08:11:46Z</time>
      </trkpt>
      <trkpt lat="45.20724" lon="6.10704">
        <ele>1640.56</ele>
        <time>2015-07-19T08:11:50Z</time>
      </trkpt>
      <trkpt lat="45.20702" lon="6.10651">
        <ele>1637.2</ele>
        <time>2015-07-19T08:11:53Z</time>
      </trkpt>
      <trkpt lat="45.20683" lon="6.10598">
        <ele>1633.51</ele>
        <time>2015-07-19T08:11:56Z</time>
      </trkpt>
      <trkpt lat="45.20669" lon="6.10548">
        <ele>1628.56</ele>
        <time>2015-07-19T08:11:59Z</time>
      </trkpt>
      <trkpt lat="45.20635" lon="6.10489">
        <ele>1624.74</ele>
        <time>2015-07-19T08:12:03Z</time>
      </trkpt>
      <trkpt lat="45.20617" lon="6.10461">
        <ele>1623.02</ele>
        <time>2015-07-19T08:12:05Z</time>
      </trkpt>
      <trkpt lat="45.2061" lon="6.10446">
        <ele>1620.98</ele>
        <time>2015-07-19T08:12:06Z</time>
      </trkpt>
      <trkpt lat="45.20605" lon="6.10429">
        <ele>1619.88</ele>
        <time>2015-07-19T08:12:07Z</time>
      </trkpt>
      <trkpt lat="45.20574" lon="6.10358">
        <ele>1616.93</ele>
        <time>2015-07-19T08:12:12Z</time>
      </trkpt>
      <trkpt lat="45.20567" lon="6.10336">
        <ele>1615.07</ele>
        <time>2015-07-19T08:12:14Z</time>
      </trkpt>
      <trkpt lat="45.20565" lon="6.10325">
        <ele>1614.48</ele>
        <time>2015-07-19T08:12:15Z</time>
      </trkpt>
      <trkpt lat="45.20565" lon="6.10314">
        <ele>1613.96</ele>
        <time>2015-07-19T08:12:16Z</time>
      </trkpt>
      <trkpt lat="45.20564" lon="6.10305">
        <ele>1613.51</ele>
        <time>2015-07-19T08:12:17Z</time>
      </trkpt>
      <trkpt lat="45.20562" lon="6.10297">
        <ele>1612.81</ele>
        <time>2015-07-19T08:12:18Z</time>
      </trkpt>
      <trkpt lat="45.20561" lon="6.10291">
        <ele>1612.02</ele>
        <time>2015-07-19T08:12:19Z</time>
      </trkpt>
      <trkpt lat="45.20552" lon="6.10294">
        <ele>1611.55</ele>
        <time>2015-07-19T08:12:20Z</time>
      </trkpt>
      <trkpt lat="45.20547" lon="6.10298">
        <ele>1611.11</ele>
        <time>2015-07-19T08:12:21Z</time>
      </trkpt>
      <trkpt lat="45.20545" lon="6.10306">
        <ele>1610.94</ele>
        <time>2015-07-19T08:12:22Z</time>
      </trkpt>
      <trkpt lat="45.20545" lon="6.10314">
        <ele>1610.91</ele>
        <time>2015-07-19T08:12:23Z</time>
      </trkpt>
      <trkpt lat="45.20557" lon="6.1033">
        <ele>1610.86</ele>
        <time>2015-07-19T08:12:24Z</time>
      </trkpt>
      <trkpt lat="45.20565" lon="6.10342">
        <ele>1610.73</ele>
        <time>2015-07-19T08:12:25Z</time>
      </trkpt>
      <trkpt lat="45.2057" lon="6.10349">
        <ele>1610.55</ele>
        <time>2015-07-19T08:12:26Z</time>
      </trkpt>
      <trkpt lat="45.20575" lon="6.10357">
        <ele>1610.2</ele>
        <time>2015-07-19T08:12:27Z</time>
      </trkpt>
      <trkpt lat="45.20598" lon="6.10399">
        <ele>1609.33</ele>
        <time>2015-07-19T08:12:32Z</time>
      </trkpt>
      <trkpt lat="45.20601" lon="6.10412">
        <ele>1608.59</ele>
        <time>2015-07-19T08:12:33Z</time>
      </trkpt>
      <trkpt lat="45.20617" lon="6.10482">
        <ele>1606.57</ele>
        <time>2015-07-19T08:12:38Z</time>
      </trkpt>
      <trkpt lat="45.20639" lon="6.10542">
        <ele>1603.97</ele>
        <time>2015-07-19T08:12:42Z</time>
      </trkpt>
      <trkpt lat="45.2065" lon="6.10612">
        <ele>1600.47</ele>
        <time>2015-07-19T08:12:46Z</time>
      </trkpt>
      <trkpt lat="45.20657" lon="6.10669">
        <ele>1596.58</ele>
        <time>2015-07-19T08:12:49Z</time>
      </trkpt>
      <trkpt lat="45.20664" lon="6.10708">
        <ele>1593.46</ele>
        <time>2015-07-19T08:12:51Z</time>
      </trkpt>
      <trkpt lat="45.20666" lon="6.10729">
        <ele>1591.95</ele>
        <time>2015-07-19T08:12:52Z</time>
      </trkpt>
      <trkpt lat="45.20672" lon="6.10794">
        <ele>1589.86</ele>
        <time>2015-07-19T08:12:55Z</time>
      </trkpt>
      <trkpt lat="45.20676" lon="6.10813">
        <ele>1589.39</ele>
        <time>2015-07-19T08:12:56Z</time>
      </trkpt>
      <trkpt lat="45.20686" lon="6.10861">
        <ele>1585.29</ele>
        <time>2015-07-19T08:12:59Z</time>
      </trkpt>
      <trkpt lat="45.20685" lon="6.10877">
        <ele>1583.88</ele>
        <time>2015-07-19T08:13:00Z</time>
      </trkpt>
      <trkpt lat="45.20681" lon="6.10888">
        <ele>1582.97</ele>
        <time>2015-07-19T08:13:01Z</time>
      </trkpt>
      <trkpt lat="45.20676" lon="6.10895">
        <ele>1582.38</ele>
        <time>2015-07-19T08:13:02Z</time>
      </trkpt>
      <trkpt lat="45.20671" lon="6.10896">
        <ele>1581.57</ele>
        <time>2015-07-19T08:13:03Z</time>
      </trkpt>
      <trkpt lat="45.20666" lon="6.10891">
        <ele>1581.22</ele>
        <time>2015-07-19T08:13:04Z</time>
      </trkpt>
      <trkpt lat="45.20664" lon="6.10881">
        <ele>1580.95</ele>
        <time>2015-07-19T08:13:05Z</time>
      </trkpt>
      <trkpt lat="45.20663" lon="6.10871">
        <ele>1580.73</ele>
        <time>2015-07-19T08:13:06Z</time>
      </trkpt>
      <trkpt lat="45.20662" lon="6.10849">
        <ele>1580.45</ele>
        <time>2015-07-19T08:13:08Z</time>
      </trkpt>
      <trkpt lat="45.20662" lon="6.10838">
        <ele>1580.39</ele>
        <time>2015-07-19T08:13:09Z</time>
      </trkpt>
      <trkpt lat="45.20661" lon="6.10827">
        <ele>1580.35</ele>
        <time>2015-07-19T08:13:10Z</time>
      </trkpt>
      <trkpt lat="45.20659" lon="6.10815">
        <ele>1580.17</ele>
        <time>2015-07-19T08:13:11Z</time>
      </trkpt>
      <trkpt lat="45.20656" lon="6.10803">
        <ele>1580.01</ele>
        <time>2015-07-19T08:13:12Z</time>
      </trkpt>
      <trkpt lat="45.20653" lon="6.1079">
        <ele>1579.75</ele>
        <time>2015-07-19T08:13:13Z</time>
      </trkpt>
      <trkpt lat="45.20633" lon="6.10721">
        <ele>1576.9</ele>
        <time>2015-07-19T08:13:18Z</time>
      </trkpt>
      <trkpt lat="45.20601" lon="6.10649">
        <ele>1574.48</ele>
        <time>2015-07-19T08:13:23Z</time>
      </trkpt>
      <trkpt lat="45.20573" lon="6.10583">
        <ele>1570.77</ele>
        <time>2015-07-19T08:13:27Z</time>
      </trkpt>
      <trkpt lat="45.20545" lon="6.10514">
        <ele>1567.44</ele>
        <time>2015-07-19T08:13:31Z</time>
      </trkpt>
      <trkpt lat="45.20527" lon="6.10461">
        <ele>1564.26</ele>
        <time>2015-07-19T08:13:34Z</time>
      </trkpt>
      <trkpt lat="45.20517" lon="6.10423">
        <ele>1561.05</ele>
        <time>2015-07-19T08:13:36Z</time>
      </trkpt>
      <trkpt lat="45.20495" lon="6.10345">
        <ele>1557.88</ele>
        <time>2015-07-19T08:13:40Z</time>
      </trkpt>
      <trkpt lat="45.20468" lon="6.10271">
        <ele>1553.84</ele>
        <time>2015-07-19T08:13:44Z</time>
      </trkpt>
      <trkpt lat="45.20452" lon="6.10236">
        <ele>1550.55</ele>
        <time>2015-07-19T08:13:46Z</time>
      </trkpt>
      <trkpt lat="45.20437" lon="6.10201">
        <ele>1547.46</ele>
        <time>2015-07-19T08:13:48Z</time>
      </trkpt>
      <trkpt lat="45.20418" lon="6.10147">
        <ele>1543.91</ele>
        <time>2015-07-19T08:13:51Z</time>
      </trkpt>
      <trkpt lat="45.20398" lon="6.10096">
        <ele>1539.56</ele>
        <time>2015-07-19T08:13:54Z</time>
      </trkpt>
      <trkpt lat="45.20379" lon="6.10044">
        <ele>1535.66</ele>
        <time>2015-07-19T08:13:57Z</time>
      </trkpt>
      <trkpt lat="45.20373" lon="6.10026">
        <ele>1532.12</ele>
        <time>2015-07-19T08:13:58Z</time>
      </trkpt>
      <trkpt lat="45.20187" lon="6.09459">
        <ele>1486.3</ele>
        <time>2015-07-19T08:14:29Z</time>
      </trkpt>
      <trkpt lat="45.20175" lon="6.09441">
        <ele>1485.15</ele>
        <time>2015-07-19T08:14:30Z</time>
      </trkpt>
      <trkpt lat="45.20154" lon="6.09402">
        <ele>1481.33</ele>
        <time>2015-07-19T08:14:32Z</time>
      </trkpt>
      <trkpt lat="45.20134" lon="6.09362">
        <ele>1478.11</ele>
        <time>2015-07-19T08:14:34Z</time>
      </trkpt>
      <trkpt lat="45.20099" lon="6.09307">
        <ele>1474.32</ele>
        <time>2015-07-19T08:14:37Z</time>
      </trkpt>
      <trkpt lat="45.2008" lon="6.0927">
        <ele>1470.9</ele>
        <time>2015-07-19T08:14:39Z</time>
      </trkpt>
      <trkpt lat="45.20051" lon="6.09221">
        <ele>1467.33</ele>
        <time>2015-07-19T08:14:42Z</time>
      </trkpt>
      <trkpt lat="45.20032" lon="6.09192">
        <ele>1464.13</ele>
        <time>2015-07-19T08:14:44Z</time>
      </trkpt>
      <trkpt lat="45.20031" lon="6.09156">
        <ele>1460.16</ele>
        <time>2015-07-19T08:14:46Z</time>
      </trkpt>
      <trkpt lat="45.20035" lon="6.09137">
        <ele>1458.7</ele>
        <time>2015-07-19T08:14:47Z</time>
      </trkpt>
      <trkpt lat="45.20029" lon="6.09077">
        <ele>1454.89</ele>
        <time>2015-07-19T08:14:51Z</time>
      </trkpt>
      <trkpt lat="45.2002" lon="6.09007">
        <ele>1451.37</ele>
        <time>2015-07-19T08:14:55Z</time>
      </trkpt>
      <trkpt lat="45.20013" lon="6.08971">
        <ele>1449.02</ele>
        <time>2015-07-19T08:14:57Z</time>
      </trkpt>
      <trkpt lat="45.20013" lon="6.08971">
        <ele>1429.04</ele>
        <time>2015-07-19T08:15:27Z</time>
      </trkpt>
      <trkpt lat="45.20013" lon="6.08971">
        <ele>1425.81</ele>
        <time>2015-07-19T08:15:29Z</time>
      </trkpt>
      <trkpt lat="45.20013" lon="6.08971">
        <ele>1422.66</ele>
        <time>2015-07-19T08:15:34Z</time>
      </trkpt>
      <trkpt lat="45.20013" lon="6.08971">
        <ele>1419.1</ele>
        <time>2015-07-19T08:15:37Z</time>
      </trkpt>
      <trkpt lat="45.20013" lon="6.08971">
        <ele>1415.38</ele>
        <time>2015-07-19T08:15:41Z</time>
      </trkpt>
      <trkpt lat="45.20013" lon="6.08971">
        <ele>1412.06</ele>
        <time>2015-07-19T08:15:44Z</time>
      </trkpt>
      <trkpt lat="45.20013" lon="6.08971">
        <ele>1408.42</ele>
        <time>2015-07-19T08:15:46Z</time>
      </trkpt>
      <trkpt lat="45.20013" lon="6.08971">
        <ele>1404.96</ele>
        <time>2015-07-19T08:15:49Z</time>
      </trkpt>
      <trkpt lat="45.20013" lon="6.08971">
        <ele>1401.3</ele>
        <time>2015-07-19T08:15:52Z</time>
      </trkpt>
      <trkpt lat="45.20013" lon="6.08971">
        <ele>1397.66</ele>
        <time>2015-07-19T08:15:55Z</time>
      </trkpt>
      <trkpt lat="45.20013" lon="6.08971">
        <ele>1394.06</ele>
        <time>2015-07-19T08:15:58Z</time>
      </trkpt>
      <trkpt lat="45.20013" lon="6.08971">
        <ele>1389.63</ele>
        <time>2015-07-19T08:16:01Z</time>
      </trkpt>
      <trkpt lat="45.20013" lon="6.08971">
        <ele>1386.3</ele>
        <time>2015-07-19T08:16:05Z</time>
      </trkpt>
      <trkpt lat="45.20013" lon="6.08971">
        <ele>1383.24</ele>
        <time>2015-07-19T08:16:09Z</time>
      </trkpt>
      <trkpt lat="45.20013" lon="6.08971">
        <ele>1379.44</ele>
        <time>2015-07-19T08:16:12Z</time>
      </trkpt>
      <trkpt lat="45.20013" lon="6.08971">
        <ele>1376</ele>
        <time>2015-07-19T08:16:15Z</time>
      </trkpt>
      <trkpt lat="45.20013" lon="6.08971">
        <ele>1372.59</ele>
        <time>2015-07-19T08:16:18Z</time>
      </trkpt>
      <trkpt lat="45.20013" lon="6.08971">
        <ele>1368.36</ele>
        <time>2015-07-19T08:16:21Z</time>
      </trkpt>
      <trkpt lat="45.20013" lon="6.08971">
        <ele>1364.69</ele>
        <time>2015-07-19T08:16:23Z</time>
      </trkpt>
      <trkpt lat="45.20013" lon="6.08971">
        <ele>1361.53</ele>
        <time>2015-07-19T08:16:25Z</time>
      </trkpt>
      <trkpt lat="45.20013" lon="6.08971">
        <ele>1358.11</ele>
        <time>2015-07-19T08:16:29Z</time>
      </trkpt>
      <trkpt lat="45.20013" lon="6.08971">
        <ele>1354.92</ele>
        <time>2015-07-19T08:16:37Z</time>
      </trkpt>
      <trkpt lat="45.20013" lon="6.08971">
        <ele>1351.71</ele>
        <time>2015-07-19T08:16:41Z</time>
      </trkpt>
      <trkpt lat="45.20013" lon="6.08971">
        <ele>1347.31</ele>
        <time>2015-07-19T08:16:44Z</time>
      </trkpt>
      <trkpt lat="45.20013" lon="6.08971">
        <ele>1343.46</ele>
        <time>2015-07-19T08:16:46Z</time>
      </trkpt>
      <trkpt lat="45.20013" lon="6.08971">
        <ele>1340.18</ele>
        <time>2015-07-19T08:16:48Z</time>
      </trkpt>
      <trkpt lat="45.20013" lon="6.08971">
        <ele>1337.17</ele>
        <time>2015-07-19T08:16:50Z</time>
      </trkpt>
      <trkpt lat="45.20013" lon="6.08971">
        <ele>1334.04</ele>
        <time>2015-07-19T08:16:53Z</time>
      </trkpt>
      <trkpt lat="45.20013" lon="6.08971">
        <ele>1333.25</ele>
        <time>2015-07-19T08:16:55Z</time>
      </trkpt>
      <trkpt lat="45.20013" lon="6.08971">
        <ele>1329.81</ele>
        <time>2015-07-19T08:17:01Z</time>
      </trkpt>
      <trkpt lat="45.20013" lon="6.08971">
        <ele>1326.22</ele>
        <time>2015-07-19T08:17:04Z</time>
      </trkpt>
      <trkpt lat="45.20013" lon="6.08971">
        <ele>1323.22</ele>
        <time>2015-07-19T08:17:06Z</time>
      </trkpt>
      <trkpt lat="45.20013" lon="6.08971">
        <ele>1320.05</ele>
        <time>2015-07-19T08:17:08Z</time>
      </trkpt>
      <trkpt lat="45.20013" lon="6.08971">
        <ele>1315.45</ele>
        <time>2015-07-19T08:17:11Z</time>
      </trkpt>
      <trkpt lat="45.20013" lon="6.08971">
        <ele>1311.78</ele>
        <time>2015-07-19T08:17:13Z</time>
      </trkpt>
      <trkpt lat="45.20013" lon="6.08971">
        <ele>1308.44</ele>
        <time>2015-07-19T08:17:15Z</time>
      </trkpt>
      <trkpt lat="45.20013" lon="6.08971">
        <ele>1304.04</ele>
        <time>2015-07-19T08:17:18Z</time>
      </trkpt>
      <trkpt lat="45.20013" lon="6.08971">
        <ele>1300</ele>
        <time>2015-07-19T08:17:21Z</time>
      </trkpt>
      <trkpt lat="45.20013" lon="6.08971">
        <ele>1296.98</ele>
        <time>2015-07-19T08:17:23Z</time>
      </trkpt>
      <trkpt lat="45.20013" lon="6.08971">
        <ele>1293.68</ele>
        <time>2015-07-19T08:17:25Z</time>
      </trkpt>
      <trkpt lat="45.20013" lon="6.08971">
        <ele>1290.47</ele>
        <time>2015-07-19T08:17:27Z</time>
      </trkpt>
      <trkpt lat="45.20013" lon="6.08971">
        <ele>1286.69</ele>
        <time>2015-07-19T08:17:30Z</time>
      </trkpt>
      <trkpt lat="45.20013" lon="6.08971">
        <ele>1285.37</ele>
        <time>2015-07-19T08:17:33Z</time>
      </trkpt>
      <trkpt lat="45.20013" lon="6.08971">
        <ele>1288.62</ele>
        <time>2015-07-19T08:18:02Z</time>
      </trkpt>
      <trkpt lat="45.20013" lon="6.08971">
        <ele>1285.21</ele>
        <time>2015-07-19T08:18:32Z</time>
      </trkpt>
      <trkpt lat="45.20013" lon="6.08971">
        <ele>1281.96</ele>
        <time>2015-07-19T08:18:34Z</time>
      </trkpt>
      <trkpt lat="45.20013" lon="6.08971">
        <ele>1277.92</ele>
        <time>2015-07-19T08:18:37Z</time>
      </trkpt>
      <trkpt lat="45.20013" lon="6.08971">
        <ele>1273.86</ele>
        <time>2015-07-19T08:18:40Z</time>
      </trkpt>
      <trkpt lat="45.20013" lon="6.08971">
        <ele>1269.74</ele>
        <time>2015-07-19T08:18:43Z</time>
      </trkpt>
      <trkpt lat="45.20013" lon="6.08971">
        <ele>1265.45</ele>
        <time>2015-07-19T08:18:46Z</time>
      </trkpt>
      <trkpt lat="45.20013" lon="6.08971">
        <ele>1261.57</ele>
        <time>2015-07-19T08:18:48Z</time>
      </trkpt>
      <trkpt lat="45.20013" lon="6.08971">
        <ele>1258.57</ele>
        <time>2015-07-19T08:18:50Z</time>
      </trkpt>
      <trkpt lat="45.20013" lon="6.08971">
        <ele>1254.56</ele>
        <time>2015-07-19T08:18:53Z</time>
      </trkpt>
      <trkpt lat="45.20013" lon="6.08971">
        <ele>1250.7</ele>
        <time>2015-07-19T08:18:55Z</time>
      </trkpt>
      <trkpt lat="45.20013" lon="6.08971">
        <ele>1247.42</ele>
        <time>2015-07-19T08:18:57Z</time>
      </trkpt>
      <trkpt lat="45.20013" lon="6.08971">
        <ele>1243.11</ele>
        <time>2015-07-19T08:19:00Z</time>
      </trkpt>
      <trkpt lat="45.20013" lon="6.08971">
        <ele>1239.87</ele>
        <time>2015-07-19T08:19:02Z</time>
      </trkpt>
      <trkpt lat="45.20013" lon="6.08971">
        <ele>1236.08</ele>
        <time>2015-07-19T08:19:04Z</time>
      </trkpt>
      <trkpt lat="45.20013" lon="6.08971">
        <ele>1233.01</ele>
        <time>2015-07-19T08:19:06Z</time>
      </trkpt>
      <trkpt lat="45.20013" lon="6.08971">
        <ele>1228.65</ele>
        <time>2015-07-19T08:19:09Z</time>
      </trkpt>
      <trkpt lat="45.20013" lon="6.08971">
        <ele>1224.81</ele>
        <time>2015-07-19T08:19:11Z</time>
      </trkpt>
      <trkpt lat="45.20013" lon="6.08971">
        <ele>1219.77</ele>
        <time>2015-07-19T08:19:13Z</time>
      </trkpt>
      <trkpt lat="45.20013" lon="6.08971">
        <ele>1214.73</ele>
        <time>2015-07-19T08:19:15Z</time>
      </trkpt>
      <trkpt lat="45.20013" lon="6.08971">
        <ele>1210.36</ele>
        <time>2015-07-19T08:19:17Z</time>
      </trkpt>
      <trkpt lat="45.20013" lon="6.08971">
        <ele>1207.07</ele>
        <time>2015-07-19T08:19:19Z</time>
      </trkpt>
      <trkpt lat="45.20013" lon="6.08971">
        <ele>1201.53</ele>
        <time>2015-07-19T08:19:22Z</time>
      </trkpt>
      <trkpt lat="45.20013" lon="6.08971">
        <ele>1197.84</ele>
        <time>2015-07-19T08:19:24Z</time>
      </trkpt>
      <trkpt lat="45.20013" lon="6.08971">
        <ele>1193.92</ele>
        <time>2015-07-19T08:19:26Z</time>
      </trkpt>
      <trkpt lat="45.20013" lon="6.08971">
        <ele>1189.75</ele>
        <time>2015-07-19T08:19:28Z</time>
      </trkpt>
      <trkpt lat="45.20013" lon="6.08971">
        <ele>1185.8</ele>
        <time>2015-07-19T08:19:30Z</time>
      </trkpt>
      <trkpt lat="45.20013" lon="6.08971">
        <ele>1181.23</ele>
        <time>2015-07-19T08:19:32Z</time>
      </trkpt>
      <trkpt lat="45.20013" lon="6.08971">
        <ele>1178.02</ele>
        <time>2015-07-19T08:19:37Z</time>
      </trkpt>
      <trkpt lat="45.20013" lon="6.08971">
        <ele>1181.09</ele>
        <time>2015-07-19T08:20:01Z</time>
      </trkpt>
      <trkpt lat="45.20013" lon="6.08971">
        <ele>1184.16</ele>
        <time>2015-07-19T08:20:12Z</time>
      </trkpt>
      <trkpt lat="45.20013" lon="6.08971">
        <ele>1187.19</ele>
        <time>2015-07-19T08:20:26Z</time>
      </trkpt>
      <trkpt lat="45.20013" lon="6.08971">
        <ele>1190.19</ele>
        <time>2015-07-19T08:20:38Z</time>
      </trkpt>
      <trkpt lat="45.20013" lon="6.08971">
        <ele>1193.2</ele>
        <time>2015-07-19T08:20:51Z</time>
      </trkpt>
      <trkpt lat="45.20013" lon="6.08971">
        <ele>1196.4</ele>
        <time>2015-07-19T08:21:06Z</time>
      </trkpt>
      <trkpt lat="45.20013" lon="6.08971">
        <ele>1199.42</ele>
        <time>2015-07-19T08:21:20Z</time>
      </trkpt>
      <trkpt lat="45.20013" lon="6.08971">
        <ele>1202.46</ele>
        <time>2015-07-19T08:21:32Z</time>
      </trkpt>
      <trkpt lat="45.20013" lon="6.08971">
        <ele>1205.49</ele>
        <time>2015-07-19T08:21:45Z</time>
      </trkpt>
      <trkpt lat="45.20013" lon="6.08971">
        <ele>1208.78</ele>
        <time>2015-07-19T08:22:00Z</time>
      </trkpt>
      <trkpt lat="45.20013" lon="6.08971">
        <ele>1211.79</ele>
        <time>2015-07-19T08:22:13Z</time>
      </trkpt>
      <trkpt lat="45.20013" lon="6.08971">
        <ele>1215.03</ele>
        <time>2015-07-19T08:22:26Z</time>
      </trkpt>
      <trkpt lat="45.21383" lon="6.05558">
        <ele>1216.94</ele>
        <time>2015-07-19T08:22:34Z</time>
      </trkpt>
      <trkpt lat="45.21405" lon="6.05531">
        <ele>1220.1</ele>
        <time>2015-07-19T08:22:47Z</time>
      </trkpt>
      <trkpt lat="45.21407" lon="6.05528">
        <ele>1223.34</ele>
        <time>2015-07-19T08:22:49Z</time>
      </trkpt>
      <trkpt lat="45.21407" lon="6.05528">
        <ele>1227.69</ele>
        <time>2015-07-19T08:23:19Z</time>
      </trkpt>
      <trkpt lat="45.21407" lon="6.05528">
        <ele>1230.88</ele>
        <time>2015-07-19T08:23:33Z</time>
      </trkpt>
      <trkpt lat="45.21407" lon="6.05528">
        <ele>1234</ele>
        <time>2015-07-19T08:23:45Z</time>
      </trkpt>
      <trkpt lat="45.21407" lon="6.05528">
        <ele>1237</ele>
        <time>2015-07-19T08:24:03Z</time>
      </trkpt>
      <trkpt lat="45.21407" lon="6.05528">
        <ele>1240.16</ele>
        <time>2015-07-19T08:24:15Z</time>
      </trkpt>
      <trkpt lat="45.21407" lon="6.05528">
        <ele>1243.3</ele>
        <time>2015-07-19T08:24:28Z</time>
      </trkpt>
      <trkpt lat="45.21407" lon="6.05528">
        <ele>1246.38</ele>
        <time>2015-07-19T08:24:42Z</time>
      </trkpt>
      <trkpt lat="45.21652" lon="6.05399">
        <ele>1247.51</ele>
        <time>2015-07-19T08:25:03Z</time>
      </trkpt>
      <trkpt lat="45.21253" lon="6.05386">
        <ele>1247.91</ele>
        <time>2015-07-19T08:25:15Z</time>
      </trkpt>
      <trkpt lat="45.21251" lon="6.05343">
        <ele>1247.84</ele>
        <time>2015-07-19T08:25:21Z</time>
      </trkpt>
      <trkpt lat="45.21223" lon="6.05287">
        <ele>1248.37</ele>
        <time>2015-07-19T08:25:33Z</time>
      </trkpt>
      <trkpt lat="45.21202" lon="6.05224">
        <ele>1251.51</ele>
        <time>2015-07-19T08:25:47Z</time>
      </trkpt>
      <trkpt lat="45.21219" lon="6.0517">
        <ele>1254.72</ele>
        <time>2015-07-19T08:26:02Z</time>
      </trkpt>
      <trkpt lat="45.21236" lon="6.05147">
        <ele>1256.13</ele>
        <time>2015-07-19T08:26:08Z</time>
      </trkpt>
      <trkpt lat="45.21238" lon="6.05143">
        <ele>1256.39</ele>
        <time>2015-07-19T08:26:09Z</time>
      </trkpt>
      <trkpt lat="45.21239" lon="6.05137">
        <ele>1256.62</ele>
        <time>2015-07-19T08:26:10Z</time>
      </trkpt>
      <trkpt lat="45.21239" lon="6.05129">
        <ele>1256.9</ele>
        <time>2015-07-19T08:26:11Z</time>
      </trkpt>
      <trkpt lat="45.21235" lon="6.05114">
        <ele>1257.11</ele>
        <time>2015-07-19T08:26:12Z</time>
      </trkpt>
      <trkpt lat="45.21231" lon="6.051">
        <ele>1257.25</ele>
        <time>2015-07-19T08:26:13Z</time>
      </trkpt>
      <trkpt lat="45.21228" lon="6.05089">
        <ele>1257.46</ele>
        <time>2015-07-19T08:26:14Z</time>
      </trkpt>
      <trkpt lat="45.21225" lon="6.05079">
        <ele>1257.65</ele>
        <time>2015-07-19T08:26:15Z</time>
      </trkpt>
      <trkpt lat="45.21221" lon="6.05071">
        <ele>1257.76</ele>
        <time>2015-07-19T08:26:16Z</time>
      </trkpt>
      <trkpt lat="45.21217" lon="6.05063">
        <ele>1258.09</ele>
        <time>2015-07-19T08:26:17Z</time>
      </trkpt>
      <trkpt lat="45.21212" lon="6.05054">
        <ele>1258.28</ele>
        <time>2015-07-19T08:26:18Z</time>
      </trkpt>
      <trkpt lat="45.21208" lon="6.05047">
        <ele>1258.42</ele>
        <time>2015-07-19T08:26:19Z</time>
      </trkpt>
      <trkpt lat="45.21173" lon="6.04989">
        <ele>1260.93</ele>
        <time>2015-07-19T08:26:33Z</time>
      </trkpt>
      <trkpt lat="45.21171" lon="6.04921">
        <ele>1263.77</ele>
        <time>2015-07-19T08:26:46Z</time>
      </trkpt>
      <trkpt lat="45.21188" lon="6.04869">
        <ele>1266.61</ele>
        <time>2015-07-19T08:26:59Z</time>
      </trkpt>
      <trkpt lat="45.21204" lon="6.04853">
        <ele>1267.66</ele>
        <time>2015-07-19T08:27:04Z</time>
      </trkpt>
      <trkpt lat="45.21207" lon="6.04841">
        <ele>1268.17</ele>
        <time>2015-07-19T08:27:06Z</time>
      </trkpt>
      <trkpt lat="45.21207" lon="6.04834">
        <ele>1268.42</ele>
        <time>2015-07-19T08:27:07Z</time>
      </trkpt>
      <trkpt lat="45.21206" lon="6.04826">
        <ele>1268.56</ele>
        <time>2015-07-19T08:27:08Z</time>
      </trkpt>
      <trkpt lat="45.21204" lon="6.04818">
        <ele>1268.64</ele>
        <time>2015-07-19T08:27:09Z</time>
      </trkpt>
      <trkpt lat="45.21202" lon="6.04811">
        <ele>1268.85</ele>
        <time>2015-07-19T08:27:10Z</time>
      </trkpt>
      <trkpt lat="45.21198" lon="6.04804">
        <ele>1269.01</ele>
        <time>2015-07-19T08:27:11Z</time>
      </trkpt>
      <trkpt lat="45.21194" lon="6.04798">
        <ele>1269.13</ele>
        <time>2015-07-19T08:27:12Z</time>
      </trkpt>
      <trkpt lat="45.2119" lon="6.04792">
        <ele>1269.26</ele>
        <time>2015-07-19T08:27:13Z</time>
      </trkpt>
      <trkpt lat="45.21186" lon="6.04787">
        <ele>1269.32</ele>
        <time>2015-07-19T08:27:14Z</time>
      </trkpt>
      <trkpt lat="45.21182" lon="6.04783">
        <ele>1269.36</ele>
        <time>2015-07-19T08:27:15Z</time>
      </trkpt>
      <trkpt lat="45.21178" lon="6.04779">
        <ele>1269.48</ele>
        <time>2015-07-19T08:27:16Z</time>
      </trkpt>
      <trkpt lat="45.21174" lon="6.04776">
        <ele>1269.59</ele>
        <time>2015-07-19T08:27:17Z</time>
      </trkpt>
      <trkpt lat="45.21124" lon="6.04727">
        <ele>1269.76</ele>
        <time>2015-07-19T08:27:28Z</time>
      </trkpt>
      <trkpt lat="45.21109" lon="6.04714">
        <ele>1269.82</ele>
        <time>2015-07-19T08:27:31Z</time>
      </trkpt>
      <trkpt lat="45.211" lon="6.04704">
        <ele>1269.87</ele>
        <time>2015-07-19T08:27:33Z</time>
      </trkpt>
      <trkpt lat="45.21095" lon="6.04698">
        <ele>1269.84</ele>
        <time>2015-07-19T08:27:34Z</time>
      </trkpt>
      <trkpt lat="45.21091" lon="6.04693">
        <ele>1269.81</ele>
        <time>2015-07-19T08:27:35Z</time>
      </trkpt>
      <trkpt lat="45.21071" lon="6.04665">
        <ele>1270.06</ele>
        <time>2015-07-19T08:27:40Z</time>
      </trkpt>
      <trkpt lat="45.21066" lon="6.04662">
        <ele>1270.09</ele>
        <time>2015-07-19T08:27:41Z</time>
      </trkpt>
      <trkpt lat="45.2106" lon="6.04659">
        <ele>1270.04</ele>
        <time>2015-07-19T08:27:42Z</time>
      </trkpt>
      <trkpt lat="45.21049" lon="6.04657">
        <ele>1270.07</ele>
        <time>2015-07-19T08:27:44Z</time>
      </trkpt>
      <trkpt lat="45.21044" lon="6.04655">
        <ele>1270.13</ele>
        <time>2015-07-19T08:27:45Z</time>
      </trkpt>
      <trkpt lat="45.21033" lon="6.04648">
        <ele>1269.84</ele>
        <time>2015-07-19T08:27:47Z</time>
      </trkpt>
      <trkpt lat="45.21028" lon="6.04643">
        <ele>1269.78</ele>
        <time>2015-07-19T08:27:48Z</time>
      </trkpt>
      <trkpt lat="45.21024" lon="6.04636">
        <ele>1269.67</ele>
        <time>2015-07-19T08:27:49Z</time>
      </trkpt>
      <trkpt lat="45.2102" lon="6.04628">
        <ele>1269.6</ele>
        <time>2015-07-19T08:27:50Z</time>
      </trkpt>
      <trkpt lat="45.21017" lon="6.04623">
        <ele>1269.57</ele>
        <time>2015-07-19T08:27:51Z</time>
      </trkpt>
      <trkpt lat="45.21017" lon="6.04613">
        <ele>1269.6</ele>
        <time>2015-07-19T08:27:52Z</time>
      </trkpt>
      <trkpt lat="45.21016" lon="6.04604">
        <ele>1269.62</ele>
        <time>2015-07-19T08:27:53Z</time>
      </trkpt>
      <trkpt lat="45.21019" lon="6.04595">
        <ele>1269.77</ele>
        <time>2015-07-19T08:27:54Z</time>
      </trkpt>
      <trkpt lat="45.2102" lon="6.04586">
        <ele>1269.93</ele>
        <time>2015-07-19T08:27:55Z</time>
      </trkpt>
      <trkpt lat="45.21022" lon="6.04547">
        <ele>1270.16</ele>
        <time>2015-07-19T08:27:59Z</time>
      </trkpt>
      <trkpt lat="45.21019" lon="6.04538">
        <ele>1270.21</ele>
        <time>2015-07-19T08:28:00Z</time>
      </trkpt>
      <trkpt lat="45.21015" lon="6.0453">
        <ele>1270.3</ele>
        <time>2015-07-19T08:28:01Z</time>
      </trkpt>
      <trkpt lat="45.21011" lon="6.04524">
        <ele>1270.38</ele>
        <time>2015-07-19T08:28:02Z</time>
      </trkpt>
      <trkpt lat="45.21007" lon="6.04522">
        <ele>1270.42</ele>
        <time>2015-07-19T08:28:03Z</time>
      </trkpt>
      <trkpt lat="45.20971" lon="6.04544">
        <ele>1270.77</ele>
        <time>2015-07-19T08:28:11Z</time>
      </trkpt>
      <trkpt lat="45.20955" lon="6.04547">
        <ele>1270.85</ele>
        <time>2015-07-19T08:28:12Z</time>
      </trkpt>
      <trkpt lat="45.20944" lon="6.04549">
        <ele>1270.84</ele>
        <time>2015-07-19T08:28:13Z</time>
      </trkpt>
      <trkpt lat="45.20935" lon="6.04549">
        <ele>1270.82</ele>
        <time>2015-07-19T08:28:14Z</time>
      </trkpt>
      <trkpt lat="45.20928" lon="6.04549">
        <ele>1270.85</ele>
        <time>2015-07-19T08:28:15Z</time>
      </trkpt>
      <trkpt lat="45.20922" lon="6.04547">
        <ele>1270.88</ele>
        <time>2015-07-19T08:28:16Z</time>
      </trkpt>
      <trkpt lat="45.20916" lon="6.04545">
        <ele>1270.86</ele>
        <time>2015-07-19T08:28:17Z</time>
      </trkpt>
      <trkpt lat="45.20908" lon="6.0454">
        <ele>1270.84</ele>
        <time>2015-07-19T08:28:18Z</time>
      </trkpt>
      <trkpt lat="45.20901" lon="6.04535">
        <ele>1270.85</ele>
        <time>2015-07-19T08:28:19Z</time>
      </trkpt>
      <trkpt lat="45.20897" lon="6.04528">
        <ele>1270.87</ele>
        <time>2015-07-19T08:28:20Z</time>
      </trkpt>
      <trkpt lat="45.20892" lon="6.0452">
        <ele>1270.84</ele>
        <time>2015-07-19T08:28:21Z</time>
      </trkpt>
      <trkpt lat="45.20883" lon="6.04508">
        <ele>1270.58</ele>
        <time>2015-07-19T08:28:23Z</time>
      </trkpt>
      <trkpt lat="45.20877" lon="6.04506">
        <ele>1270.67</ele>
        <time>2015-07-19T08:28:24Z</time>
      </trkpt>
      <trkpt lat="45.20872" lon="6.04502">
        <ele>1270.8</ele>
        <time>2015-07-19T08:28:25Z</time>
      </trkpt>
      <trkpt lat="45.20865" lon="6.04499">
        <ele>1270.88</ele>
        <time>2015-07-19T08:28:26Z</time>
      </trkpt>
      <trkpt lat="45.20858" lon="6.04497">
        <ele>1271.06</ele>
        <time>2015-07-19T08:28:27Z</time>
      </trkpt>
      <trkpt lat="45.20851" lon="6.04496">
        <ele>1271.16</ele>
        <time>2015-07-19T08:28:28Z</time>
      </trkpt>
      <trkpt lat="45.20843" lon="6.04498">
        <ele>1271.11</ele>
        <time>2015-07-19T08:28:29Z</time>
      </trkpt>
      <trkpt lat="45.2079" lon="6.04489">
        <ele>1270.3</ele>
        <time>2015-07-19T08:28:36Z</time>
      </trkpt>
      <trkpt lat="45.20739" lon="6.04462">
        <ele>1269.61</ele>
        <time>2015-07-19T08:28:43Z</time>
      </trkpt>
      <trkpt lat="45.20692" lon="6.0442">
        <ele>1268.93</ele>
        <time>2015-07-19T08:28:50Z</time>
      </trkpt>
      <trkpt lat="45.20672" lon="6.04402">
        <ele>1269.42</ele>
        <time>2015-07-19T08:28:53Z</time>
      </trkpt>
      <trkpt lat="45.20664" lon="6.04398">
        <ele>1269.41</ele>
        <time>2015-07-19T08:28:54Z</time>
      </trkpt>
      <trkpt lat="45.20657" lon="6.04395">
        <ele>1269.31</ele>
        <time>2015-07-19T08:28:55Z</time>
      </trkpt>
      <trkpt lat="45.206" lon="6.04376">
        <ele>1268.89</ele>
        <time>2015-07-19T08:29:03Z</time>
      </trkpt>
      <trkpt lat="45.20586" lon="6.0437">
        <ele>1268.77</ele>
        <time>2015-07-19T08:29:05Z</time>
      </trkpt>
      <trkpt lat="45.2058" lon="6.04366">
        <ele>1268.71</ele>
        <time>2015-07-19T08:29:06Z</time>
      </trkpt>
      <trkpt lat="45.20573" lon="6.04361">
        <ele>1268.59</ele>
        <time>2015-07-19T08:29:07Z</time>
      </trkpt>
      <trkpt lat="45.2056" lon="6.04351">
        <ele>1268.56</ele>
        <time>2015-07-19T08:29:09Z</time>
      </trkpt>
      <trkpt lat="45.20554" lon="6.04344">
        <ele>1268.58</ele>
        <time>2015-07-19T08:29:10Z</time>
      </trkpt>
      <trkpt lat="45.20548" lon="6.04337">
        <ele>1268.57</ele>
        <time>2015-07-19T08:29:11Z</time>
      </trkpt>
      <trkpt lat="45.20543" lon="6.04328">
        <ele>1268.47</ele>
        <time>2015-07-19T08:29:12Z</time>
      </trkpt>
      <trkpt lat="45.20539" lon="6.04319">
        <ele>1268.35</ele>
        <time>2015-07-19T08:29:13Z</time>
      </trkpt>
      <trkpt lat="45.20535" lon="6.0431">
        <ele>1268.24</ele>
        <time>2015-07-19T08:29:14Z</time>
      </trkpt>
      <trkpt lat="45.20491" lon="6.0423">
        <ele>1266.91</ele>
        <time>2015-07-19T08:29:21Z</time>
      </trkpt>
      <trkpt lat="45.20444" lon="6.04165">
        <ele>1266.16</ele>
        <time>2015-07-19T08:29:28Z</time>
      </trkpt>
      <trkpt lat="45.20428" lon="6.04147">
        <ele>1265.77</ele>
        <time>2015-07-19T08:29:31Z</time>
      </trkpt>
      <trkpt lat="45.20386" lon="6.04105">
        <ele>1265.04</ele>
        <time>2015-07-19T08:29:39Z</time>
      </trkpt>
      <trkpt lat="45.2034" lon="6.04057">
        <ele>1263.82</ele>
        <time>2015-07-19T08:29:47Z</time>
      </trkpt>
      <trkpt lat="45.20318" lon="6.04033">
        <ele>1262.76</ele>
        <time>2015-07-19T08:29:50Z</time>
      </trkpt>
      <trkpt lat="45.20302" lon="6.04021">
        <ele>1262.34</ele>
        <time>2015-07-19T08:29:52Z</time>
      </trkpt>
      <trkpt lat="45.20294" lon="6.0402">
        <ele>1262.34</ele>
        <time>2015-07-19T08:29:53Z</time>
      </trkpt>
      <trkpt lat="45.20285" lon="6.04022">
        <ele>1261.92</ele>
        <time>2015-07-19T08:29:54Z</time>
      </trkpt>
      <trkpt lat="45.20275" lon="6.04024">
        <ele>1261.34</ele>
        <time>2015-07-19T08:29:55Z</time>
      </trkpt>
      <trkpt lat="45.20266" lon="6.04028">
        <ele>1260.65</ele>
        <time>2015-07-19T08:29:56Z</time>
      </trkpt>
      <trkpt lat="45.20257" lon="6.0403">
        <ele>1259.97</ele>
        <time>2015-07-19T08:29:57Z</time>
      </trkpt>
      <trkpt lat="45.20248" lon="6.04031">
        <ele>1259.04</ele>
        <time>2015-07-19T08:29:58Z</time>
      </trkpt>
      <trkpt lat="45.2024" lon="6.0403">
        <ele>1258.18</ele>
        <time>2015-07-19T08:29:59Z</time>
      </trkpt>
      <trkpt lat="45.2023" lon="6.04026">
        <ele>1257.42</ele>
        <time>2015-07-19T08:30:00Z</time>
      </trkpt>
      <trkpt lat="45.20213" lon="6.04015">
        <ele>1256.58</ele>
        <time>2015-07-19T08:30:02Z</time>
      </trkpt>
      <trkpt lat="45.20205" lon="6.04009">
        <ele>1256.19</ele>
        <time>2015-07-19T08:30:03Z</time>
      </trkpt>
      <trkpt lat="45.20198" lon="6.04001">
        <ele>1255.92</ele>
        <time>2015-07-19T08:30:04Z</time>
      </trkpt>
      <trkpt lat="45.20176" lon="6.03973">
        <ele>1255.34</ele>
        <time>2015-07-19T08:30:07Z</time>
      </trkpt>
      <trkpt lat="45.20168" lon="6.03965">
        <ele>1254.95</ele>
        <time>2015-07-19T08:30:08Z</time>
      </trkpt>
      <trkpt lat="45.2016" lon="6.03958">
        <ele>1254.62</ele>
        <time>2015-07-19T08:30:09Z</time>
      </trkpt>
      <trkpt lat="45.20143" lon="6.03949">
        <ele>1254.02</ele>
        <time>2015-07-19T08:30:11Z</time>
      </trkpt>
      <trkpt lat="45.20134" lon="6.03951">
        <ele>1253.69</ele>
        <time>2015-07-19T08:30:12Z</time>
      </trkpt>
      <trkpt lat="45.20079" lon="6.03939">
        <ele>1252.84</ele>
        <time>2015-07-19T08:30:18Z</time>
      </trkpt>
      <trkpt lat="45.20027" lon="6.03916">
        <ele>1252.34</ele>
        <time>2015-07-19T08:30:24Z</time>
      </trkpt>
      <trkpt lat="45.20019" lon="6.03915">
        <ele>1252.1</ele>
        <time>2015-07-19T08:30:25Z</time>
      </trkpt>
      <trkpt lat="45.1997" lon="6.03905">
        <ele>1250.73</ele>
        <time>2015-07-19T08:30:31Z</time>
      </trkpt>
      <trkpt lat="45.19955" lon="6.03909">
        <ele>1250.49</ele>
        <time>2015-07-19T08:30:33Z</time>
      </trkpt>
      <trkpt lat="45.19947" lon="6.03913">
        <ele>1250.15</ele>
        <time>2015-07-19T08:30:34Z</time>
      </trkpt>
      <trkpt lat="45.19924" lon="6.03919">
        <ele>1249.48</ele>
        <time>2015-07-19T08:30:37Z</time>
      </trkpt>
      <trkpt lat="45.19908" lon="6.03921">
        <ele>1249.34</ele>
        <time>2015-07-19T08:30:39Z</time>
      </trkpt>
      <trkpt lat="45.199" lon="6.03924">
        <ele>1249.19</ele>
        <time>2015-07-19T08:30:40Z</time>
      </trkpt>
      <trkpt lat="45.19877" lon="6.0393">
        <ele>1248.38</ele>
        <time>2015-07-19T08:30:43Z</time>
      </trkpt>
      <trkpt lat="45.1987" lon="6.03928">
        <ele>1247.83</ele>
        <time>2015-07-19T08:30:44Z</time>
      </trkpt>
      <trkpt lat="45.19862" lon="6.03924">
        <ele>1247.28</ele>
        <time>2015-07-19T08:30:45Z</time>
      </trkpt>
      <trkpt lat="45.19825" lon="6.0391">
        <ele>1245.67</ele>
        <time>2015-07-19T08:30:49Z</time>
      </trkpt>
      <trkpt lat="45.19764" lon="6.03894">
        <ele>1241.68</ele>
        <time>2015-07-19T08:30:54Z</time>
      </trkpt>
      <trkpt lat="45.19706" lon="6.03884">
        <ele>1237.22</ele>
        <time>2015-07-19T08:30:58Z</time>
      </trkpt>
      <trkpt lat="45.19662" lon="6.03874">
        <ele>1233.5</ele>
        <time>2015-07-19T08:31:01Z</time>
      </trkpt>
      <trkpt lat="45.19617" lon="6.03868">
        <ele>1229.99</ele>
        <time>2015-07-19T08:31:04Z</time>
      </trkpt>
      <trkpt lat="45.19589" lon="6.03859">
        <ele>1226.37</ele>
        <time>2015-07-19T08:31:06Z</time>
      </trkpt>
      <trkpt lat="45.19577" lon="6.03847">
        <ele>1225.3</ele>
        <time>2015-07-19T08:31:07Z</time>
      </trkpt>
      <trkpt lat="45.19539" lon="6.03817">
        <ele>1221.64</ele>
        <time>2015-07-19T08:31:10Z</time>
      </trkpt>
      <trkpt lat="45.19513" lon="6.03802">
        <ele>1219.27</ele>
        <time>2015-07-19T08:31:12Z</time>
      </trkpt>
      <trkpt lat="45.19499" lon="6.03797">
        <ele>1217.95</ele>
        <time>2015-07-19T08:31:13Z</time>
      </trkpt>
      <trkpt lat="45.19484" lon="6.03794">
        <ele>1216.66</ele>
        <time>2015-07-19T08:31:14Z</time>
      </trkpt>
      <trkpt lat="45.19456" lon="6.03787">
        <ele>1213.31</ele>
        <time>2015-07-19T08:31:16Z</time>
      </trkpt>
      <trkpt lat="45.19428" lon="6.03776">
        <ele>1209.78</ele>
        <time>2015-07-19T08:31:18Z</time>
      </trkpt>
      <trkpt lat="45.19401" lon="6.03761">
        <ele>1207.01</ele>
        <time>2015-07-19T08:31:20Z</time>
      </trkpt>
      <trkpt lat="45.1936" lon="6.03734">
        <ele>1203.33</ele>
        <time>2015-07-19T08:31:23Z</time>
      </trkpt>
      <trkpt lat="45.19335" lon="6.0371">
        <ele>1199.79</ele>
        <time>2015-07-19T08:31:25Z</time>
      </trkpt>
      <trkpt lat="45.19298" lon="6.03672">
        <ele>1195.44</ele>
        <time>2015-07-19T08:31:28Z</time>
      </trkpt>
      <trkpt lat="45.19283" lon="6.03662">
        <ele>1193.77</ele>
        <time>2015-07-19T08:31:29Z</time>
      </trkpt>
      <trkpt lat="45.19267" lon="6.03656">
        <ele>1191.29</ele>
        <time>2015-07-19T08:31:30Z</time>
      </trkpt>
      <trkpt lat="45.19251" lon="6.03651">
        <ele>1189.11</ele>
        <time>2015-07-19T08:31:31Z</time>
      </trkpt>
      <trkpt lat="45.1922" lon="6.03643">
        <ele>1186.04</ele>
        <time>2015-07-19T08:31:33Z</time>
      </trkpt>
      <trkpt lat="45.19192" lon="6.03632">
        <ele>1181.45</ele>
        <time>2015-07-19T08:31:35Z</time>
      </trkpt>
      <trkpt lat="45.19179" lon="6.03622">
        <ele>1179.81</ele>
        <time>2015-07-19T08:31:36Z</time>
      </trkpt>
      <trkpt lat="45.19137" lon="6.03605">
        <ele>1175.57</ele>
        <time>2015-07-19T08:31:39Z</time>
      </trkpt>
      <trkpt lat="45.19092" lon="6.03593">
        <ele>1171.59</ele>
        <time>2015-07-19T08:31:42Z</time>
      </trkpt>
      <trkpt lat="45.19061" lon="6.03584">
        <ele>1168.42</ele>
        <time>2015-07-19T08:31:44Z</time>
      </trkpt>
      <trkpt lat="45.1903" lon="6.03573">
        <ele>1165.1</ele>
        <time>2015-07-19T08:31:46Z</time>
      </trkpt>
      <trkpt lat="45.19" lon="6.0356">
        <ele>1162.1</ele>
        <time>2015-07-19T08:31:48Z</time>
      </trkpt>
      <trkpt lat="45.18984" lon="6.03549">
        <ele>1160.48</ele>
        <time>2015-07-19T08:31:49Z</time>
      </trkpt>
      <trkpt lat="45.18952" lon="6.03532">
        <ele>1157.06</ele>
        <time>2015-07-19T08:31:51Z</time>
      </trkpt>
      <trkpt lat="45.18917" lon="6.03516">
        <ele>1153.34</ele>
        <time>2015-07-19T08:31:53Z</time>
      </trkpt>
      <trkpt lat="45.18864" lon="6.03491">
        <ele>1148.98</ele>
        <time>2015-07-19T08:31:56Z</time>
      </trkpt>
      <trkpt lat="45.18833" lon="6.03471">
        <ele>1144.94</ele>
        <time>2015-07-19T08:31:58Z</time>
      </trkpt>
      <trkpt lat="45.18803" lon="6.03449">
        <ele>1141.05</ele>
        <time>2015-07-19T08:32:00Z</time>
      </trkpt>
      <trkpt lat="45.18774" lon="6.03423">
        <ele>1137.43</ele>
        <time>2015-07-19T08:32:02Z</time>
      </trkpt>
      <trkpt lat="45.18745" lon="6.03401">
        <ele>1133.07</ele>
        <time>2015-07-19T08:32:04Z</time>
      </trkpt>
      <trkpt lat="45.18717" lon="6.0338">
        <ele>1129.14</ele>
        <time>2015-07-19T08:32:06Z</time>
      </trkpt>
      <trkpt lat="45.18703" lon="6.03374">
        <ele>1127.71</ele>
        <time>2015-07-19T08:32:07Z</time>
      </trkpt>
      <trkpt lat="45.18691" lon="6.03372">
        <ele>1125.55</ele>
        <time>2015-07-19T08:32:08Z</time>
      </trkpt>
      <trkpt lat="45.18681" lon="6.03374">
        <ele>1124.58</ele>
        <time>2015-07-19T08:32:09Z</time>
      </trkpt>
      <trkpt lat="45.18673" lon="6.03378">
        <ele>1123.58</ele>
        <time>2015-07-19T08:32:10Z</time>
      </trkpt>
      <trkpt lat="45.18662" lon="6.03385">
        <ele>1122.19</ele>
        <time>2015-07-19T08:32:11Z</time>
      </trkpt>
      <trkpt lat="45.18654" lon="6.03393">
        <ele>1120.92</ele>
        <time>2015-07-19T08:32:12Z</time>
      </trkpt>
      <trkpt lat="45.18615" lon="6.03413">
        <ele>1117.09</ele>
        <time>2015-07-19T08:32:15Z</time>
      </trkpt>
      <trkpt lat="45.18591" lon="6.03431">
        <ele>1114.14</ele>
        <time>2015-07-19T08:32:17Z</time>
      </trkpt>
      <trkpt lat="45.18565" lon="6.03446">
        <ele>1110.94</ele>
        <time>2015-07-19T08:32:19Z</time>
      </trkpt>
      <trkpt lat="45.18535" lon="6.03454">
        <ele>1109</ele>
        <time>2015-07-19T08:32:21Z</time>
      </trkpt>
      <trkpt lat="45.1852" lon="6.03456">
        <ele>1107.88</ele>
        <time>2015-07-19T08:32:22Z</time>
      </trkpt>
      <trkpt lat="45.1849" lon="6.0346">
        <ele>1104.16</ele>
        <time>2015-07-19T08:32:24Z</time>
      </trkpt>
      <trkpt lat="45.18456" lon="6.03466">
        <ele>1100.84</ele>
        <time>2015-07-19T08:32:26Z</time>
      </trkpt>
      <trkpt lat="45.18423" lon="6.03472">
        <ele>1097</ele>
        <time>2015-07-19T08:32:28Z</time>
      </trkpt>
      <trkpt lat="45.18374" lon="6.03481">
        <ele>1093.15</ele>
        <time>2015-07-19T08:32:31Z</time>
      </trkpt>
      <trkpt lat="45.1834" lon="6.03489">
        <ele>1089.53</ele>
        <time>2015-07-19T08:32:33Z</time>
      </trkpt>
      <trkpt lat="45.18305" lon="6.03496">
        <ele>1086.04</ele>
        <time>2015-07-19T08:32:35Z</time>
      </trkpt>
      <trkpt lat="45.18269" lon="6.03502">
        <ele>1081.79</ele>
        <time>2015-07-19T08:32:37Z</time>
      </trkpt>
      <trkpt lat="45.18255" lon="6.03493">
        <ele>1080.02</ele>
        <time>2015-07-19T08:32:38Z</time>
      </trkpt>
      <trkpt lat="45.18208" lon="6.03498">
        <ele>1075.62</ele>
        <time>2015-07-19T08:32:41Z</time>
      </trkpt>
      <trkpt lat="45.18178" lon="6.03507">
        <ele>1072.46</ele>
        <time>2015-07-19T08:32:43Z</time>
      </trkpt>
      <trkpt lat="45.18135" lon="6.03528">
        <ele>1067.31</ele>
        <time>2015-07-19T08:32:46Z</time>
      </trkpt>
      <trkpt lat="45.18107" lon="6.03544">
        <ele>1064.22</ele>
        <time>2015-07-19T08:32:48Z</time>
      </trkpt>
      <trkpt lat="45.18066" lon="6.03567">
        <ele>1059.41</ele>
        <time>2015-07-19T08:32:51Z</time>
      </trkpt>
      <trkpt lat="45.18041" lon="6.03579">
        <ele>1055.13</ele>
        <time>2015-07-19T08:32:53Z</time>
      </trkpt>
      <trkpt lat="45.17999" lon="6.03606">
        <ele>1050.52</ele>
        <time>2015-07-19T08:32:56Z</time>
      </trkpt>
      <trkpt lat="45.17974" lon="6.03629">
        <ele>1046.99</ele>
        <time>2015-07-19T08:32:58Z</time>
      </trkpt>
      <trkpt lat="45.17951" lon="6.0365">
        <ele>1042</ele>
        <time>2015-07-19T08:33:00Z</time>
      </trkpt>
      <trkpt lat="45.17925" lon="6.03664">
        <ele>1038.13</ele>
        <time>2015-07-19T08:33:02Z</time>
      </trkpt>
      <trkpt lat="45.17897" lon="6.03669">
        <ele>1034.68</ele>
        <time>2015-07-19T08:33:04Z</time>
      </trkpt>
      <trkpt lat="45.17882" lon="6.03666">
        <ele>1034.02</ele>
        <time>2015-07-19T08:33:05Z</time>
      </trkpt>
      <trkpt lat="45.17867" lon="6.03663">
        <ele>1032.89</ele>
        <time>2015-07-19T08:33:06Z</time>
      </trkpt>
      <trkpt lat="45.17852" lon="6.03663">
        <ele>1031.56</ele>
        <time>2015-07-19T08:33:07Z</time>
      </trkpt>
      <trkpt lat="45.17836" lon="6.03664">
        <ele>1030</ele>
        <time>2015-07-19T08:33:08Z</time>
      </trkpt>
      <trkpt lat="45.1782" lon="6.03667">
        <ele>1028.71</ele>
        <time>2015-07-19T08:33:09Z</time>
      </trkpt>
      <trkpt lat="45.17807" lon="6.03672">
        <ele>1027.22</ele>
        <time>2015-07-19T08:33:10Z</time>
      </trkpt>
      <trkpt lat="45.17789" lon="6.03676">
        <ele>1025.42</ele>
        <time>2015-07-19T08:33:11Z</time>
      </trkpt>
      <trkpt lat="45.17775" lon="6.03676">
        <ele>1023.57</ele>
        <time>2015-07-19T08:33:12Z</time>
      </trkpt>
      <trkpt lat="45.17761" lon="6.03673">
        <ele>1022.34</ele>
        <time>2015-07-19T08:33:13Z</time>
      </trkpt>
      <trkpt lat="45.17748" lon="6.03666">
        <ele>1021.7</ele>
        <time>2015-07-19T08:33:14Z</time>
      </trkpt>
      <trkpt lat="45.17729" lon="6.03656">
        <ele>1021.24</ele>
        <time>2015-07-19T08:33:15Z</time>
      </trkpt>
      <trkpt lat="45.17717" lon="6.03647">
        <ele>1019.87</ele>
        <time>2015-07-19T08:33:16Z</time>
      </trkpt>
      <trkpt lat="45.17706" lon="6.03636">
        <ele>1018.65</ele>
        <time>2015-07-19T08:33:17Z</time>
      </trkpt>
      <trkpt lat="45.17696" lon="6.03629">
        <ele>1017.4</ele>
        <time>2015-07-19T08:33:18Z</time>
      </trkpt>
      <trkpt lat="45.17687" lon="6.03625">
        <ele>1016</ele>
        <time>2015-07-19T08:33:19Z</time>
      </trkpt>
      <trkpt lat="45.17676" lon="6.03627">
        <ele>1014.93</ele>
        <time>2015-07-19T08:33:20Z</time>
      </trkpt>
      <trkpt lat="45.17667" lon="6.03631">
        <ele>1014.03</ele>
        <time>2015-07-19T08:33:21Z</time>
      </trkpt>
      <trkpt lat="45.17657" lon="6.03638">
        <ele>1013.68</ele>
        <time>2015-07-19T08:33:22Z</time>
      </trkpt>
      <trkpt lat="45.17648" lon="6.03646">
        <ele>1013.47</ele>
        <time>2015-07-19T08:33:23Z</time>
      </trkpt>
      <trkpt lat="45.17639" lon="6.03654">
        <ele>1013.16</ele>
        <time>2015-07-19T08:33:24Z</time>
      </trkpt>
      <trkpt lat="45.17593" lon="6.0368">
        <ele>1011.75</ele>
        <time>2015-07-19T08:33:29Z</time>
      </trkpt>
      <trkpt lat="45.17581" lon="6.03682">
        <ele>1011.53</ele>
        <time>2015-07-19T08:33:30Z</time>
      </trkpt>
      <trkpt lat="45.17569" lon="6.0368">
        <ele>1011.21</ele>
        <time>2015-07-19T08:33:31Z</time>
      </trkpt>
      <trkpt lat="45.17538" lon="6.03679">
        <ele>1010.59</ele>
        <time>2015-07-19T08:33:34Z</time>
      </trkpt>
      <trkpt lat="45.17527" lon="6.03683">
        <ele>1010.42</ele>
        <time>2015-07-19T08:33:35Z</time>
      </trkpt>
      <trkpt lat="45.17516" lon="6.03688">
        <ele>1010.04</ele>
        <time>2015-07-19T08:33:36Z</time>
      </trkpt>
      <trkpt lat="45.17505" lon="6.03692">
        <ele>1009.69</ele>
        <time>2015-07-19T08:33:37Z</time>
      </trkpt>
      <trkpt lat="45.17494" lon="6.03692">
        <ele>1009.29</ele>
        <time>2015-07-19T08:33:38Z</time>
      </trkpt>
      <trkpt lat="45.17483" lon="6.03692">
        <ele>1008.9</ele>
        <time>2015-07-19T08:33:39Z</time>
      </trkpt>
      <trkpt lat="45.17473" lon="6.03693">
        <ele>1008.23</ele>
        <time>2015-07-19T08:33:40Z</time>
      </trkpt>
      <trkpt lat="45.17431" lon="6.037">
        <ele>1006.25</ele>
        <time>2015-07-19T08:33:44Z</time>
      </trkpt>
      <trkpt lat="45.17392" lon="6.03719">
        <ele>1002.9</ele>
        <time>2015-07-19T08:33:48Z</time>
      </trkpt>
      <trkpt lat="45.17348" lon="6.03743">
        <ele>998.98</ele>
        <time>2015-07-19T08:33:51Z</time>
      </trkpt>
      <trkpt lat="45.17332" lon="6.03746">
        <ele>997.76</ele>
        <time>2015-07-19T08:33:52Z</time>
      </trkpt>
      <trkpt lat="45.17316" lon="6.03747">
        <ele>996.48</ele>
        <time>2015-07-19T08:33:53Z</time>
      </trkpt>
      <trkpt lat="45.173" lon="6.03747">
        <ele>995.15</ele>
        <time>2015-07-19T08:33:54Z</time>
      </trkpt>
      <trkpt lat="45.17284" lon="6.03749">
        <ele>994.16</ele>
        <time>2015-07-19T08:33:55Z</time>
      </trkpt>
      <trkpt lat="45.17236" lon="6.03759">
        <ele>989.94</ele>
        <time>2015-07-19T08:33:58Z</time>
      </trkpt>
      <trkpt lat="45.17206" lon="6.03769">
        <ele>986.35</ele>
        <time>2015-07-19T08:34:00Z</time>
      </trkpt>
      <trkpt lat="45.17162" lon="6.03786">
        <ele>982.12</ele>
        <time>2015-07-19T08:34:03Z</time>
      </trkpt>
      <trkpt lat="45.17116" lon="6.03814">
        <ele>976.94</ele>
        <time>2015-07-19T08:34:06Z</time>
      </trkpt>
      <trkpt lat="45.17085" lon="6.03833">
        <ele>973.84</ele>
        <time>2015-07-19T08:34:08Z</time>
      </trkpt>
      <trkpt lat="45.17057" lon="6.03852">
        <ele>970.69</ele>
        <time>2015-07-19T08:34:10Z</time>
      </trkpt>
      <trkpt lat="45.17015" lon="6.03876">
        <ele>967.36</ele>
        <time>2015-07-19T08:34:13Z</time>
      </trkpt>
      <trkpt lat="45.16973" lon="6.039">
        <ele>962.84</ele>
        <time>2015-07-19T08:34:16Z</time>
      </trkpt>
      <trkpt lat="45.16931" lon="6.03924">
        <ele>959.01</ele>
        <time>2015-07-19T08:34:19Z</time>
      </trkpt>
      <trkpt lat="45.16903" lon="6.03937">
        <ele>955.24</ele>
        <time>2015-07-19T08:34:21Z</time>
      </trkpt>
      <trkpt lat="45.16877" lon="6.03945">
        <ele>952.16</ele>
        <time>2015-07-19T08:34:23Z</time>
      </trkpt>
      <trkpt lat="45.16864" lon="6.03947">
        <ele>948.18</ele>
        <time>2015-07-19T08:34:24Z</time>
      </trkpt>
      <trkpt lat="45.16864" lon="6.03947">
        <ele>926.38</ele>
        <time>2015-07-19T08:34:23Z</time>
      </trkpt>
      <trkpt lat="45.16864" lon="6.03947">
        <ele>922.65</ele>
        <time>2015-07-19T08:34:56Z</time>
      </trkpt>
      <trkpt lat="45.16505" lon="6.04152">
        <ele>920.78</ele>
        <time>2015-07-19T08:35:00Z</time>
      </trkpt>
      <trkpt lat="45.16453" lon="6.04158">
        <ele>917.02</ele>
        <time>2015-07-19T08:35:03Z</time>
      </trkpt>
      <trkpt lat="45.16399" lon="6.04159">
        <ele>913.64</ele>
        <time>2015-07-19T08:35:07Z</time>
      </trkpt>
      <trkpt lat="45.16347" lon="6.04165">
        <ele>910.02</ele>
        <time>2015-07-19T08:35:11Z</time>
      </trkpt>
      <trkpt lat="45.16279" lon="6.04168">
        <ele>906.47</ele>
        <time>2015-07-19T08:35:16Z</time>
      </trkpt>
      <trkpt lat="45.16225" lon="6.0417">
        <ele>903.38</ele>
        <time>2015-07-19T08:35:20Z</time>
      </trkpt>
      <trkpt lat="45.16171" lon="6.04176">
        <ele>900.35</ele>
        <time>2015-07-19T08:35:24Z</time>
      </trkpt>
      <trkpt lat="45.16118" lon="6.04176">
        <ele>897.56</ele>
        <time>2015-07-19T08:35:28Z</time>
      </trkpt>
      <trkpt lat="45.16066" lon="6.04166">
        <ele>894.66</ele>
        <time>2015-07-19T08:35:32Z</time>
      </trkpt>
      <trkpt lat="45.16014" lon="6.04151">
        <ele>891.76</ele>
        <time>2015-07-19T08:35:36Z</time>
      </trkpt>
      <trkpt lat="45.15962" lon="6.04149">
        <ele>888.23</ele>
        <time>2015-07-19T08:35:40Z</time>
      </trkpt>
      <trkpt lat="45.15911" lon="6.04167">
        <ele>887.13</ele>
        <time>2015-07-19T08:35:44Z</time>
      </trkpt>
      <trkpt lat="45.15862" lon="6.04199">
        <ele>884.83</ele>
        <time>2015-07-19T08:35:48Z</time>
      </trkpt>
      <trkpt lat="45.15829" lon="6.04221">
        <ele>881.69</ele>
        <time>2015-07-19T08:35:51Z</time>
      </trkpt>
      <trkpt lat="45.15765" lon="6.04242">
        <ele>878.18</ele>
        <time>2015-07-19T08:35:57Z</time>
      </trkpt>
      <trkpt lat="45.15744" lon="6.04244">
        <ele>874.26</ele>
        <time>2015-07-19T08:35:59Z</time>
      </trkpt>
      <trkpt lat="45.15725" lon="6.04246">
        <ele>869.56</ele>
        <time>2015-07-19T08:36:01Z</time>
      </trkpt>
      <trkpt lat="45.15715" lon="6.04249">
        <ele>868.29</ele>
        <time>2015-07-19T08:36:02Z</time>
      </trkpt>
      <trkpt lat="45.15705" lon="6.04253">
        <ele>867.45</ele>
        <time>2015-07-19T08:36:03Z</time>
      </trkpt>
      <trkpt lat="45.15669" lon="6.04264">
        <ele>865.38</ele>
        <time>2015-07-19T08:36:07Z</time>
      </trkpt>
      <trkpt lat="45.15616" lon="6.04274">
        <ele>865.09</ele>
        <time>2015-07-19T08:36:13Z</time>
      </trkpt>
      <trkpt lat="45.15566" lon="6.04289">
        <ele>864.47</ele>
        <time>2015-07-19T08:36:19Z</time>
      </trkpt>
      <trkpt lat="45.15541" lon="6.043">
        <ele>864.19</ele>
        <time>2015-07-19T08:36:22Z</time>
      </trkpt>
      <trkpt lat="45.15467" lon="6.04374">
        <ele>862.48</ele>
        <time>2015-07-19T08:36:39Z</time>
      </trkpt>
      <trkpt lat="45.15462" lon="6.04376">
        <ele>862.27</ele>
        <time>2015-07-19T08:36:40Z</time>
      </trkpt>
      <trkpt lat="45.15457" lon="6.04377">
        <ele>862.13</ele>
        <time>2015-07-19T08:36:41Z</time>
      </trkpt>
      <trkpt lat="45.15392" lon="6.04402">
        <ele>861.88</ele>
        <time>2015-07-19T08:36:51Z</time>
      </trkpt>
      <trkpt lat="45.15347" lon="6.04391">
        <ele>861.6</ele>
        <time>2015-07-19T08:36:52Z</time>
      </trkpt>
      <trkpt lat="45.15322" lon="6.04387">
        <ele>860.48</ele>
        <time>2015-07-19T08:36:54Z</time>
      </trkpt>
      <trkpt lat="45.15304" lon="6.04383">
        <ele>860</ele>
        <time>2015-07-19T08:36:56Z</time>
      </trkpt>
      <trkpt lat="45.1525" lon="6.04374">
        <ele>858.89</ele>
        <time>2015-07-19T08:37:03Z</time>
      </trkpt>
      <trkpt lat="45.15226" lon="6.04373">
        <ele>858.61</ele>
        <time>2015-07-19T08:37:06Z</time>
      </trkpt>
      <trkpt lat="45.1519" lon="6.04379">
        <ele>857.88</ele>
        <time>2015-07-19T08:37:12Z</time>
      </trkpt>
      <trkpt lat="45.15186" lon="6.04382">
        <ele>857.73</ele>
        <time>2015-07-19T08:37:13Z</time>
      </trkpt>
      <trkpt lat="45.15181" lon="6.04387">
        <ele>857.68</ele>
        <time>2015-07-19T08:37:14Z</time>
      </trkpt>
      <trkpt lat="45.15177" lon="6.04391">
        <ele>857.61</ele>
        <time>2015-07-19T08:37:15Z</time>
      </trkpt>
      <trkpt lat="45.15172" lon="6.04393">
        <ele>857.44</ele>
        <time>2015-07-19T08:37:16Z</time>
      </trkpt>
      <trkpt lat="45.15167" lon="6.04396">
        <ele>857.25</ele>
        <time>2015-07-19T08:37:17Z</time>
      </trkpt>
      <trkpt lat="45.15153" lon="6.04402">
        <ele>856.61</ele>
        <time>2015-07-19T08:37:20Z</time>
      </trkpt>
      <trkpt lat="45.15133" lon="6.04417">
        <ele>855.83</ele>
        <time>2015-07-19T08:37:24Z</time>
      </trkpt>
      <trkpt lat="45.15113" lon="6.04432">
        <ele>855.4</ele>
        <time>2015-07-19T08:37:27Z</time>
      </trkpt>
      <trkpt lat="45.15083" lon="6.04428">
        <ele>855.27</ele>
        <time>2015-07-19T08:37:28Z</time>
      </trkpt>
      <trkpt lat="45.15059" lon="6.04424">
        <ele>855.27</ele>
        <time>2015-07-19T08:37:29Z</time>
      </trkpt>
      <trkpt lat="45.15024" lon="6.04423">
        <ele>855.8</ele>
        <time>2015-07-19T08:37:32Z</time>
      </trkpt>
      <trkpt lat="45.15006" lon="6.0442">
        <ele>855.6</ele>
        <time>2015-07-19T08:37:34Z</time>
      </trkpt>
      <trkpt lat="45.14994" lon="6.04416">
        <ele>855.51</ele>
        <time>2015-07-19T08:37:35Z</time>
      </trkpt>
      <trkpt lat="45.14939" lon="6.04397">
        <ele>854.95</ele>
        <time>2015-07-19T08:37:42Z</time>
      </trkpt>
      <trkpt lat="45.14902" lon="6.04392">
        <ele>854.62</ele>
        <time>2015-07-19T08:37:47Z</time>
      </trkpt>
      <trkpt lat="45.14863" lon="6.04384">
        <ele>853.09</ele>
        <time>2015-07-19T08:37:52Z</time>
      </trkpt>
      <trkpt lat="45.14808" lon="6.04388">
        <ele>852.22</ele>
        <time>2015-07-19T08:37:59Z</time>
      </trkpt>
      <trkpt lat="45.14753" lon="6.04388">
        <ele>851.47</ele>
        <time>2015-07-19T08:38:06Z</time>
      </trkpt>
      <trkpt lat="45.14729" lon="6.04387">
        <ele>851.2</ele>
        <time>2015-07-19T08:38:09Z</time>
      </trkpt>
      <trkpt lat="45.14721" lon="6.04389">
        <ele>851.06</ele>
        <time>2015-07-19T08:38:10Z</time>
      </trkpt>
      <trkpt lat="45.14662" lon="6.04399">
        <ele>850.59</ele>
        <time>2015-07-19T08:38:17Z</time>
      </trkpt>
      <trkpt lat="45.14613" lon="6.04405">
        <ele>849.89</ele>
        <time>2015-07-19T08:38:24Z</time>
      </trkpt>
      <trkpt lat="45.14559" lon="6.04411">
        <ele>848.81</ele>
        <time>2015-07-19T08:38:31Z</time>
      </trkpt>
      <trkpt lat="45.14521" lon="6.04403">
        <ele>848.69</ele>
        <time>2015-07-19T08:38:36Z</time>
      </trkpt>
      <trkpt lat="45.14466" lon="6.04389">
        <ele>847.87</ele>
        <time>2015-07-19T08:38:43Z</time>
      </trkpt>
      <trkpt lat="45.1442" lon="6.04382">
        <ele>846.86</ele>
        <time>2015-07-19T08:38:50Z</time>
      </trkpt>
      <trkpt lat="45.14416" lon="6.04381">
        <ele>846.63</ele>
        <time>2015-07-19T08:38:51Z</time>
      </trkpt>
      <trkpt lat="45.1441" lon="6.04377">
        <ele>846.51</ele>
        <time>2015-07-19T08:38:52Z</time>
      </trkpt>
      <trkpt lat="45.14357" lon="6.04343">
        <ele>846.37</ele>
        <time>2015-07-19T08:39:02Z</time>
      </trkpt>
      <trkpt lat="45.14312" lon="6.04332">
        <ele>849.22</ele>
        <time>2015-07-19T08:39:15Z</time>
      </trkpt>
      <trkpt lat="45.14269" lon="6.04356">
        <ele>851.28</ele>
        <time>2015-07-19T08:39:29Z</time>
      </trkpt>
      <trkpt lat="45.14232" lon="6.04336">
        <ele>852.91</ele>
        <time>2015-07-19T08:39:38Z</time>
      </trkpt>
      <trkpt lat="45.14227" lon="6.04334">
        <ele>853.18</ele>
        <time>2015-07-19T08:39:39Z</time>
      </trkpt>
      <trkpt lat="45.14174" lon="6.04315">
        <ele>854.74</ele>
        <time>2015-07-19T08:39:54Z</time>
      </trkpt>
      <trkpt lat="45.14167" lon="6.04308">
        <ele>854.85</ele>
        <time>2015-07-19T08:39:56Z</time>
      </trkpt>
      <trkpt lat="45.14153" lon="6.04294">
        <ele>854.86</ele>
        <time>2015-07-19T08:40:00Z</time>
      </trkpt>
      <trkpt lat="45.14146" lon="6.04291">
        <ele>854.89</ele>
        <time>2015-07-19T08:40:01Z</time>
      </trkpt>
      <trkpt lat="45.14139" lon="6.04291">
        <ele>854.9</ele>
        <time>2015-07-19T08:40:02Z</time>
      </trkpt>
      <trkpt lat="45.14133" lon="6.04291">
        <ele>854.87</ele>
        <time>2015-07-19T08:40:03Z</time>
      </trkpt>
      <trkpt lat="45.14125" lon="6.0429">
        <ele>854.84</ele>
        <time>2015-07-19T08:40:04Z</time>
      </trkpt>
      <trkpt lat="45.14116" lon="6.0429">
        <ele>854.81</ele>
        <time>2015-07-19T08:40:05Z</time>
      </trkpt>
      <trkpt lat="45.14092" lon="6.04289">
        <ele>854.35</ele>
        <time>2015-07-19T08:40:08Z</time>
      </trkpt>
      <trkpt lat="45.14083" lon="6.04285">
        <ele>854.11</ele>
        <time>2015-07-19T08:40:09Z</time>
      </trkpt>
      <trkpt lat="45.14077" lon="6.04281">
        <ele>853.9</ele>
        <time>2015-07-19T08:40:10Z</time>
      </trkpt>
      <trkpt lat="45.14054" lon="6.04264">
        <ele>853.31</ele>
        <time>2015-07-19T08:40:14Z</time>
      </trkpt>
      <trkpt lat="45.14048" lon="6.04261">
        <ele>853.23</ele>
        <time>2015-07-19T08:40:15Z</time>
      </trkpt>
      <trkpt lat="45.14041" lon="6.04261">
        <ele>853.17</ele>
        <time>2015-07-19T08:40:16Z</time>
      </trkpt>
      <trkpt lat="45.14033" lon="6.04263">
        <ele>852.95</ele>
        <time>2015-07-19T08:40:17Z</time>
      </trkpt>
      <trkpt lat="45.14025" lon="6.04266">
        <ele>852.75</ele>
        <time>2015-07-19T08:40:18Z</time>
      </trkpt>
      <trkpt lat="45.14019" lon="6.04271">
        <ele>852.58</ele>
        <time>2015-07-19T08:40:19Z</time>
      </trkpt>
      <trkpt lat="45.14053" lon="6.04305">
        <ele>852.21</ele>
        <time>2015-07-19T08:40:20Z</time>
      </trkpt>
      <trkpt lat="45.14044" lon="6.0431">
        <ele>851.25</ele>
        <time>2015-07-19T08:40:21Z</time>
      </trkpt>
      <trkpt lat="45.14018" lon="6.04313">
        <ele>849.56</ele>
        <time>2015-07-19T08:40:24Z</time>
      </trkpt>
      <trkpt lat="45.14012" lon="6.04309">
        <ele>849.38</ele>
        <time>2015-07-19T08:40:25Z</time>
      </trkpt>
      <trkpt lat="45.14004" lon="6.04306">
        <ele>849.23</ele>
        <time>2015-07-19T08:40:26Z</time>
      </trkpt>
      <trkpt lat="45.13934" lon="6.04272">
        <ele>847.21</ele>
        <time>2015-07-19T08:40:33Z</time>
      </trkpt>
      <trkpt lat="45.13924" lon="6.04265">
        <ele>846.62</ele>
        <time>2015-07-19T08:40:34Z</time>
      </trkpt>
      <trkpt lat="45.13907" lon="6.04253">
        <ele>845.35</ele>
        <time>2015-07-19T08:40:36Z</time>
      </trkpt>
      <trkpt lat="45.13898" lon="6.04249">
        <ele>844.39</ele>
        <time>2015-07-19T08:40:37Z</time>
      </trkpt>
      <trkpt lat="45.13889" lon="6.04248">
        <ele>843.51</ele>
        <time>2015-07-19T08:40:38Z</time>
      </trkpt>
      <trkpt lat="45.1387" lon="6.0424">
        <ele>840.53</ele>
        <time>2015-07-19T08:40:41Z</time>
      </trkpt>
      <trkpt lat="45.13866" lon="6.04232">
        <ele>839.74</ele>
        <time>2015-07-19T08:40:42Z</time>
      </trkpt>
      <trkpt lat="45.13864" lon="6.04217">
        <ele>839.05</ele>
        <time>2015-07-19T08:40:43Z</time>
      </trkpt>
      <trkpt lat="45.13861" lon="6.04205">
        <ele>838.36</ele>
        <time>2015-07-19T08:40:44Z</time>
      </trkpt>
      <trkpt lat="45.13858" lon="6.04195">
        <ele>837.58</ele>
        <time>2015-07-19T08:40:45Z</time>
      </trkpt>
      <trkpt lat="45.13854" lon="6.04185">
        <ele>836.82</ele>
        <time>2015-07-19T08:40:46Z</time>
      </trkpt>
      <trkpt lat="45.1385" lon="6.04177">
        <ele>836.04</ele>
        <time>2015-07-19T08:40:47Z</time>
      </trkpt>
      <trkpt lat="45.13844" lon="6.0417">
        <ele>835.37</ele>
        <time>2015-07-19T08:40:48Z</time>
      </trkpt>
      <trkpt lat="45.13838" lon="6.04165">
        <ele>834.55</ele>
        <time>2015-07-19T08:40:49Z</time>
      </trkpt>
      <trkpt lat="45.1383" lon="6.04162">
        <ele>833.81</ele>
        <time>2015-07-19T08:40:50Z</time>
      </trkpt>
      <trkpt lat="45.13821" lon="6.04161">
        <ele>833.19</ele>
        <time>2015-07-19T08:40:51Z</time>
      </trkpt>
      <trkpt lat="45.13811" lon="6.04163">
        <ele>832.8</ele>
        <time>2015-07-19T08:40:52Z</time>
      </trkpt>
      <trkpt lat="45.13801" lon="6.04169">
        <ele>832.29</ele>
        <time>2015-07-19T08:40:53Z</time>
      </trkpt>
      <trkpt lat="45.13866" lon="6.04203">
        <ele>831.82</ele>
        <time>2015-07-19T08:40:54Z</time>
      </trkpt>
      <trkpt lat="45.13897" lon="6.04223">
        <ele>831.64</ele>
        <time>2015-07-19T08:40:55Z</time>
      </trkpt>
      <trkpt lat="45.13935" lon="6.04246">
        <ele>831.47</ele>
        <time>2015-07-19T08:40:56Z</time>
      </trkpt>
      <trkpt lat="45.13934" lon="6.04258">
        <ele>831.16</ele>
        <time>2015-07-19T08:40:57Z</time>
      </trkpt>
      <trkpt lat="45.13932" lon="6.04281">
        <ele>831.01</ele>
        <time>2015-07-19T08:40:59Z</time>
      </trkpt>
      <trkpt lat="45.13915" lon="6.04352">
        <ele>831.43</ele>
        <time>2015-07-19T08:41:06Z</time>
      </trkpt>
      <trkpt lat="45.13912" lon="6.0436">
        <ele>831.43</ele>
        <time>2015-07-19T08:41:07Z</time>
      </trkpt>
      <trkpt lat="45.1391" lon="6.04367">
        <ele>831.49</ele>
        <time>2015-07-19T08:41:08Z</time>
      </trkpt>
      <trkpt lat="45.1388" lon="6.04409">
        <ele>833.59</ele>
        <time>2015-07-19T08:41:18Z</time>
      </trkpt>
      <trkpt lat="45.13859" lon="6.0443">
        <ele>834.92</ele>
        <time>2015-07-19T08:41:23Z</time>
      </trkpt>
      <trkpt lat="45.13831" lon="6.04439">
        <ele>835.12</ele>
        <time>2015-07-19T08:41:24Z</time>
      </trkpt>
      <trkpt lat="45.13815" lon="6.04442">
        <ele>835.26</ele>
        <time>2015-07-19T08:41:25Z</time>
      </trkpt>
      <trkpt lat="45.13805" lon="6.0444">
        <ele>835.42</ele>
        <time>2015-07-19T08:41:26Z</time>
      </trkpt>
      <trkpt lat="45.13798" lon="6.04437">
        <ele>835.45</ele>
        <time>2015-07-19T08:41:27Z</time>
      </trkpt>
      <trkpt lat="45.13793" lon="6.04434">
        <ele>835.45</ele>
        <time>2015-07-19T08:41:28Z</time>
      </trkpt>
      <trkpt lat="45.13747" lon="6.04393">
        <ele>836.21</ele>
        <time>2015-07-19T08:41:38Z</time>
      </trkpt>
      <trkpt lat="45.13742" lon="6.0439">
        <ele>836.31</ele>
        <time>2015-07-19T08:41:39Z</time>
      </trkpt>
      <trkpt lat="45.13737" lon="6.04388">
        <ele>836.37</ele>
        <time>2015-07-19T08:41:40Z</time>
      </trkpt>
      <trkpt lat="45.13733" lon="6.04387">
        <ele>836.44</ele>
        <time>2015-07-19T08:41:41Z</time>
      </trkpt>
      <trkpt lat="45.13728" lon="6.04386">
        <ele>836.6</ele>
        <time>2015-07-19T08:41:42Z</time>
      </trkpt>
      <trkpt lat="45.13723" lon="6.04385">
        <ele>836.8</ele>
        <time>2015-07-19T08:41:43Z</time>
      </trkpt>
      <trkpt lat="45.13702" lon="6.04383">
        <ele>837.38</ele>
        <time>2015-07-19T08:41:47Z</time>
      </trkpt>
      <trkpt lat="45.13697" lon="6.04383">
        <ele>837.49</ele>
        <time>2015-07-19T08:41:48Z</time>
      </trkpt>
      <trkpt lat="45.13671" lon="6.04382">
        <ele>837.95</ele>
        <time>2015-07-19T08:41:53Z</time>
      </trkpt>
      <trkpt lat="45.13666" lon="6.0438">
        <ele>838.04</ele>
        <time>2015-07-19T08:41:54Z</time>
      </trkpt>
      <trkpt lat="45.13662" lon="6.04377">
        <ele>838.09</ele>
        <time>2015-07-19T08:41:55Z</time>
      </trkpt>
      <trkpt lat="45.13653" lon="6.04373">
        <ele>838.29</ele>
        <time>2015-07-19T08:41:57Z</time>
      </trkpt>
      <trkpt lat="45.13649" lon="6.04369">
        <ele>838.52</ele>
        <time>2015-07-19T08:41:58Z</time>
      </trkpt>
      <trkpt lat="45.13611" lon="6.04321">
        <ele>839.59</ele>
        <time>2015-07-19T08:42:07Z</time>
      </trkpt>
      <trkpt lat="45.13566" lon="6.04285">
        <ele>839.93</ele>
        <time>2015-07-19T08:42:16Z</time>
      </trkpt>
      <trkpt lat="45.13517" lon="6.0426">
        <ele>840.4</ele>
        <time>2015-07-19T08:42:25Z</time>
      </trkpt>
      <trkpt lat="45.13512" lon="6.04259">
        <ele>840.49</ele>
        <time>2015-07-19T08:42:26Z</time>
      </trkpt>
      <trkpt lat="45.13458" lon="6.04256">
        <ele>840.63</ele>
        <time>2015-07-19T08:42:36Z</time>
      </trkpt>
      <trkpt lat="45.13436" lon="6.04254">
        <ele>840.91</ele>
        <time>2015-07-19T08:42:40Z</time>
      </trkpt>
      <trkpt lat="45.1343" lon="6.04251">
        <ele>840.9</ele>
        <time>2015-07-19T08:42:41Z</time>
      </trkpt>
      <trkpt lat="45.13425" lon="6.04245">
        <ele>840.99</ele>
        <time>2015-07-19T08:42:42Z</time>
      </trkpt>
      <trkpt lat="45.1342" lon="6.04239">
        <ele>841.03</ele>
        <time>2015-07-19T08:42:43Z</time>
      </trkpt>
      <trkpt lat="45.13416" lon="6.04232">
        <ele>841.09</ele>
        <time>2015-07-19T08:42:44Z</time>
      </trkpt>
      <trkpt lat="45.13412" lon="6.04226">
        <ele>841.07</ele>
        <time>2015-07-19T08:42:45Z</time>
      </trkpt>
      <trkpt lat="45.13368" lon="6.04175">
        <ele>840.91</ele>
        <time>2015-07-19T08:42:54Z</time>
      </trkpt>
      <trkpt lat="45.13327" lon="6.04124">
        <ele>841.35</ele>
        <time>2015-07-19T08:43:03Z</time>
      </trkpt>
      <trkpt lat="45.13303" lon="6.04087">
        <ele>841.46</ele>
        <time>2015-07-19T08:43:09Z</time>
      </trkpt>
      <trkpt lat="45.133" lon="6.0408">
        <ele>841.41</ele>
        <time>2015-07-19T08:43:10Z</time>
      </trkpt>
      <trkpt lat="45.13297" lon="6.04074">
        <ele>841.34</ele>
        <time>2015-07-19T08:43:11Z</time>
      </trkpt>
      <trkpt lat="45.13294" lon="6.04069">
        <ele>841.43</ele>
        <time>2015-07-19T08:43:12Z</time>
      </trkpt>
      <trkpt lat="45.1329" lon="6.04065">
        <ele>841.45</ele>
        <time>2015-07-19T08:43:13Z</time>
      </trkpt>
      <trkpt lat="45.13285" lon="6.04061">
        <ele>841.49</ele>
        <time>2015-07-19T08:43:14Z</time>
      </trkpt>
      <trkpt lat="45.13242" lon="6.04019">
        <ele>841.76</ele>
        <time>2015-07-19T08:43:30Z</time>
      </trkpt>
      <trkpt lat="45.13229" lon="6.03995">
        <ele>841.92</ele>
        <time>2015-07-19T08:43:36Z</time>
      </trkpt>
      <trkpt lat="45.13203" lon="6.03932">
        <ele>842.75</ele>
        <time>2015-07-19T08:43:47Z</time>
      </trkpt>
      <trkpt lat="45.13199" lon="6.03921">
        <ele>842.71</ele>
        <time>2015-07-19T08:43:49Z</time>
      </trkpt>
      <trkpt lat="45.13198" lon="6.03916">
        <ele>842.7</ele>
        <time>2015-07-19T08:43:50Z</time>
      </trkpt>
      <trkpt lat="45.13197" lon="6.0391">
        <ele>842.82</ele>
        <time>2015-07-19T08:43:51Z</time>
      </trkpt>
      <trkpt lat="45.13178" lon="6.03845">
        <ele>843.87</ele>
        <time>2015-07-19T08:44:01Z</time>
      </trkpt>
      <trkpt lat="45.13176" lon="6.03839">
        <ele>844.06</ele>
        <time>2015-07-19T08:44:02Z</time>
      </trkpt>
      <trkpt lat="45.13173" lon="6.03833">
        <ele>844.23</ele>
        <time>2015-07-19T08:44:03Z</time>
      </trkpt>
      <trkpt lat="45.13164" lon="6.03819">
        <ele>844.71</ele>
        <time>2015-07-19T08:44:06Z</time>
      </trkpt>
      <trkpt lat="45.13162" lon="6.03814">
        <ele>844.89</ele>
        <time>2015-07-19T08:44:07Z</time>
      </trkpt>
      <trkpt lat="45.13161" lon="6.03809">
        <ele>845.08</ele>
        <time>2015-07-19T08:44:08Z</time>
      </trkpt>
      <trkpt lat="45.13136" lon="6.03745">
        <ele>848.04</ele>
        <time>2015-07-19T08:44:23Z</time>
      </trkpt>
      <trkpt lat="45.1313" lon="6.03729">
        <ele>848.03</ele>
        <time>2015-07-19T08:44:26Z</time>
      </trkpt>
      <trkpt lat="45.13128" lon="6.03723">
        <ele>848.03</ele>
        <time>2015-07-19T08:44:27Z</time>
      </trkpt>
      <trkpt lat="45.13098" lon="6.03672">
        <ele>850.06</ele>
        <time>2015-07-19T08:44:41Z</time>
      </trkpt>
      <trkpt lat="45.13061" lon="6.0363">
        <ele>850.09</ele>
        <time>2015-07-19T08:44:52Z</time>
      </trkpt>
      <trkpt lat="45.1304" lon="6.03572">
        <ele>849.08</ele>
        <time>2015-07-19T08:45:00Z</time>
      </trkpt>
      <trkpt lat="45.13036" lon="6.03565">
        <ele>848.56</ele>
        <time>2015-07-19T08:45:01Z</time>
      </trkpt>
      <trkpt lat="45.13031" lon="6.03558">
        <ele>848.17</ele>
        <time>2015-07-19T08:45:02Z</time>
      </trkpt>
      <trkpt lat="45.12997" lon="6.03519">
        <ele>845.24</ele>
        <time>2015-07-19T08:45:07Z</time>
      </trkpt>
      <trkpt lat="45.12992" lon="6.03508">
        <ele>844.72</ele>
        <time>2015-07-19T08:45:08Z</time>
      </trkpt>
      <trkpt lat="45.12988" lon="6.03496">
        <ele>844.27</ele>
        <time>2015-07-19T08:45:09Z</time>
      </trkpt>
      <trkpt lat="45.12986" lon="6.03482">
        <ele>843.73</ele>
        <time>2015-07-19T08:45:10Z</time>
      </trkpt>
      <trkpt lat="45.12984" lon="6.03468">
        <ele>842.97</ele>
        <time>2015-07-19T08:45:11Z</time>
      </trkpt>
      <trkpt lat="45.12982" lon="6.03455">
        <ele>841.88</ele>
        <time>2015-07-19T08:45:12Z</time>
      </trkpt>
      <trkpt lat="45.12979" lon="6.03434">
        <ele>839.94</ele>
        <time>2015-07-19T08:45:14Z</time>
      </trkpt>
      <trkpt lat="45.12976" lon="6.03428">
        <ele>839.4</ele>
        <time>2015-07-19T08:45:15Z</time>
      </trkpt>
      <trkpt lat="45.12971" lon="6.03425">
        <ele>838.7</ele>
        <time>2015-07-19T08:45:16Z</time>
      </trkpt>
      <trkpt lat="45.12967" lon="6.03425">
        <ele>838.32</ele>
        <time>2015-07-19T08:45:17Z</time>
      </trkpt>
      <trkpt lat="45.12964" lon="6.0343">
        <ele>838.01</ele>
        <time>2015-07-19T08:45:18Z</time>
      </trkpt>
      <trkpt lat="45.12961" lon="6.03435">
        <ele>837.7</ele>
        <time>2015-07-19T08:45:19Z</time>
      </trkpt>
      <trkpt lat="45.12959" lon="6.03442">
        <ele>837.46</ele>
        <time>2015-07-19T08:45:20Z</time>
      </trkpt>
      <trkpt lat="45.12957" lon="6.03449">
        <ele>837.34</ele>
        <time>2015-07-19T08:45:21Z</time>
      </trkpt>
      <trkpt lat="45.12956" lon="6.03458">
        <ele>837.16</ele>
        <time>2015-07-19T08:45:22Z</time>
      </trkpt>
      <trkpt lat="45.12957" lon="6.03468">
        <ele>836.79</ele>
        <time>2015-07-19T08:45:23Z</time>
      </trkpt>
      <trkpt lat="45.12957" lon="6.03479">
        <ele>836.32</ele>
        <time>2015-07-19T08:45:24Z</time>
      </trkpt>
      <trkpt lat="45.12953" lon="6.0354">
        <ele>833.98</ele>
        <time>2015-07-19T08:45:29Z</time>
      </trkpt>
      <trkpt lat="45.12946" lon="6.03614">
        <ele>830.8</ele>
        <time>2015-07-19T08:45:34Z</time>
      </trkpt>
      <trkpt lat="45.12947" lon="6.0367">
        <ele>827.36</ele>
        <time>2015-07-19T08:45:38Z</time>
      </trkpt>
      <trkpt lat="45.12964" lon="6.03717">
        <ele>824.64</ele>
        <time>2015-07-19T08:45:41Z</time>
      </trkpt>
      <trkpt lat="45.12971" lon="6.03732">
        <ele>823.36</ele>
        <time>2015-07-19T08:45:42Z</time>
      </trkpt>
      <trkpt lat="45.12993" lon="6.03772">
        <ele>821.66</ele>
        <time>2015-07-19T08:45:45Z</time>
      </trkpt>
      <trkpt lat="45.13005" lon="6.03783">
        <ele>821.38</ele>
        <time>2015-07-19T08:45:46Z</time>
      </trkpt>
      <trkpt lat="45.13017" lon="6.03791">
        <ele>820.92</ele>
        <time>2015-07-19T08:45:47Z</time>
      </trkpt>
      <trkpt lat="45.13028" lon="6.03799">
        <ele>820.21</ele>
        <time>2015-07-19T08:45:48Z</time>
      </trkpt>
      <trkpt lat="45.13038" lon="6.03805">
        <ele>819.18</ele>
        <time>2015-07-19T08:45:49Z</time>
      </trkpt>
      <trkpt lat="45.13048" lon="6.03809">
        <ele>818.03</ele>
        <time>2015-07-19T08:45:50Z</time>
      </trkpt>
      <trkpt lat="45.13054" lon="6.03813">
        <ele>817.14</ele>
        <time>2015-07-19T08:45:51Z</time>
      </trkpt>
      <trkpt lat="45.13059" lon="6.03818">
        <ele>816.74</ele>
        <time>2015-07-19T08:45:52Z</time>
      </trkpt>
      <trkpt lat="45.13063" lon="6.03824">
        <ele>816.58</ele>
        <time>2015-07-19T08:45:53Z</time>
      </trkpt>
      <trkpt lat="45.13066" lon="6.03829">
        <ele>816.64</ele>
        <time>2015-07-19T08:45:54Z</time>
      </trkpt>
      <trkpt lat="45.13069" lon="6.03835">
        <ele>816.75</ele>
        <time>2015-07-19T08:45:55Z</time>
      </trkpt>
      <trkpt lat="45.13072" lon="6.03841">
        <ele>817.11</ele>
        <time>2015-07-19T08:45:56Z</time>
      </trkpt>
      <trkpt lat="45.13103" lon="6.03897">
        <ele>819.63</ele>
        <time>2015-07-19T08:46:07Z</time>
      </trkpt>
      <trkpt lat="45.13112" lon="6.03922">
        <ele>819.54</ele>
        <time>2015-07-19T08:46:11Z</time>
      </trkpt>
      <trkpt lat="45.13133" lon="6.03998">
        <ele>817.7</ele>
        <time>2015-07-19T08:46:19Z</time>
      </trkpt>
      <trkpt lat="45.13154" lon="6.04076">
        <ele>814.62</ele>
        <time>2015-07-19T08:46:25Z</time>
      </trkpt>
      <trkpt lat="45.13161" lon="6.04089">
        <ele>813.7</ele>
        <time>2015-07-19T08:46:26Z</time>
      </trkpt>
      <trkpt lat="45.13168" lon="6.041">
        <ele>812.63</ele>
        <time>2015-07-19T08:46:27Z</time>
      </trkpt>
      <trkpt lat="45.13175" lon="6.04112">
        <ele>811.5</ele>
        <time>2015-07-19T08:46:28Z</time>
      </trkpt>
      <trkpt lat="45.13179" lon="6.04122">
        <ele>810.33</ele>
        <time>2015-07-19T08:46:29Z</time>
      </trkpt>
      <trkpt lat="45.1318" lon="6.04131">
        <ele>809.32</ele>
        <time>2015-07-19T08:46:30Z</time>
      </trkpt>
      <trkpt lat="45.13178" lon="6.04136">
        <ele>808.62</ele>
        <time>2015-07-19T08:46:31Z</time>
      </trkpt>
      <trkpt lat="45.13178" lon="6.04139">
        <ele>808.09</ele>
        <time>2015-07-19T08:46:32Z</time>
      </trkpt>
      <trkpt lat="45.13171" lon="6.04133">
        <ele>807.6</ele>
        <time>2015-07-19T08:46:34Z</time>
      </trkpt>
      <trkpt lat="45.13168" lon="6.04126">
        <ele>807.58</ele>
        <time>2015-07-19T08:46:35Z</time>
      </trkpt>
      <trkpt lat="45.13163" lon="6.04118">
        <ele>807.58</ele>
        <time>2015-07-19T08:46:36Z</time>
      </trkpt>
      <trkpt lat="45.13156" lon="6.0411">
        <ele>807.4</ele>
        <time>2015-07-19T08:46:37Z</time>
      </trkpt>
      <trkpt lat="45.13148" lon="6.04101">
        <ele>806.63</ele>
        <time>2015-07-19T08:46:38Z</time>
      </trkpt>
      <trkpt lat="45.1314" lon="6.04093">
        <ele>806.19</ele>
        <time>2015-07-19T08:46:39Z</time>
      </trkpt>
      <trkpt lat="45.13089" lon="6.04041">
        <ele>802.67</ele>
        <time>2015-07-19T08:46:45Z</time>
      </trkpt>
      <trkpt lat="45.1307" lon="6.04008">
        <ele>800.34</ele>
        <time>2015-07-19T08:46:48Z</time>
      </trkpt>
      <trkpt lat="45.13064" lon="6.03998">
        <ele>799.45</ele>
        <time>2015-07-19T08:46:49Z</time>
      </trkpt>
      <trkpt lat="45.13057" lon="6.03991">
        <ele>798.42</ele>
        <time>2015-07-19T08:46:50Z</time>
      </trkpt>
      <trkpt lat="45.13052" lon="6.03986">
        <ele>797.43</ele>
        <time>2015-07-19T08:46:51Z</time>
      </trkpt>
      <trkpt lat="45.13045" lon="6.03982">
        <ele>796.63</ele>
        <time>2015-07-19T08:46:52Z</time>
      </trkpt>
      <trkpt lat="45.13038" lon="6.0398">
        <ele>795.66</ele>
        <time>2015-07-19T08:46:53Z</time>
      </trkpt>
      <trkpt lat="45.13032" lon="6.03979">
        <ele>794.65</ele>
        <time>2015-07-19T08:46:54Z</time>
      </trkpt>
      <trkpt lat="45.13027" lon="6.03978">
        <ele>793.85</ele>
        <time>2015-07-19T08:46:55Z</time>
      </trkpt>
      <trkpt lat="45.13023" lon="6.03982">
        <ele>793.11</ele>
        <time>2015-07-19T08:46:56Z</time>
      </trkpt>
      <trkpt lat="45.13019" lon="6.03985">
        <ele>792.75</ele>
        <time>2015-07-19T08:46:57Z</time>
      </trkpt>
      <trkpt lat="45.13019" lon="6.03992">
        <ele>792.44</ele>
        <time>2015-07-19T08:46:58Z</time>
      </trkpt>
      <trkpt lat="45.13022" lon="6.03998">
        <ele>792.25</ele>
        <time>2015-07-19T08:46:59Z</time>
      </trkpt>
      <trkpt lat="45.13024" lon="6.04003">
        <ele>792.25</ele>
        <time>2015-07-19T08:47:00Z</time>
      </trkpt>
      <trkpt lat="45.13027" lon="6.04007">
        <ele>792.37</ele>
        <time>2015-07-19T08:47:01Z</time>
      </trkpt>
      <trkpt lat="45.13031" lon="6.04012">
        <ele>792.42</ele>
        <time>2015-07-19T08:47:02Z</time>
      </trkpt>
      <trkpt lat="45.13035" lon="6.04016">
        <ele>792.22</ele>
        <time>2015-07-19T08:47:03Z</time>
      </trkpt>
      <trkpt lat="45.13041" lon="6.04021">
        <ele>791.95</ele>
        <time>2015-07-19T08:47:04Z</time>
      </trkpt>
      <trkpt lat="45.13047" lon="6.04025">
        <ele>791.45</ele>
        <time>2015-07-19T08:47:05Z</time>
      </trkpt>
      <trkpt lat="45.13051" lon="6.0403">
        <ele>790.86</ele>
        <time>2015-07-19T08:47:06Z</time>
      </trkpt>
      <trkpt lat="45.13054" lon="6.04034">
        <ele>790.14</ele>
        <time>2015-07-19T08:47:07Z</time>
      </trkpt>
      <trkpt lat="45.13058" lon="6.04039">
        <ele>789.72</ele>
        <time>2015-07-19T08:47:08Z</time>
      </trkpt>
      <trkpt lat="45.13064" lon="6.04057">
        <ele>787.74</ele>
        <time>2015-07-19T08:47:12Z</time>
      </trkpt>
      <trkpt lat="45.13066" lon="6.04069">
        <ele>787.54</ele>
        <time>2015-07-19T08:47:14Z</time>
      </trkpt>
      <trkpt lat="45.13069" lon="6.04075">
        <ele>787.44</ele>
        <time>2015-07-19T08:47:15Z</time>
      </trkpt>
      <trkpt lat="45.13072" lon="6.0408">
        <ele>787.2</ele>
        <time>2015-07-19T08:47:16Z</time>
      </trkpt>
      <trkpt lat="45.13075" lon="6.04087">
        <ele>786.92</ele>
        <time>2015-07-19T08:47:17Z</time>
      </trkpt>
      <trkpt lat="45.13077" lon="6.04094">
        <ele>786.81</ele>
        <time>2015-07-19T08:47:18Z</time>
      </trkpt>
      <trkpt lat="45.13077" lon="6.04102">
        <ele>786.93</ele>
        <time>2015-07-19T08:47:19Z</time>
      </trkpt>
      <trkpt lat="45.13074" lon="6.04109">
        <ele>787.08</ele>
        <time>2015-07-19T08:47:20Z</time>
      </trkpt>
      <trkpt lat="45.13072" lon="6.04116">
        <ele>787.18</ele>
        <time>2015-07-19T08:47:21Z</time>
      </trkpt>
      <trkpt lat="45.13068" lon="6.04123">
        <ele>787.24</ele>
        <time>2015-07-19T08:47:22Z</time>
      </trkpt>
      <trkpt lat="45.13033" lon="6.04181">
        <ele>786.94</ele>
        <time>2015-07-19T08:47:31Z</time>
      </trkpt>
      <trkpt lat="45.13003" lon="6.04232">
        <ele>787.3</ele>
        <time>2015-07-19T08:47:39Z</time>
      </trkpt>
      <trkpt lat="45.12971" lon="6.04288">
        <ele>787.32</ele>
        <time>2015-07-19T08:47:48Z</time>
      </trkpt>
      <trkpt lat="45.12938" lon="6.04342">
        <ele>787.51</ele>
        <time>2015-07-19T08:47:56Z</time>
      </trkpt>
      <trkpt lat="45.12904" lon="6.04395">
        <ele>787.26</ele>
        <time>2015-07-19T08:48:04Z</time>
      </trkpt>
      <trkpt lat="45.12871" lon="6.04449">
        <ele>787.13</ele>
        <time>2015-07-19T08:48:12Z</time>
      </trkpt>
      <trkpt lat="45.12842" lon="6.045">
        <ele>786.85</ele>
        <time>2015-07-19T08:48:20Z</time>
      </trkpt>
      <trkpt lat="45.12823" lon="6.0453">
        <ele>786.99</ele>
        <time>2015-07-19T08:48:25Z</time>
      </trkpt>
      <trkpt lat="45.12819" lon="6.04531">
        <ele>786.97</ele>
        <time>2015-07-19T08:48:26Z</time>
      </trkpt>
      <trkpt lat="45.12815" lon="6.0453">
        <ele>787.03</ele>
        <time>2015-07-19T08:48:27Z</time>
      </trkpt>
      <trkpt lat="45.1281" lon="6.04526">
        <ele>787.06</ele>
        <time>2015-07-19T08:48:28Z</time>
      </trkpt>
      <trkpt lat="45.12805" lon="6.04522">
        <ele>787.07</ele>
        <time>2015-07-19T08:48:29Z</time>
      </trkpt>
      <trkpt lat="45.128" lon="6.04516">
        <ele>787.06</ele>
        <time>2015-07-19T08:48:30Z</time>
      </trkpt>
      <trkpt lat="45.12796" lon="6.0451">
        <ele>787.07</ele>
        <time>2015-07-19T08:48:31Z</time>
      </trkpt>
      <trkpt lat="45.1279" lon="6.04495">
        <ele>787.08</ele>
        <time>2015-07-19T08:48:33Z</time>
      </trkpt>
      <trkpt lat="45.12758" lon="6.04435">
        <ele>788.03</ele>
        <time>2015-07-19T08:48:42Z</time>
      </trkpt>
      <trkpt lat="45.1275" lon="6.04421">
        <ele>788.72</ele>
        <time>2015-07-19T08:48:45Z</time>
      </trkpt>
      <trkpt lat="45.12748" lon="6.04417">
        <ele>789.05</ele>
        <time>2015-07-19T08:48:46Z</time>
      </trkpt>
      <trkpt lat="45.12712" lon="6.0439">
        <ele>792.06</ele>
        <time>2015-07-19T08:48:57Z</time>
      </trkpt>
      <trkpt lat="45.12681" lon="6.04363">
        <ele>795.15</ele>
        <time>2015-07-19T08:49:10Z</time>
      </trkpt>
      <trkpt lat="45.12654" lon="6.0434">
        <ele>798.41</ele>
        <time>2015-07-19T08:49:23Z</time>
      </trkpt>
      <trkpt lat="45.12629" lon="6.04318">
        <ele>801.44</ele>
        <time>2015-07-19T08:49:35Z</time>
      </trkpt>
      <trkpt lat="45.12601" lon="6.0428">
        <ele>804.5</ele>
        <time>2015-07-19T08:49:47Z</time>
      </trkpt>
      <trkpt lat="45.12599" lon="6.04237">
        <ele>807.61</ele>
        <time>2015-07-19T08:49:59Z</time>
      </trkpt>
      <trkpt lat="45.12592" lon="6.04201">
        <ele>810.72</ele>
        <time>2015-07-19T08:50:11Z</time>
      </trkpt>
      <trkpt lat="45.1258" lon="6.04166">
        <ele>813.93</ele>
        <time>2015-07-19T08:50:23Z</time>
      </trkpt>
      <trkpt lat="45.12563" lon="6.04127">
        <ele>816.95</ele>
        <time>2015-07-19T08:50:34Z</time>
      </trkpt>
      <trkpt lat="45.12548" lon="6.0409">
        <ele>820.02</ele>
        <time>2015-07-19T08:50:45Z</time>
      </trkpt>
      <trkpt lat="45.12538" lon="6.04051">
        <ele>823.06</ele>
        <time>2015-07-19T08:50:53Z</time>
      </trkpt>
      <trkpt lat="45.12536" lon="6.04044">
        <ele>823.43</ele>
        <time>2015-07-19T08:50:54Z</time>
      </trkpt>
      <trkpt lat="45.12534" lon="6.04038">
        <ele>823.66</ele>
        <time>2015-07-19T08:50:55Z</time>
      </trkpt>
      <trkpt lat="45.12532" lon="6.04032">
        <ele>823.81</ele>
        <time>2015-07-19T08:50:56Z</time>
      </trkpt>
      <trkpt lat="45.1253" lon="6.04027">
        <ele>823.95</ele>
        <time>2015-07-19T08:50:57Z</time>
      </trkpt>
      <trkpt lat="45.12522" lon="6.0402">
        <ele>824.14</ele>
        <time>2015-07-19T08:50:58Z</time>
      </trkpt>
      <trkpt lat="45.12506" lon="6.04005">
        <ele>824.49</ele>
        <time>2015-07-19T08:51:02Z</time>
      </trkpt>
      <trkpt lat="45.12502" lon="6.04002">
        <ele>824.51</ele>
        <time>2015-07-19T08:51:03Z</time>
      </trkpt>
      <trkpt lat="45.12495" lon="6.03993">
        <ele>824.66</ele>
        <time>2015-07-19T08:51:05Z</time>
      </trkpt>
      <trkpt lat="45.12491" lon="6.03987">
        <ele>824.71</ele>
        <time>2015-07-19T08:51:06Z</time>
      </trkpt>
      <trkpt lat="45.12489" lon="6.03981">
        <ele>824.66</ele>
        <time>2015-07-19T08:51:07Z</time>
      </trkpt>
      <trkpt lat="45.12467" lon="6.03918">
        <ele>823.47</ele>
        <time>2015-07-19T08:51:16Z</time>
      </trkpt>
      <trkpt lat="45.12461" lon="6.03893">
        <ele>823.12</ele>
        <time>2015-07-19T08:51:19Z</time>
      </trkpt>
      <trkpt lat="45.12447" lon="6.03825">
        <ele>821.58</ele>
        <time>2015-07-19T08:51:26Z</time>
      </trkpt>
      <trkpt lat="45.12433" lon="6.03782">
        <ele>820.84</ele>
        <time>2015-07-19T08:51:30Z</time>
      </trkpt>
      <trkpt lat="45.12407" lon="6.0373">
        <ele>817.61</ele>
        <time>2015-07-19T08:51:35Z</time>
      </trkpt>
      <trkpt lat="45.12373" lon="6.03666">
        <ele>814.75</ele>
        <time>2015-07-19T08:51:40Z</time>
      </trkpt>
      <trkpt lat="45.12335" lon="6.03599">
        <ele>811.97</ele>
        <time>2015-07-19T08:51:45Z</time>
      </trkpt>
      <trkpt lat="45.12326" lon="6.03587">
        <ele>810.95</ele>
        <time>2015-07-19T08:51:46Z</time>
      </trkpt>
      <trkpt lat="45.12298" lon="6.0355">
        <ele>807.59</ele>
        <time>2015-07-19T08:51:49Z</time>
      </trkpt>
      <trkpt lat="45.12264" lon="6.03497">
        <ele>804.78</ele>
        <time>2015-07-19T08:51:53Z</time>
      </trkpt>
      <trkpt lat="45.12254" lon="6.03487">
        <ele>803.94</ele>
        <time>2015-07-19T08:51:54Z</time>
      </trkpt>
      <trkpt lat="45.12242" lon="6.03479">
        <ele>802.92</ele>
        <time>2015-07-19T08:51:55Z</time>
      </trkpt>
      <trkpt lat="45.12229" lon="6.03475">
        <ele>801.92</ele>
        <time>2015-07-19T08:51:56Z</time>
      </trkpt>
      <trkpt lat="45.12215" lon="6.03473">
        <ele>800.29</ele>
        <time>2015-07-19T08:51:57Z</time>
      </trkpt>
      <trkpt lat="45.12202" lon="6.03473">
        <ele>798.58</ele>
        <time>2015-07-19T08:51:58Z</time>
      </trkpt>
      <trkpt lat="45.12191" lon="6.03478">
        <ele>797</ele>
        <time>2015-07-19T08:51:59Z</time>
      </trkpt>
      <trkpt lat="45.12181" lon="6.03482">
        <ele>795.6</ele>
        <time>2015-07-19T08:52:00Z</time>
      </trkpt>
      <trkpt lat="45.12171" lon="6.03485">
        <ele>793.97</ele>
        <time>2015-07-19T08:52:01Z</time>
      </trkpt>
      <trkpt lat="45.12162" lon="6.03486">
        <ele>792.37</ele>
        <time>2015-07-19T08:52:02Z</time>
      </trkpt>
      <trkpt lat="45.12153" lon="6.03482">
        <ele>791.01</ele>
        <time>2015-07-19T08:52:03Z</time>
      </trkpt>
      <trkpt lat="45.12146" lon="6.03475">
        <ele>790.02</ele>
        <time>2015-07-19T08:52:04Z</time>
      </trkpt>
      <trkpt lat="45.12141" lon="6.03465">
        <ele>789.57</ele>
        <time>2015-07-19T08:52:05Z</time>
      </trkpt>
      <trkpt lat="45.12139" lon="6.03452">
        <ele>789.03</ele>
        <time>2015-07-19T08:52:06Z</time>
      </trkpt>
      <trkpt lat="45.12141" lon="6.0344">
        <ele>788.41</ele>
        <time>2015-07-19T08:52:07Z</time>
      </trkpt>
      <trkpt lat="45.12143" lon="6.03428">
        <ele>787.87</ele>
        <time>2015-07-19T08:52:08Z</time>
      </trkpt>
      <trkpt lat="45.12151" lon="6.03418">
        <ele>787.42</ele>
        <time>2015-07-19T08:52:09Z</time>
      </trkpt>
      <trkpt lat="45.12154" lon="6.03404">
        <ele>786.98</ele>
        <time>2015-07-19T08:52:10Z</time>
      </trkpt>
      <trkpt lat="45.12157" lon="6.0339">
        <ele>786.6</ele>
        <time>2015-07-19T08:52:11Z</time>
      </trkpt>
      <trkpt lat="45.12158" lon="6.03374">
        <ele>785.77</ele>
        <time>2015-07-19T08:52:12Z</time>
      </trkpt>
      <trkpt lat="45.12155" lon="6.03357">
        <ele>784.59</ele>
        <time>2015-07-19T08:52:13Z</time>
      </trkpt>
      <trkpt lat="45.12151" lon="6.03341">
        <ele>783.86</ele>
        <time>2015-07-19T08:52:14Z</time>
      </trkpt>
      <trkpt lat="45.12145" lon="6.03326">
        <ele>782.79</ele>
        <time>2015-07-19T08:52:15Z</time>
      </trkpt>
      <trkpt lat="45.12139" lon="6.03311">
        <ele>782.18</ele>
        <time>2015-07-19T08:52:16Z</time>
      </trkpt>
      <trkpt lat="45.12126" lon="6.03264">
        <ele>780.43</ele>
        <time>2015-07-19T08:52:19Z</time>
      </trkpt>
      <trkpt lat="45.12117" lon="6.03234">
        <ele>779.77</ele>
        <time>2015-07-19T08:52:21Z</time>
      </trkpt>
      <trkpt lat="45.12112" lon="6.0322">
        <ele>779.47</ele>
        <time>2015-07-19T08:52:22Z</time>
      </trkpt>
      <trkpt lat="45.12106" lon="6.03207">
        <ele>779.44</ele>
        <time>2015-07-19T08:52:23Z</time>
      </trkpt>
      <trkpt lat="45.121" lon="6.03195">
        <ele>779.37</ele>
        <time>2015-07-19T08:52:24Z</time>
      </trkpt>
      <trkpt lat="45.12094" lon="6.03183">
        <ele>779.23</ele>
        <time>2015-07-19T08:52:25Z</time>
      </trkpt>
      <trkpt lat="45.12083" lon="6.03161">
        <ele>778.11</ele>
        <time>2015-07-19T08:52:27Z</time>
      </trkpt>
      <trkpt lat="45.12057" lon="6.03107">
        <ele>777.5</ele>
        <time>2015-07-19T08:52:32Z</time>
      </trkpt>
      <trkpt lat="45.12032" lon="6.03039">
        <ele>776.61</ele>
        <time>2015-07-19T08:52:38Z</time>
      </trkpt>
      <trkpt lat="45.12012" lon="6.02967">
        <ele>776.39</ele>
        <time>2015-07-19T08:52:44Z</time>
      </trkpt>
      <trkpt lat="45.11991" lon="6.02898">
        <ele>775.66</ele>
        <time>2015-07-19T08:52:50Z</time>
      </trkpt>
      <trkpt lat="45.11969" lon="6.02824">
        <ele>774.14</ele>
        <time>2015-07-19T08:52:56Z</time>
      </trkpt>
      <trkpt lat="45.11938" lon="6.02753">
        <ele>771.33</ele>
        <time>2015-07-19T08:53:02Z</time>
      </trkpt>
      <trkpt lat="45.11905" lon="6.02692">
        <ele>768.75</ele>
        <time>2015-07-19T08:53:07Z</time>
      </trkpt>
      <trkpt lat="45.11886" lon="6.02669">
        <ele>767.5</ele>
        <time>2015-07-19T08:53:09Z</time>
      </trkpt>
      <trkpt lat="45.11876" lon="6.02659">
        <ele>766.39</ele>
        <time>2015-07-19T08:53:10Z</time>
      </trkpt>
      <trkpt lat="45.11825" lon="6.02606">
        <ele>762.35</ele>
        <time>2015-07-19T08:53:15Z</time>
      </trkpt>
      <trkpt lat="45.11766" lon="6.02565">
        <ele>758.51</ele>
        <time>2015-07-19T08:53:19Z</time>
      </trkpt>
      <trkpt lat="45.11703" lon="6.02538">
        <ele>754.33</ele>
        <time>2015-07-19T08:53:23Z</time>
      </trkpt>
      <trkpt lat="45.1166" lon="6.02522">
        <ele>751.31</ele>
        <time>2015-07-19T08:53:26Z</time>
      </trkpt>
      <trkpt lat="45.11621" lon="6.0251">
        <ele>748.22</ele>
        <time>2015-07-19T08:53:29Z</time>
      </trkpt>
      <trkpt lat="45.11607" lon="6.02509">
        <ele>747</ele>
        <time>2015-07-19T08:53:30Z</time>
      </trkpt>
      <trkpt lat="45.11568" lon="6.02508">
        <ele>743.43</ele>
        <time>2015-07-19T08:53:33Z</time>
      </trkpt>
      <trkpt lat="45.11556" lon="6.02503">
        <ele>742.22</ele>
        <time>2015-07-19T08:53:34Z</time>
      </trkpt>
      <trkpt lat="45.11544" lon="6.02495">
        <ele>741.13</ele>
        <time>2015-07-19T08:53:35Z</time>
      </trkpt>
      <trkpt lat="45.11533" lon="6.02486">
        <ele>739.84</ele>
        <time>2015-07-19T08:53:36Z</time>
      </trkpt>
      <trkpt lat="45.11525" lon="6.02474">
        <ele>738.93</ele>
        <time>2015-07-19T08:53:37Z</time>
      </trkpt>
      <trkpt lat="45.11516" lon="6.02461">
        <ele>737.65</ele>
        <time>2015-07-19T08:53:38Z</time>
      </trkpt>
      <trkpt lat="45.11507" lon="6.02447">
        <ele>736.63</ele>
        <time>2015-07-19T08:53:39Z</time>
      </trkpt>
      <trkpt lat="45.11499" lon="6.02432">
        <ele>736.66</ele>
        <time>2015-07-19T08:53:40Z</time>
      </trkpt>
      <trkpt lat="45.11477" lon="6.0239">
        <ele>735.93</ele>
        <time>2015-07-19T08:53:43Z</time>
      </trkpt>
      <trkpt lat="45.11463" lon="6.02375">
        <ele>735.62</ele>
        <time>2015-07-19T08:53:44Z</time>
      </trkpt>
      <trkpt lat="45.11459" lon="6.0236">
        <ele>735.26</ele>
        <time>2015-07-19T08:53:45Z</time>
      </trkpt>
      <trkpt lat="45.11456" lon="6.02344">
        <ele>734.76</ele>
        <time>2015-07-19T08:53:46Z</time>
      </trkpt>
      <trkpt lat="45.11455" lon="6.02328">
        <ele>734.35</ele>
        <time>2015-07-19T08:53:47Z</time>
      </trkpt>
      <trkpt lat="45.11454" lon="6.02312">
        <ele>734</ele>
        <time>2015-07-19T08:53:48Z</time>
      </trkpt>
      <trkpt lat="45.11455" lon="6.02296">
        <ele>733.83</ele>
        <time>2015-07-19T08:53:49Z</time>
      </trkpt>
      <trkpt lat="45.11456" lon="6.02221">
        <ele>733.69</ele>
        <time>2015-07-19T08:53:54Z</time>
      </trkpt>
      <trkpt lat="45.11457" lon="6.02135">
        <ele>733.42</ele>
        <time>2015-07-19T08:54:00Z</time>
      </trkpt>
      <trkpt lat="45.11464" lon="6.02055">
        <ele>733</ele>
        <time>2015-07-19T08:54:06Z</time>
      </trkpt>
      <trkpt lat="45.11466" lon="6.02043">
        <ele>732.97</ele>
        <time>2015-07-19T08:54:07Z</time>
      </trkpt>
      <trkpt lat="45.11469" lon="6.02032">
        <ele>732.98</ele>
        <time>2015-07-19T08:54:08Z</time>
      </trkpt>
      <trkpt lat="45.11491" lon="6.01964">
        <ele>733.27</ele>
        <time>2015-07-19T08:54:14Z</time>
      </trkpt>
      <trkpt lat="45.11515" lon="6.0189">
        <ele>732.85</ele>
        <time>2015-07-19T08:54:21Z</time>
      </trkpt>
      <trkpt lat="45.11539" lon="6.01819">
        <ele>732.73</ele>
        <time>2015-07-19T08:54:28Z</time>
      </trkpt>
      <trkpt lat="45.11561" lon="6.01751">
        <ele>732.8</ele>
        <time>2015-07-19T08:54:35Z</time>
      </trkpt>
      <trkpt lat="45.11584" lon="6.01684">
        <ele>732.44</ele>
        <time>2015-07-19T08:54:42Z</time>
      </trkpt>
      <trkpt lat="45.11613" lon="6.01625">
        <ele>732.14</ele>
        <time>2015-07-19T08:54:49Z</time>
      </trkpt>
      <trkpt lat="45.11651" lon="6.01579">
        <ele>732.6</ele>
        <time>2015-07-19T08:54:56Z</time>
      </trkpt>
      <trkpt lat="45.1169" lon="6.01535">
        <ele>732.51</ele>
        <time>2015-07-19T08:55:04Z</time>
      </trkpt>
      <trkpt lat="45.11712" lon="6.01516">
        <ele>731.99</ele>
        <time>2015-07-19T08:55:09Z</time>
      </trkpt>
      <trkpt lat="45.11723" lon="6.01504">
        <ele>731.7</ele>
        <time>2015-07-19T08:55:12Z</time>
      </trkpt>
      <trkpt lat="45.11755" lon="6.01451">
        <ele>732.3</ele>
        <time>2015-07-19T08:55:21Z</time>
      </trkpt>
      <trkpt lat="45.11791" lon="6.01394">
        <ele>732.28</ele>
        <time>2015-07-19T08:55:30Z</time>
      </trkpt>
      <trkpt lat="45.11834" lon="6.01354">
        <ele>732.18</ele>
        <time>2015-07-19T08:55:38Z</time>
      </trkpt>
      <trkpt lat="45.11882" lon="6.01314">
        <ele>732.35</ele>
        <time>2015-07-19T08:55:46Z</time>
      </trkpt>
      <trkpt lat="45.11905" lon="6.01296">
        <ele>732.4</ele>
        <time>2015-07-19T08:55:50Z</time>
      </trkpt>
      <trkpt lat="45.11952" lon="6.01272">
        <ele>733.48</ele>
        <time>2015-07-19T08:55:59Z</time>
      </trkpt>
      <trkpt lat="45.12003" lon="6.01266">
        <ele>735.05</ele>
        <time>2015-07-19T08:56:08Z</time>
      </trkpt>
      <trkpt lat="45.12013" lon="6.01263">
        <ele>734.96</ele>
        <time>2015-07-19T08:56:10Z</time>
      </trkpt>
    </trkseg>
  </trk>
</gpx>